[[{"header":{"parameterUnit":"m.s-1","parameterCategory":1,"la1":30.6,"la2":29.2853,"lo1":-89.7004,"lo2":-87.6739,"dy":0.0162,"dx":0.0183,"nx":112,"ny":82,"refTime":"2024-03-12T12:00:00:Z","depth":0,"parameterNumber":2,"parameterNumberName":"U-component_of_WINDS"},"data":[0.0,0.0,0.0,0.0,0.0,0.0,0.0,0.0,0.0,0.0,0.0,0.0,0.0,0.0,0.0,0.0,0.0,0.0,0.0,0.0,0.0,0.0,0.0,0.0,0.0,0.0,0.0,0.0,0.0,0.0,0.0,0.0,0.0,0.0,0.0,0.0,0.0,0.0,0.0,0.0,0.0,0.0,0.0,0.0,0.0,0.0,0.0,0.0,0.0,0.0,0.0,0.0,0.0,0.0,0.0,0.0,0.0,0.0,0.0,0.0,0.0,0.0,0.0,0.0,0.0,0.0,0.0,0.0,0.0,0.0,0.0,0.0,0.0,0.0,0.0,0.0,0.0,0.0,0.0,0.0,0.0,0.0,0.0,0.0,0.0,0.0,0.0,0.0,0.0,0.0,2.5151,2.5412,2.6995,2.7985,2.7936,2.7855,2.6645,2.4048,0.0,0.0,0.0,0.0,0.0,0.0,0.0,0.0,0.0,0.0,0.0,0.0,0.0,0.0,0.0,0.0,0.0,0.0,0.0,0.0,0.0,0.0,0.0,0.0,0.0,0.0,0.0,0.0,0.0,0.0,0.0,0.0,0.0,0.0,0.0,0.0,0.0,0.0,0.0,0.0,0.0,0.0,0.0,0.0,0.0,0.0,0.0,0.0,0.0,0.0,0.0,0.0,0.0,0.0,0.0,0.0,0.0,0.0,0.0,0.0,0.0,0.0,0.0,0.0,0.0,0.0,0.0,0.0,0.0,0.0,0.0,0.0,0.0,0.0,0.0,0.0,0.0,0.0,0.0,0.0,0.0,0.0,0.0,0.0,0.0,0.0,0.0,0.0,0.0,0.0,0.0,0.0,0.0,0.0,0.0,0.0,0.0,0.0,0.0,0.0,0.0,0.0,0.0,0.0,2.4146,2.637,2.6806,2.7099,2.7637,2.7634,2.6486,2.3904,0.0,0.0,0.0,0.0,0.0,0.0,0.0,0.0,0.0,0.0,0.0,0.0,0.0,0.0,0.0,0.0,0.0,0.0,0.0,0.0,0.0,0.0,0.0,0.0,0.0,0.0,0.0,0.0,0.0,0.0,0.0,0.0,0.0,0.0,0.0,0.0,0.0,0.0,0.0,0.0,0.0,0.0,0.0,0.0,0.0,0.0,0.0,0.0,0.0,0.0,0.0,0.0,0.0,0.0,0.0,0.0,0.0,0.0,0.0,0.0,0.0,0.0,0.0,0.0,0.0,0.0,0.0,0.0,0.0,0.0,0.0,0.0,0.0,0.0,0.0,0.0,0.0,0.0,0.0,0.0,0.0,0.0,0.0,0.0,0.0,0.0,0.0,0.0,0.0,0.0,0.0,0.0,0.0,0.0,0.0,0.0,0.0,0.0,0.0,0.0,0.0,0.0,0.0,2.326,2.3667,2.606,2.6634,2.6861,2.6989,2.7395,2.6415,2.3702,2.3651,0.0,0.0,0.0,0.0,0.0,0.0,0.0,0.0,0.0,0.0,0.0,0.0,0.0,0.0,0.0,0.0,0.0,0.0,0.0,0.0,0.0,0.0,0.0,0.0,0.0,0.0,0.0,0.0,0.0,0.0,0.0,0.0,0.0,0.0,0.0,0.0,0.0,0.0,0.0,0.0,0.0,0.0,0.0,0.0,0.0,0.0,0.0,0.0,0.0,0.0,0.0,0.0,0.0,0.0,0.0,0.0,0.0,0.0,0.0,0.0,0.0,0.0,0.0,0.0,0.0,0.0,0.0,0.0,0.0,0.0,0.0,0.0,0.0,0.0,0.0,0.0,0.0,0.0,0.0,0.0,0.0,0.0,0.0,0.0,0.0,0.0,0.0,0.0,0.0,0.0,0.0,0.0,0.0,0.0,0.0,0.0,0.0,0.0,0.0,0.0,0.0,0.0,2.358,2.3681,2.5273,2.5923,2.6258,2.6193,2.6865,2.6021,2.3187,2.2673,0.0,0.0,0.0,0.0,0.0,0.0,0.0,0.0,0.0,0.0,0.0,0.0,0.0,0.0,0.0,0.0,0.0,0.0,0.0,0.0,0.0,0.0,0.0,0.0,0.0,0.0,0.0,0.0,0.0,0.0,0.0,0.0,0.0,0.0,0.0,0.0,0.0,0.0,0.0,0.0,0.0,0.0,0.0,0.0,0.0,0.0,0.0,0.0,0.0,0.0,0.0,0.0,0.0,0.0,0.0,0.0,0.0,0.0,0.0,0.0,0.0,0.0,0.0,0.0,0.0,0.0,0.0,0.0,0.0,0.0,0.0,0.0,0.0,0.0,0.0,0.0,0.0,0.0,0.0,0.0,0.0,0.0,0.0,0.0,0.0,0.0,0.0,0.0,0.0,0.0,0.0,0.0,0.0,0.0,0.0,0.0,0.0,0.0,0.0,0.0,0.0,0.0,2.3634,2.4366,2.4393,2.4437,2.4677,2.5234,2.5821,2.4935,2.2008,2.181,0.0,0.0,0.0,0.0,0.0,0.0,0.0,0.0,0.0,0.0,0.0,0.0,0.0,0.0,0.0,0.0,0.0,0.0,0.0,0.0,0.0,0.0,0.0,0.0,0.0,0.0,0.0,0.0,0.0,0.0,0.0,0.0,0.0,0.0,0.0,0.0,0.0,0.0,0.0,0.0,0.0,0.0,0.0,0.0,0.0,0.0,0.0,0.0,0.0,0.0,0.0,0.0,0.0,0.0,0.0,0.0,0.0,0.0,0.0,0.0,0.0,0.0,0.0,0.0,0.0,0.0,0.0,0.0,0.0,0.0,0.0,0.0,0.0,0.0,0.0,0.0,0.0,0.0,0.0,0.0,0.0,0.0,0.0,0.0,0.0,0.0,0.0,0.0,0.0,0.0,0.0,0.0,0.0,0.0,0.0,0.0,0.0,0.0,0.0,0.0,0.0,0.0,2.3132,2.3257,2.3509,2.4,2.4341,2.4477,2.5127,2.4419,2.176,0.0,0.0,0.0,0.0,0.0,0.0,0.0,0.0,0.0,0.0,0.0,0.0,0.0,0.0,0.0,0.0,0.0,0.0,0.0,0.0,0.0,0.0,0.0,0.0,0.0,0.0,0.0,0.0,0.0,0.0,0.0,0.0,0.0,0.0,0.0,0.0,0.0,0.0,0.0,0.0,0.0,0.0,0.0,0.0,0.0,0.0,0.0,0.0,0.0,0.0,0.0,0.0,0.0,0.0,0.0,0.0,0.0,0.0,0.0,0.0,0.0,0.0,0.0,0.0,0.0,0.0,0.0,0.0,0.0,0.0,0.0,0.0,0.0,0.0,0.0,0.0,0.0,0.0,0.0,0.0,0.0,0.0,0.0,0.0,0.0,0.0,0.0,0.0,0.0,0.0,0.0,0.0,0.0,0.0,0.0,0.0,0.0,0.0,0.0,0.0,0.0,0.0,2.3453,2.3043,2.2709,2.3047,2.358,2.3888,2.379,2.4434,2.3728,2.1162,0.0,0.0,0.0,0.0,0.0,0.0,0.0,0.0,0.0,0.0,0.0,0.0,0.0,0.0,0.0,0.0,0.0,0.0,0.0,0.0,0.0,0.0,0.0,0.0,0.0,0.0,0.0,0.0,0.0,0.0,0.0,0.0,0.0,0.0,0.0,0.0,0.0,0.0,0.0,0.0,0.0,0.0,0.0,0.0,0.0,0.0,0.0,0.0,0.0,0.0,0.0,0.0,0.0,0.0,0.0,0.0,0.0,0.0,0.0,0.0,0.0,0.0,0.0,0.0,0.0,0.0,0.0,0.0,0.0,0.0,0.0,0.0,0.0,0.0,0.0,0.0,0.0,0.0,0.0,0.0,0.0,0.0,0.0,0.0,0.0,0.0,0.0,0.0,0.0,0.0,0.0,0.0,0.0,0.0,0.0,0.0,0.0,0.0,0.0,0.0,0.0,0.0,2.3438,2.3359,2.3078,2.3078,2.3078,2.3078,2.3078,2.3692,2.2942,0.0,0.0,0.0,0.0,0.0,0.0,0.0,0.0,0.0,0.0,0.0,0.0,0.0,0.0,0.0,0.0,0.0,0.0,0.0,0.0,0.0,0.0,0.0,0.0,0.0,0.0,0.0,0.0,0.0,0.0,0.0,0.0,0.0,0.0,0.0,0.0,0.0,0.0,0.0,0.0,0.0,0.0,0.0,0.0,0.0,0.0,0.0,0.0,0.0,0.0,0.0,0.0,0.0,0.0,0.0,0.0,0.0,0.0,0.0,0.0,0.0,0.0,0.0,0.0,0.0,0.0,0.0,0.0,0.0,0.0,0.0,0.0,0.0,0.0,0.0,0.0,0.0,0.0,0.0,0.0,0.0,0.0,0.0,0.0,0.0,0.0,0.0,0.0,0.0,0.0,0.0,0.0,0.0,0.0,0.0,0.0,0.0,0.0,0.0,0.0,0.0,0.0,0.0,2.3438,2.3359,2.3078,2.3078,2.3078,2.3078,2.3078,2.3273,2.2358,1.995,0.0,0.0,0.0,0.0,0.0,0.0,0.0,0.0,0.0,0.0,0.0,0.0,0.0,0.0,0.0,0.0,0.0,0.0,0.0,0.0,0.0,0.0,0.0,0.0,0.0,0.0,0.0,0.0,0.0,0.0,0.0,0.0,0.0,0.0,0.0,0.0,0.0,0.0,0.0,0.0,0.0,0.0,0.0,0.0,0.0,0.0,0.0,0.0,0.0,0.0,0.0,0.0,0.0,0.0,0.0,0.0,0.0,0.0,0.0,0.0,0.0,0.0,0.0,0.0,0.0,0.0,0.0,0.0,0.0,0.0,0.0,0.0,0.0,0.0,0.0,0.0,0.0,0.0,0.0,0.0,0.0,0.0,0.0,0.0,0.0,0.0,0.0,0.0,0.0,0.0,0.0,0.0,0.0,0.0,0.0,0.0,0.0,0.0,0.0,0.0,0.0,0.0,2.3409,2.3358,2.3078,2.3078,2.3078,2.3078,2.3078,2.3078,2.2346,2.0519,0.0,0.0,0.0,0.0,0.0,0.0,0.0,0.0,0.0,0.0,0.0,0.0,0.0,0.0,0.0,0.0,0.0,0.0,0.0,0.0,0.0,0.0,0.0,0.0,0.0,0.0,0.0,0.0,0.0,0.0,0.0,0.0,0.0,0.0,0.0,0.0,0.0,0.0,0.0,0.0,0.0,0.0,0.0,0.0,0.0,0.0,0.0,0.0,0.0,0.0,0.0,0.0,0.0,0.0,0.0,0.0,0.0,0.0,0.0,0.0,0.0,0.0,0.0,0.0,0.0,0.0,0.0,0.0,0.0,0.0,0.0,0.0,0.0,0.0,0.0,0.0,0.0,0.0,0.0,0.0,0.0,0.0,0.0,0.0,0.0,0.0,0.0,0.0,0.0,0.0,0.0,0.0,0.0,0.0,0.0,0.0,0.0,0.0,0.0,0.0,0.0,0.0,2.3311,2.3325,2.3078,2.3078,2.3078,2.3078,2.3078,2.3078,2.265,2.156,0.0,0.0,0.0,0.0,0.0,0.0,0.0,0.0,0.0,0.0,0.0,0.0,0.0,0.0,0.0,0.0,0.0,0.0,0.0,0.0,0.0,0.0,0.0,0.0,0.0,0.0,0.0,0.0,0.0,0.0,0.0,0.0,0.0,0.0,0.0,0.0,0.0,0.0,0.0,0.0,0.0,0.0,0.0,0.0,0.0,0.0,0.0,0.0,0.0,0.0,0.0,0.0,0.0,0.0,0.0,0.0,0.0,0.0,0.0,0.0,3.1773,2.9315,0.0,0.0,0.0,0.0,0.0,0.0,0.0,0.0,0.0,0.0,0.0,0.0,0.0,0.0,0.0,0.0,0.0,0.0,0.0,0.0,0.0,0.0,0.0,0.0,0.0,0.0,0.0,0.0,0.0,0.0,0.0,0.0,0.0,0.0,0.0,0.0,0.0,0.0,0.0,0.0,2.2884,2.3127,2.3078,2.3078,2.3078,2.3078,2.3078,2.3078,2.2565,2.1452,2.0532,0.0,0.0,0.0,0.0,0.0,0.0,0.0,0.0,0.0,0.0,0.0,0.0,0.0,0.0,0.0,0.0,0.0,0.0,0.0,0.0,0.0,0.0,0.0,0.0,0.0,0.0,0.0,0.0,0.0,0.0,0.0,0.0,0.0,0.0,0.0,0.0,0.0,0.0,0.0,0.0,0.0,0.0,0.0,0.0,0.0,0.0,0.0,0.0,0.0,0.0,0.0,0.0,0.0,0.0,0.0,0.0,0.0,0.0,0.0,3.2838,3.1568,0.0,0.0,0.0,0.0,0.0,0.0,0.0,0.0,0.0,0.0,0.0,0.0,0.0,0.0,0.0,0.0,0.0,0.0,0.0,0.0,0.0,0.0,0.0,0.0,0.0,0.0,0.0,0.0,0.0,0.0,0.0,0.0,0.0,0.0,0.0,0.0,0.0,0.0,0.0,0.0,2.2218,2.2845,2.3078,2.3078,2.2942,2.2857,2.2955,2.2857,2.254,2.1946,2.0972,0.0,0.0,0.0,0.0,0.0,0.0,0.0,0.0,0.0,0.0,0.0,0.0,0.0,0.0,0.0,0.0,0.0,0.0,0.0,0.0,0.0,0.0,0.0,0.0,0.0,0.0,0.0,0.0,0.0,0.0,0.0,0.0,0.0,0.0,0.0,0.0,0.0,0.0,0.0,0.0,0.0,0.0,0.0,0.0,0.0,0.0,0.0,0.0,0.0,0.0,0.0,0.0,0.0,3.3402,3.3389,3.3301,3.253,3.3379,3.5352,3.346,3.3856,3.5504,3.1702,0.0,0.0,0.0,0.0,0.0,0.0,0.0,0.0,0.0,0.0,0.0,0.0,0.0,0.0,0.0,0.0,0.0,0.0,0.0,0.0,0.0,0.0,2.8778,2.9456,3.0309,3.0328,2.8,0.0,0.0,0.0,0.0,0.0,0.0,0.0,0.0,0.0,0.0,0.0,2.1965,2.2735,2.3065,2.2967,2.2747,2.2567,2.2693,2.2594,2.249,2.2492,2.1307,2.032,0.0,0.0,0.0,0.0,0.0,0.0,0.0,0.0,0.0,0.0,0.0,0.0,0.0,0.0,0.0,0.0,0.0,0.0,0.0,0.0,0.0,0.0,0.0,0.0,0.0,0.0,0.0,0.0,0.0,0.0,0.0,0.0,3.5173,3.5267,0.0,0.0,0.0,0.0,0.0,0.0,0.0,0.0,0.0,0.0,0.0,0.0,0.0,3.2733,3.293,3.4054,3.4746,3.4954,3.6291,3.6705,3.6336,3.64,3.6307,3.6165,3.5831,0.0,3.5705,3.5308,0.0,0.0,0.0,0.0,0.0,0.0,0.0,0.0,0.0,0.0,0.0,0.0,0.0,0.0,0.0,0.0,0.0,0.0,0.0,0.0,0.0,0.0,3.1821,3.1944,3.2083,3.1905,3.0838,2.8492,2.6152,2.4539,2.3441,2.2224,0.0,0.0,0.0,0.0,0.0,0.0,2.3339,2.3273,2.2955,2.2637,2.2662,2.2626,2.2296,2.2403,2.2495,2.2482,2.2114,2.1383,2.0242,1.8599,0.0,0.0,0.0,0.0,0.0,0.0,0.0,0.0,0.0,0.0,0.0,0.0,0.0,0.0,0.0,0.0,0.0,0.0,0.0,0.0,0.0,0.0,0.0,0.0,0.0,0.0,0.0,0.0,0.0,3.3041,3.4,3.4811,3.3645,3.2587,0.0,0.0,0.0,0.0,0.0,0.0,0.0,0.0,0.0,3.4084,3.4002,3.4376,3.5207,3.5694,3.5896,3.5784,3.6426,3.6517,3.6051,3.5771,3.5795,3.6055,3.5639,3.5665,3.596,3.4857,3.3406,3.1659,0.0,0.0,0.0,0.0,2.8575,2.8404,2.9539,2.9968,2.9875,2.9544,0.0,0.0,0.0,0.0,0.0,0.0,0.0,2.8227,2.9906,3.0889,3.1548,3.2237,3.2072,3.1647,3.1268,2.9327,2.724,2.5908,2.5025,2.3833,2.1498,2.1547,0.0,0.0,0.0,2.2033,2.2017,2.2468,2.2662,2.2358,2.2309,2.2215,2.2116,2.2105,2.2083,2.2098,2.1565,2.0877,2.0252,1.8361,1.694,0.0,0.0,0.0,0.0,0.0,0.0,0.0,0.0,0.0,0.0,0.0,0.0,0.0,0.0,0.0,0.0,0.0,0.0,0.0,0.0,0.0,0.0,0.0,0.0,0.0,0.0,0.0,0.0,3.3511,3.3963,3.5052,3.468,3.3896,0.0,0.0,0.0,0.0,0.0,0.0,3.3502,3.3586,3.4197,3.5473,3.5416,3.5905,3.7009,3.7021,3.6869,3.6567,3.6371,3.6031,3.5542,3.4802,3.4808,3.5333,3.4775,3.4957,3.557,3.4394,3.3713,3.3258,3.174,3.0777,3.0337,3.0579,3.0477,3.036,3.1611,3.1981,3.1934,3.1381,3.1006,3.037,2.8761,0.0,0.0,0.0,0.0,2.8654,3.0353,3.0945,3.1275,3.2007,3.1602,3.1076,3.0845,2.947,2.8001,2.7281,2.6606,2.5347,2.3077,2.3065,0.0,2.1181,2.1825,2.2227,2.14,2.1966,2.2309,2.2028,2.1873,2.183,2.1935,2.1818,2.17,2.139,2.0771,2.0283,1.9896,1.8117,1.6908,1.6337,0.0,0.0,0.0,0.0,0.0,0.0,0.0,0.0,0.0,0.0,0.0,0.0,0.0,0.0,0.0,0.0,0.0,0.0,0.0,0.0,0.0,0.0,0.0,0.0,0.0,0.0,0.0,0.0,0.0,3.7868,3.759,0.0,0.0,0.0,0.0,3.323,3.3647,3.4225,3.4853,3.5491,3.6158,3.6886,3.6904,3.69,3.6987,3.7398,3.7559,3.7634,3.7055,3.6494,3.6052,3.5035,3.4317,3.3793,3.3758,3.3774,3.3954,3.5522,3.5438,3.4301,3.4203,3.288,3.1169,3.2336,3.2273,3.179,3.2959,3.3494,3.359,3.3543,3.2604,3.139,3.1035,2.953,0.0,0.0,2.9608,2.9664,3.0369,3.1377,3.216,3.1664,3.1228,3.0699,2.9918,2.8569,2.7633,2.8312,2.7461,2.6375,2.5468,0.0,2.4888,2.4291,2.3426,2.296,2.3195,2.2455,2.1793,2.159,2.1714,2.1721,2.1583,2.17,2.138,2.0348,2.0252,1.9856,1.902,1.7929,1.6889,1.6167,1.442,0.0,0.0,0.0,0.0,0.0,0.0,0.0,0.0,0.0,0.0,0.0,0.0,0.0,0.0,0.0,0.0,0.0,0.0,0.0,0.0,0.0,0.0,0.0,0.0,0.0,0.0,0.0,0.0,3.7444,3.7961,0.0,3.638,3.6465,3.6186,3.5205,3.5633,3.6021,3.628,3.6506,3.6749,3.7009,3.6987,3.705,3.7163,3.6724,3.6423,3.6245,3.5477,3.4775,3.4288,3.4046,3.3781,3.3555,3.3658,3.3694,3.3742,3.4358,3.4314,3.3797,3.3745,3.323,3.2572,3.2981,3.2962,3.2812,3.3206,3.3383,3.3367,3.2862,3.1917,3.0981,3.087,3.0238,2.9681,3.0145,3.0211,3.0253,3.0413,3.0854,3.1127,3.0926,3.019,2.9446,2.9199,2.8012,2.7059,2.7307,2.6734,2.5952,2.5176,2.5585,2.5589,2.4166,2.3737,2.3365,2.2842,2.2017,2.1444,2.1148,2.1288,2.1476,2.1497,2.0964,2.0463,2.0242,1.8876,1.8023,1.7696,1.6905,1.6116,1.5196,1.4755,1.3197,0.0,0.0,0.0,0.0,0.0,0.0,0.0,0.0,0.0,0.0,0.0,0.0,0.0,0.0,0.0,0.0,0.0,0.0,0.0,0.0,0.0,0.0,0.0,0.0,0.0,3.5358,3.6582,3.712,3.8041,3.8218,3.713,3.7593,3.7542,3.6541,3.6816,3.6987,3.6987,3.6987,3.6987,3.6987,3.6773,3.6748,3.6898,3.6203,3.573,3.5546,3.4769,3.4217,3.3852,3.3666,3.3555,3.3555,3.3658,3.3694,3.371,3.3642,3.3607,3.3503,3.345,3.3435,3.3356,3.3356,3.3334,3.3249,3.2957,3.2721,3.2407,3.1792,3.1185,3.0719,3.0674,3.0425,3.0177,3.0131,3.0136,3.0129,2.9885,3.0199,3.0432,3.0089,2.9319,2.8707,2.8611,2.761,2.669,2.6784,2.6427,2.5859,2.5071,2.561,2.5517,2.3847,2.3484,2.3103,2.2234,2.1504,2.0985,2.0878,2.0797,2.0708,2.0911,2.0099,1.942,1.9127,1.7933,1.6909,1.6217,1.6012,1.5248,1.3783,1.3137,1.1543,0.8903,0.0,0.0,0.0,0.0,0.0,0.0,0.0,0.0,0.0,0.0,0.0,0.0,0.0,0.0,0.0,0.0,0.0,0.0,0.0,0.0,0.0,0.0,0.0,3.6109,3.6469,3.693,3.7161,3.8135,3.847,3.7648,3.8144,3.8104,3.7079,3.6987,3.6987,3.6987,3.6987,3.6987,3.7027,3.6435,3.6128,3.611,3.5819,3.5663,3.5646,3.5172,3.4945,3.4913,3.4066,3.3694,3.3694,3.3694,3.3694,3.371,3.3555,3.3503,3.3503,3.3658,3.3619,3.3481,3.3481,3.3376,3.3179,3.2318,3.1518,3.0813,3.0729,3.0649,3.06,3.045,2.9978,2.9494,2.9492,2.9435,2.9343,2.8719,2.9511,3.0186,2.9198,2.8719,2.8435,2.8232,2.7383,2.6759,2.6891,2.6665,2.6202,2.5411,2.5306,2.4816,2.3606,2.2857,0.0,2.1701,2.1063,2.0664,2.0868,2.0139,1.9656,1.9877,1.9152,1.8239,1.6998,1.725,1.6604,1.4747,1.5242,1.4386,1.205,0.9644,0.7812,0.6585,0.0,0.0,0.0,0.0,0.0,0.0,0.0,0.0,0.0,0.0,0.0,0.0,0.0,0.0,0.0,0.0,0.0,0.0,0.0,0.0,0.0,3.6608,3.7456,3.5928,3.669,3.7825,3.9014,3.8951,3.8858,3.9014,3.8702,3.8068,3.7079,3.6987,3.6987,3.6987,3.6987,3.7079,3.7185,3.6488,3.6277,3.6571,3.5268,3.4691,3.4904,3.4149,3.3752,3.3736,3.365,3.3555,3.3555,3.3658,3.3694,3.3642,3.3193,3.2964,3.3033,3.3435,3.3473,3.3383,3.3481,3.3065,3.2338,3.1481,3.0729,3.01,3.0048,2.9633,2.9184,2.9135,2.9002,2.8821,2.8826,2.8871,2.8733,2.8336,2.8502,2.8629,2.8251,2.7881,2.7621,2.7679,2.7301,2.6713,2.611,2.59,2.5777,2.5561,2.4897,2.4334,2.3988,2.3012,2.2356,2.2192,2.1278,2.0557,2.044,2.0149,1.9822,1.9453,1.7924,1.6716,1.603,1.4927,1.4041,1.3474,1.3984,1.3246,1.1089,0.8431,0.6929,0.0,0.0,0.0,0.0,0.0,0.0,0.0,0.0,0.0,0.0,0.0,0.0,0.0,0.0,0.0,0.0,0.0,0.0,0.0,0.0,0.0,0.0,3.8026,3.8597,3.671,3.739,3.8561,3.9771,3.8898,3.8528,3.9514,3.8549,3.7637,3.7062,3.6987,3.6987,3.6987,3.6829,3.69,3.7294,3.6041,3.5644,3.6231,3.4651,3.3893,3.4064,3.3477,3.3203,3.3203,3.3309,3.3346,3.3346,3.345,3.3382,3.3102,3.2765,3.2477,3.2296,0.0,0.0,0.0,0.0,3.2043,3.1146,3.0715,2.9998,2.9299,2.9299,2.9002,2.8587,2.8587,2.8587,2.8587,2.8587,2.856,2.8441,2.8217,2.8118,2.8,2.7736,2.7561,2.7288,2.6837,2.6608,2.6248,2.5361,2.4885,0.0,2.4552,2.4044,2.3547,2.3319,2.2544,2.2018,2.2178,2.0976,2.0139,1.9946,1.922,1.8582,1.8172,1.646,0.0,0.0,0.0,1.3068,1.2956,1.2169,0.0,0.0,0.0,0.595,0.5749,0.5476,0.0,0.0,0.5052,0.5025,0.0,0.0,0.0,0.0,0.0,0.0,0.0,0.0,0.0,0.0,0.0,0.0,0.0,0.0,0.0,0.0,3.9139,3.9896,3.79,3.8204,3.8975,3.9789,3.8365,3.7931,3.9438,3.8025,3.6987,3.6987,3.6987,3.6987,3.693,3.6514,0.0,0.0,0.0,3.4723,3.5416,3.398,3.3256,3.3287,3.3165,3.3112,3.3112,3.3112,3.3112,3.3112,3.3203,3.2958,3.2398,3.2342,3.1879,3.1306,3.1697,3.1752,3.1605,3.1395,3.0759,2.9997,2.9849,0.0,0.0,2.8587,2.8587,2.8587,2.8587,2.8573,2.856,2.856,2.8363,2.8217,2.8179,2.8,2.7773,2.74,2.7198,2.685,2.5895,2.5677,2.5487,2.4706,2.3849,2.321,2.3102,2.2982,2.2668,2.214,2.17,2.1471,2.1619,2.0401,1.9444,1.9372,0.0,0.0,1.6506,1.5095,1.4082,1.3809,1.3157,1.2742,1.2492,0.9966,0.8434,0.8199,0.6283,0.5006,0.43,0.4839,0.4928,0.4828,0.4467,0.4118,0.0,0.0,0.0,0.0,0.0,0.0,0.0,0.0,0.0,0.0,0.0,0.0,0.0,0.0,0.0,3.8251,3.9481,3.9896,3.79,3.7738,3.8345,3.9753,3.8365,3.7931,3.9438,3.8025,3.6987,3.6987,3.6987,3.6851,3.6468,3.636,3.626,3.6146,3.4884,3.4526,3.5085,3.3704,3.3083,3.3316,3.3067,0.0,3.2951,3.2951,3.3005,3.3096,3.3096,3.2866,3.2342,3.1879,3.1014,3.0064,3.1151,3.1498,3.138,3.0608,3.0135,2.9731,2.9121,2.8746,2.8587,2.8587,2.8587,2.8587,2.8587,2.8441,0.0,2.8204,2.7954,2.7615,2.7512,2.685,2.6257,2.6164,2.5528,2.4987,2.4908,2.4897,2.4631,2.3646,2.349,2.321,2.2442,2.214,2.2032,2.2119,2.1369,2.0685,2.0523,1.9526,1.8683,1.8082,1.761,1.683,1.5481,1.4351,1.3224,1.1897,1.0594,0.9923,1.0062,0.7966,0.6747,0.6725,0.5514,0.4736,0.4389,0.4931,0.5109,0.4828,0.4109,0.2992,0.0,0.0,0.0,0.0,0.0,0.0,0.0,0.0,0.0,0.0,0.0,3.7636,3.9198,0.0,4.0359,3.9583,4.0094,3.9896,3.79,3.7577,3.8042,3.9187,3.8176,3.781,3.8925,3.7853,3.7048,3.7009,3.6771,3.655,3.6301,3.5805,3.5681,3.5881,3.4689,3.4377,3.4994,3.3884,3.3287,3.3287,3.31,3.2921,3.2773,3.2843,3.2966,3.3005,3.2812,3.2453,3.1879,3.0955,3.019,2.9645,3.0253,3.0444,3.0305,2.9792,2.9463,2.9237,2.8848,2.8651,2.8587,2.8587,2.8309,2.7862,2.7744,2.7273,2.6778,2.6661,2.6452,2.6168,2.6105,2.5652,2.5271,2.5229,2.4897,2.4447,2.4022,2.3942,2.3656,2.2668,2.256,2.2497,2.2017,2.1442,2.1292,2.1991,2.1141,2.0328,2.0177,1.8797,1.7535,1.6664,1.6118,1.5333,1.3991,1.2959,1.1735,1.012,0.9392,0.8852,0.8594,0.7066,0.6308,0.648,0.5295,0.4659,0.4563,0.502,0.4671,0.3523,0.2855,0.1945,0.0,0.0,0.0,0.0,0.0,0.0,0.0,3.6367,3.6327,3.8969,3.9155,3.9422,4.1371,4.1679,4.1426,4.0702,4.06,3.9896,3.79,3.7577,3.7827,3.8473,3.7859,3.7709,3.8433,3.7747,3.711,3.6851,3.6547,3.6268,3.5985,3.5222,3.5014,3.5559,3.4464,3.4169,3.4822,3.4037,3.3547,3.3403,3.3162,3.2928,3.2703,3.2773,3.2796,3.2749,3.2235,3.1758,3.1202,3.004,2.9568,2.9471,2.9331,2.9212,2.917,2.9049,2.8881,2.8721,2.8712,2.8624,2.8509,2.8363,2.7822,2.7103,2.6751,2.6052,2.5291,2.5186,2.4949,2.4777,2.4789,2.4608,2.4365,2.4389,2.4301,2.3885,2.308,2.2874,2.2658,2.1818,2.1711,2.1725,2.1551,2.0791,2.0577,2.1649,2.0637,1.9688,1.9659,1.7829,1.6217,1.5431,1.4448,1.3452,1.2518,1.1569,1.041,0.8757,0.8734,0.837,0.7469,0.6467,0.6042,0.6308,0.5292,0.4746,0.4739,0.5109,0.4212,0.2224,0.1314,0.0707,3.7149,3.5921,3.5944,3.8106,3.8112,3.8761,0.0,4.2221,4.0878,4.3365,4.3403,4.3023,4.3206,4.3243,4.2642,4.0883,4.06,3.9896,3.79,3.7577,3.7649,3.772,3.7559,3.7717,3.8513,3.8006,3.7269,3.6367,3.6549,3.6185,3.4849,3.4783,3.4657,3.43,3.3922,3.3887,3.4194,3.3625,3.3446,3.3671,3.3152,3.2944,3.3043,3.2757,3.2478,3.2199,3.117,3.0671,3.0527,2.9879,2.9435,2.9114,2.8935,2.8665,2.8421,2.8579,2.8511,2.8338,2.8352,2.8352,2.8233,2.7548,2.7142,2.6764,2.5936,2.5268,2.4818,2.4746,2.4446,2.4262,2.4405,2.3816,2.3252,2.3362,2.2755,2.2022,2.1711,2.17,2.1603,2.1293,2.1583,2.1486,2.052,2.0414,2.052,2.0655,1.9127,1.7856,1.7623,1.6088,1.4761,1.4289,1.3461,1.2516,1.157,1.0671,0.9763,0.8757,0.8222,0.7515,0.6667,0.5648,0.5255,0.5484,0.5104,0.501,0.5008,0.5018,0.4023,0.2123,0.0303,-0.0808,4.0468,3.973,3.9269,4.0386,4.03,4.0535,4.2868,4.199,4.1438,4.4046,4.4064,4.3587,4.3497,4.3497,4.3041,4.1643,4.1411,4.0744,3.8743,3.8456,3.824,3.7684,3.7541,3.7678,3.8144,3.7452,3.6792,3.6478,3.5879,3.5274,3.4642,3.4448,3.4284,3.4101,3.3969,3.3969,3.4101,3.3905,3.3758,3.3675,3.3316,3.3108,3.3076,3.2475,3.183,3.1192,3.0718,3.0293,2.9975,2.9718,2.9422,2.9073,2.8852,2.8603,2.8289,2.8329,2.8238,2.8133,2.7668,2.7485,2.7367,2.6501,2.579,2.5165,2.4514,2.3815,2.3194,2.3047,2.2885,2.2777,2.2874,2.2571,2.2324,2.2237,2.1915,2.1593,2.138,2.1308,2.1118,2.0584,2.0594,2.0428,1.9459,1.8828,1.846,1.846,1.7768,1.7033,1.6368,1.5144,1.3898,1.2613,1.1646,1.0973,1.0594,1.0226,0.9396,0.8028,0.7811,0.7178,0.5837,0.5329,0.5246,0.5486,0.5374,0.5191,0.5191,0.5374,0.468,0.334,0.0505,-0.1111,4.1685,4.1774,4.1591,4.2036,4.2368,4.2585,4.2713,4.2176,4.2214,4.4131,4.406,4.3621,4.3584,4.355,4.3188,4.2223,4.2006,4.132,3.9355,3.9085,3.8726,3.772,3.7577,3.7727,3.8014,3.7394,3.68,3.6417,3.5595,3.4923,3.4366,3.4134,3.405,3.4101,3.4101,3.4101,3.4101,3.4327,3.4343,3.4149,3.4143,3.409,3.3975,3.2905,3.1973,3.1145,3.076,3.0337,2.9896,2.9721,2.9366,2.9013,2.8879,2.8565,2.8157,2.7855,2.7709,2.7642,2.704,2.6671,2.6362,2.5423,2.4653,2.39,2.3203,2.2496,2.1915,2.1797,2.1711,2.1711,2.1807,2.1797,2.17,2.1507,2.1451,2.1385,2.1181,2.1138,2.0858,1.9927,1.9756,1.945,1.8275,1.7513,1.6909,1.6612,1.6521,1.6217,1.5333,1.4099,1.2674,1.1131,1.041,1.0038,1.0038,1.0038,0.9213,0.7487,0.7712,0.7172,0.5422,0.542,0.5531,0.5844,0.5555,0.5371,0.5371,0.5043,0.4591,0.3848,0.0707,-0.1111,3.929,4.0061,4.1036,4.2649,4.4275,4.5417,4.5148,4.4813,4.4516,4.4354,4.4017,4.3789,4.3793,4.3674,4.3296,4.2333,4.2061,4.13,3.9367,3.9084,3.8744,3.772,3.7577,3.7807,3.8346,3.8377,3.7643,3.6024,3.6235,3.5643,3.3825,3.3848,3.3949,3.4101,3.4101,3.4101,3.4101,3.491,3.5356,3.5381,3.593,3.6222,3.6174,3.4565,3.3472,3.2779,3.1377,3.0773,3.0683,2.9896,2.9296,2.8784,2.8821,2.8381,2.7749,2.6997,2.6734,2.671,2.671,2.6189,2.5378,2.4472,2.3993,2.3538,2.2282,2.1735,2.1497,2.1497,2.1497,2.1583,2.1711,2.169,2.1497,2.1497,2.1379,2.1161,2.0956,2.0868,2.0566,1.9531,1.9452,1.9007,1.7068,1.6893,1.662,1.5627,1.5438,1.5144,1.4282,1.2534,1.1055,1.0135,1.0038,1.0038,1.0038,1.0038,0.9213,0.7487,0.791,0.7378,0.5625,0.5625,0.5823,0.6109,0.5644,0.5463,0.5646,0.3883,0.2927,0.2832,0.0404,-0.1111,3.9978,4.1195,4.2518,4.3607,4.432,4.467,4.4399,4.41,4.398,4.4256,4.4069,4.3855,4.3804,4.3675,4.3487,4.3195,4.3039,4.2532,4.1209,4.0472,3.9734,3.869,3.8007,3.7807,3.8336,3.7813,3.7326,3.7164,3.614,3.5279,3.4743,3.4207,3.4175,3.4797,3.4915,3.5196,3.5707,3.6051,3.6244,3.6254,3.5856,3.5013,3.3895,3.3423,3.2883,3.2306,3.1806,3.1608,3.1517,3.1042,3.0338,2.9575,2.9361,2.8671,2.7696,2.6971,2.6327,2.5686,2.5127,2.4812,2.439,2.3338,2.2894,2.271,2.2006,2.1737,2.1675,2.1675,2.1737,2.17,2.1797,2.169,2.1441,2.1312,2.1121,2.0771,2.0033,1.9823,1.9362,1.7865,1.7649,1.7306,1.602,1.5914,1.5823,1.5438,1.4379,1.3523,1.3218,1.1657,1.0502,1.0043,1.0038,1.0038,1.0038,0.9305,0.857,0.7755,0.7419,0.6865,0.5929,0.5929,0.6018,0.6109,0.5735,0.5644,0.5733,0.3957,0.2398,0.0909,-0.0606,-0.1415,4.1036,4.2283,4.3368,4.4491,4.4762,4.4671,4.4293,4.4083,4.3999,4.4158,4.3863,4.3534,4.3466,4.336,4.3301,4.3287,4.3413,4.3059,4.1718,4.1338,4.0562,3.8869,3.8672,3.862,3.852,3.8188,3.7912,3.7801,3.6662,3.5886,3.5678,3.5069,3.5037,3.5662,3.5678,3.5945,3.6495,3.6875,3.7126,3.718,3.6541,3.5316,3.3759,3.3757,3.3428,3.2853,3.2564,3.2428,3.2399,3.1704,3.1002,3.0367,2.9762,2.8814,2.7696,2.667,2.5667,2.4773,2.4281,2.3862,2.3444,2.2663,2.2371,2.2227,2.1807,2.1717,2.1665,2.1665,2.1727,2.1711,2.1675,2.1538,2.1211,2.0664,2.0404,1.9968,1.8928,1.8742,1.836,1.6943,1.6675,1.6407,1.5438,1.5235,1.5144,1.5144,1.3528,1.2361,1.2533,1.1065,0.9941,0.974,0.9753,0.9772,0.9791,0.8765,0.797,0.7689,0.7049,0.655,0.6029,0.6029,0.6117,0.6109,0.5824,0.5463,0.501,0.3408,0.2016,0.0707,-0.0909,-0.1617,4.2245,4.3153,4.3615,4.5199,4.5586,4.5457,4.4919,4.4795,4.4624,4.4053,4.3379,4.2869,4.2772,4.2718,4.2712,4.2712,4.3199,4.2947,4.1121,4.1626,4.1154,3.8363,3.9498,4.0034,3.8807,3.9407,3.9264,3.7985,3.781,3.7462,3.6665,3.6442,3.6442,3.658,3.6507,3.6507,3.6633,3.7425,3.7942,3.8062,3.7832,3.6971,3.553,3.5374,3.4984,3.4317,3.3575,3.3254,3.3143,3.1994,3.139,3.1114,3.0037,2.8869,2.7589,2.6079,2.4967,2.4158,2.4103,2.3431,2.268,2.2477,2.2285,2.2022,2.1614,2.1497,2.1497,2.1497,2.1497,2.1527,2.142,2.1262,2.0827,1.9496,1.912,1.8708,1.7848,1.7647,1.7414,1.6802,1.662,1.6315,1.5249,1.4866,1.4678,1.4678,1.2893,1.173,1.225,1.0696,0.9479,0.9338,0.9283,0.9331,0.9301,0.8333,0.7615,0.7409,0.6739,0.6234,0.6029,0.6029,0.6117,0.6109,0.5824,0.5099,0.384,0.2235,0.1617,0.1819,-0.0505,-0.1617,4.2864,4.4003,4.5064,4.549,4.5586,4.5457,4.4919,4.4796,4.4474,4.3334,4.2999,4.2723,4.2087,4.2377,4.2712,4.2712,4.3166,4.3351,4.2878,4.2353,4.1555,4.0213,3.9835,3.9388,3.8755,3.8894,3.9003,3.8944,3.8196,3.7995,3.8426,3.7665,3.7508,3.803,3.8101,3.8155,3.821,3.8677,3.8569,3.7897,3.7233,3.6343,3.5219,3.4588,3.4182,3.402,3.3837,3.3616,3.3422,3.2821,3.2246,3.1567,3.106,2.9631,2.7665,2.6719,2.5702,2.4526,2.3575,2.3099,2.2927,2.2671,2.2486,2.2237,2.1818,2.1711,2.1711,2.1711,2.1711,2.1522,2.0555,2.0146,1.9709,1.861,1.8201,1.7803,1.7143,1.6969,1.6711,1.5914,1.5573,1.542,1.5183,1.4902,1.4706,1.4706,1.2942,1.1666,1.1799,1.0362,0.9275,0.899,0.9183,0.9288,0.9301,0.7639,0.6739,0.7073,0.6058,0.5522,0.5724,0.6029,0.6214,0.6109,0.5916,0.5099,0.3481,0.243,0.101,-0.0707,-0.1314,-0.1617,4.4003,4.4872,4.5586,4.5586,4.5586,4.5284,4.4072,4.4056,4.375,4.1642,4.1586,4.153,4.0263,4.1178,4.1995,4.1674,4.2673,4.3369,4.2986,4.2805,4.2095,4.0477,4.0479,4.0185,3.9087,3.9233,3.9394,3.9473,3.9119,3.9143,3.9627,3.938,3.9198,3.9168,3.9168,3.9077,3.8805,3.9023,3.8712,3.7778,3.6986,3.6052,3.5087,3.4301,3.387,3.387,3.3927,3.3775,3.355,3.3141,3.2715,3.2141,3.1455,2.9738,2.7623,2.6882,2.5442,2.3853,2.322,2.2852,2.2724,2.2606,2.2379,2.2119,2.1904,2.1807,2.1807,2.1807,2.1543,2.0985,2.0014,1.9435,1.8724,1.7433,1.7062,1.6805,1.6179,1.5966,1.5838,1.5354,1.5173,1.502,1.4811,1.4247,1.3749,1.3651,1.1849,1.0544,1.0552,0.9671,0.8857,0.866,0.884,0.9024,0.9024,0.7109,0.6328,0.7151,0.5818,0.525,0.5919,0.6132,0.6312,0.6145,0.6023,0.5191,0.366,0.2624,0.0808,-0.1617,-0.1617,-0.1617,4.5182,4.5586,4.5586,4.5586,4.5586,4.5035,4.2955,4.3038,4.2692,3.9679,3.9746,3.9848,3.8234,3.9676,4.0922,4.0452,4.2078,4.3112,4.2475,4.3091,4.265,4.0057,4.1183,4.1451,3.9562,3.9856,4.0008,3.9714,4.0251,4.0569,4.0514,4.1064,4.0943,4.0066,3.9838,3.9429,3.875,3.8914,3.8662,3.7937,3.7024,3.6104,3.516,3.4239,3.3844,3.3844,3.3818,3.3691,3.3449,3.309,3.2818,3.2563,3.1581,2.9723,2.7545,2.6783,2.4935,2.2789,2.2896,2.2746,2.2488,2.2424,2.2187,2.1818,2.1807,2.1807,2.1807,2.1655,2.1053,2.033,1.9441,1.8632,1.7711,1.6133,1.5823,1.5723,1.5195,1.509,1.5173,1.5173,1.4985,1.472,1.4307,1.3278,1.248,1.2198,1.0509,0.9265,0.9288,0.8865,0.8416,0.8201,0.8472,0.8568,0.8568,0.6835,0.6148,0.7151,0.5647,0.5083,0.6116,0.6132,0.6232,0.6232,0.5941,0.5248,0.402,0.2884,0.1,-0.1314,-0.1415,-0.1415,4.5436,4.5513,4.5531,4.5586,4.5568,4.4997,4.2955,4.2579,4.1794,3.8889,3.8387,3.8387,3.8184,3.8885,3.9927,4.1239,4.2125,4.282,4.3204,4.3474,4.2852,4.0906,4.1196,4.1011,3.9562,3.9634,3.9753,3.9714,4.0846,4.145,4.1243,4.1865,4.1758,4.0704,4.0156,3.9486,3.8639,3.886,3.8843,3.8623,3.7097,3.6105,3.5631,3.4085,3.341,3.341,3.3438,3.3227,3.2858,3.2786,3.2571,3.2282,3.2042,3.015,2.7557,2.7287,2.5512,2.3176,2.2692,2.2582,2.2692,2.2454,2.2208,2.2022,2.1818,2.1807,2.1645,2.0934,2.0644,2.002,1.7738,1.7082,1.6547,1.5068,1.4831,1.4936,1.509,1.5257,1.5347,1.5347,1.4482,1.3704,1.362,1.2619,1.178,1.1516,1.0529,0.973,0.9561,0.8823,0.8232,0.8201,0.8472,0.8568,0.8568,0.6835,0.5786,0.5955,0.4961,0.4455,0.461,0.532,0.5724,0.5625,0.5654,0.5061,0.3749,0.3534,0.2176,-0.0101,-0.0202,-0.0707,4.5495,4.5457,4.5457,4.5531,4.5513,4.4863,4.2383,4.1825,4.0881,3.7529,3.7212,3.7255,3.6328,3.7795,3.9277,3.9621,4.1274,4.2595,4.2852,4.3256,4.3039,4.1643,4.1267,4.0871,4.0175,3.9768,3.9645,3.9885,4.1087,4.1705,4.1409,4.2047,4.1955,4.0958,4.0165,3.9429,3.8694,3.886,3.8662,3.8141,3.6901,3.5917,3.5145,3.3894,3.3326,3.3326,3.3326,3.3086,3.2704,3.2704,3.2503,3.2182,3.2182,3.0361,2.7717,2.7643,2.5644,2.3015,2.2638,2.24,2.2251,2.2098,2.2046,2.1915,2.1818,2.1807,2.1645,2.0779,2.0235,1.9362,1.7261,1.637,1.5718,1.4643,1.4566,1.4824,1.5173,1.4908,1.4482,1.4482,1.3704,1.2936,1.2687,1.1832,1.1058,1.0809,0.985,0.9231,0.9131,0.8732,0.8396,0.8201,0.8472,0.8568,0.8568,0.6835,0.5877,0.6138,0.5032,0.4442,0.4716,0.5331,0.5634,0.5534,0.5534,0.5234,0.4648,0.3927,0.2701,0.1007,0.0303,-0.0404,4.5437,4.5457,4.5438,4.5495,4.5495,4.4729,4.1852,4.1106,3.9996,3.6456,3.6143,3.6185,3.5119,3.6982,3.8643,3.8442,4.063,4.239,4.2349,4.3067,4.3167,4.2137,4.1538,4.1107,4.0788,4.0188,3.9878,4.0069,4.1174,4.1872,4.1872,4.2229,4.1939,4.1058,4.0206,3.9486,3.886,3.8694,3.8327,3.7722,3.6691,3.5695,3.4662,3.3825,3.3382,3.3326,3.3326,3.3086,3.2704,3.2704,3.2503,3.2169,3.2009,3.0288,2.7875,2.7643,2.5503,2.2703,2.2628,2.2252,2.1807,2.1807,2.1807,2.1807,2.1568,2.1645,2.1568,2.0294,1.9599,1.8895,1.6944,1.5884,1.5228,1.465,1.465,1.4824,1.5082,1.4391,1.3704,1.3529,1.2851,1.2254,1.1843,1.0966,1.0279,1.012,0.9336,0.8811,0.864,0.8652,0.8564,0.8292,0.8472,0.8568,0.8568,0.6923,0.5968,0.6505,0.5138,0.4475,0.492,0.524,0.5445,0.5445,0.5443,0.5384,0.5425,0.4312,0.3219,0.2109,0.121,0.0505,4.5302,4.5495,4.5495,4.5495,4.5438,4.4672,4.1831,4.0648,3.9292,3.6396,3.5188,3.5109,3.6656,3.7023,3.7841,4.008,4.1276,4.208,4.2508,4.3291,4.3365,4.2205,4.2211,4.1815,4.0731,4.085,4.0758,4.0171,4.1137,4.2226,4.3346,4.2933,4.2211,4.1198,4.0456,3.9748,3.8969,3.8343,3.8001,3.8042,3.6646,3.5642,3.5044,3.4153,3.3577,3.3326,3.3326,3.3086,3.2704,3.2704,3.2503,3.2096,3.1294,2.9748,2.7802,2.6815,2.4831,2.2703,2.2478,2.2176,2.1807,2.1807,2.1807,2.1645,2.0857,2.1175,2.1328,1.8868,1.8727,1.8727,1.6206,1.5477,1.5311,1.4817,1.4908,1.4915,1.4314,1.4139,1.3795,1.2936,1.1918,1.1154,1.1068,1.0294,0.9602,0.9432,0.9428,0.934,0.8907,0.8836,0.8752,0.8568,0.8568,0.8568,0.8568,0.7105,0.6148,0.623,0.5046,0.4287,0.4416,0.4732,0.4834,0.4834,0.5037,0.5122,0.5085,0.4986,0.4399,0.3217,0.3536,0.3035,4.5316,4.5566,4.5549,4.5565,4.5145,4.4268,4.2408,4.0594,3.8762,3.6896,3.5454,3.4914,3.6137,3.6297,3.6863,3.8826,3.9836,4.0606,4.1192,4.2437,4.2989,4.2252,4.23,4.2213,4.1716,4.1446,4.1411,4.1681,4.2264,4.2952,4.3772,4.3074,4.2268,4.1255,4.0456,3.9693,3.8782,3.8528,3.8214,3.778,3.6904,3.59,3.4898,3.4153,3.3646,3.3326,3.3326,3.3086,3.2704,3.2704,3.2187,3.1341,3.069,2.9157,2.7237,2.649,2.4814,2.2852,2.2777,2.2327,2.1807,2.1807,2.1807,2.1731,2.1405,2.1175,2.0692,1.9186,1.8638,1.8167,1.646,1.5726,1.5311,1.4992,1.4489,1.4068,1.4062,1.3118,1.2174,1.1918,1.1063,1.0381,1.0381,1.0125,0.9777,0.9694,0.9689,0.9515,0.9345,0.9178,0.8911,0.8197,0.8384,0.8656,0.8752,0.7197,0.6184,0.646,0.5019,0.4298,0.4323,0.4632,0.4834,0.4834,0.4834,0.4937,0.4937,0.4937,0.4329,0.3317,0.3728,0.3219,4.4941,4.5423,4.5618,4.5596,4.4927,4.3938,4.2526,4.0424,3.8402,3.7002,3.5578,3.4824,3.5642,3.5998,3.6592,3.7885,3.9095,4.0087,4.0765,4.2043,4.2914,4.2807,4.2797,4.2644,4.2293,4.173,4.177,4.2655,4.3017,4.3519,4.4064,4.332,4.2399,4.1385,4.0442,3.9589,3.8727,3.8678,3.8383,3.7722,3.7188,3.6245,3.4949,3.4461,3.3894,3.3326,3.3326,3.3086,3.2775,3.2775,3.1992,3.0594,3.0056,2.8484,2.6574,2.6005,2.4664,2.315,2.3075,2.2478,2.1883,2.1731,2.1655,2.1655,2.1655,2.1111,2.032,1.9368,1.84,1.7482,1.6482,1.5875,1.5295,1.4704,1.4018,1.3446,1.3256,1.2082,1.0907,1.0824,1.0256,0.9777,0.9864,0.9864,0.9864,0.9864,0.9689,0.9446,0.9063,0.8895,0.8363,0.7378,0.7609,0.7937,0.8113,0.6731,0.5913,0.6131,0.4976,0.4327,0.4329,0.4632,0.4734,0.4732,0.4734,0.4734,0.4632,0.4937,0.4632,0.3924,0.4632,0.4221,4.3983,4.5044,4.568,4.5613,4.4927,4.3801,4.1932,4.0101,3.827,3.6402,3.5211,3.478,3.5631,3.6498,3.7319,3.7978,3.9714,4.1186,4.1788,4.2585,4.3381,4.408,4.3899,4.3245,4.2123,4.1626,4.1682,4.2464,4.3051,4.3741,4.4468,4.3659,4.2713,4.1699,4.0411,3.9468,3.9023,3.8535,3.8238,3.81,3.7621,3.6661,3.5275,3.5275,3.4581,3.3326,3.3326,3.3157,3.2988,3.2988,3.1877,3.0105,2.9285,2.7656,2.5789,2.4998,2.4254,2.3519,2.315,2.2628,2.2035,2.1655,2.1359,2.1215,2.1215,2.1007,2.0419,1.8885,1.7819,1.6893,1.613,1.572,1.5203,1.3698,1.343,1.3151,1.1608,1.1021,1.0602,0.9728,0.9393,0.9345,0.9602,0.9602,0.9602,0.9602,0.9602,0.9143,0.7793,0.7629,0.7181,0.6004,0.5882,0.6057,0.6386,0.572,0.5202,0.5206,0.4735,0.4429,0.4429,0.4632,0.4632,0.4429,0.4632,0.4632,0.4429,0.524,0.5548,0.5648,0.667,0.6891,4.1629,4.2583,4.3234,4.3214,4.2391,4.1387,4.0708,3.907,3.7364,3.6133,3.5139,3.4757,3.5642,3.5529,3.6171,3.8702,3.9175,3.9887,4.1769,4.2658,4.309,4.3033,4.283,4.2523,4.2185,4.2555,4.2837,4.2859,4.3885,4.4504,4.4485,4.377,4.2863,4.1849,4.095,3.9914,3.886,3.8969,3.886,3.8567,3.778,3.6904,3.5917,3.5109,3.4182,3.3326,3.3157,3.3072,3.296,3.2275,3.1324,3.0086,2.8299,2.693,2.5803,2.4607,2.4026,2.3882,2.3731,2.3557,2.3239,2.2455,2.2128,2.191,2.081,2.0207,1.9606,1.8371,1.7943,1.7668,1.7124,1.657,1.5768,1.4599,1.335,1.2207,1.1375,1.0496,0.9813,0.9552,0.9398,0.9345,0.9345,0.9432,0.9209,0.8527,0.8454,0.8061,0.7022,0.6948,0.6502,0.5524,0.5397,0.5673,0.6195,0.544,0.5029,0.525,0.4485,0.4135,0.4429,0.4327,0.4327,0.4429,0.4336,0.4438,0.4937,0.524,0.5839,0.6631,0.5513,0.5114,3.9402,4.0703,4.1582,4.1486,4.065,3.9723,3.9238,3.7888,3.6505,3.5606,3.498,3.4708,3.5184,3.518,3.5863,3.8196,3.8498,3.926,4.1623,4.2304,4.2677,4.2913,4.2632,4.2284,4.2056,4.2938,4.3311,4.2877,4.416,4.4869,4.4648,4.4152,4.3449,4.2471,4.1732,4.0538,3.8821,3.9483,3.9435,3.8732,3.8179,3.7263,3.6012,3.5252,3.4246,3.3157,3.3058,3.2862,0.0,3.1929,3.073,2.907,2.7519,2.6263,2.5238,2.4283,2.4074,2.4214,2.4161,2.4102,2.3801,2.2704,2.2007,2.1291,2.0034,1.954,1.9149,1.8298,1.8176,1.8233,1.7663,1.6899,1.5894,1.4708,1.3072,1.1631,1.1065,1.012,0.9392,0.9392,0.9178,0.8932,0.873,0.8649,0.8349,0.7411,0.7247,0.6929,0.5931,0.5849,0.5502,0.4512,0.4422,0.4661,0.4996,0.4603,0.4415,0.4638,0.4144,0.3836,0.4133,0.4028,0.4026,0.4131,0.4241,0.4547,0.4945,0.5536,0.6226,0.6915,0.5499,0.4904,0.0,3.9204,4.0475,4.0211,3.9519,3.8635,3.7658,3.6672,0.0,3.4943,3.473,3.4642,3.4525,3.5362,3.6316,3.7004,3.7991,3.9411,4.1492,4.1801,4.227,4.3582,4.3123,4.2487,4.199,4.2812,4.3192,4.2568,4.4002,4.4889,4.4831,4.4682,4.4215,4.3453,4.2743,4.1218,3.8958,4.0034,3.9902,3.8626,3.8639,3.7623,3.5731,3.5619,3.46,3.2918,3.2918,3.2528,3.1848,3.1723,3.0029,2.7421,2.6843,2.5668,2.4343,2.4149,2.4346,2.4664,2.4558,2.4328,2.4046,2.2787,2.123,1.9723,1.9208,1.9033,1.9003,1.8653,1.8658,1.8656,1.7879,1.6865,1.5746,1.4266,1.2675,1.1326,1.0565,0.9727,0.9189,0.9189,0.8812,0.844,0.7775,0.7626,0.722,0.6327,0.6161,0.5739,0.4596,0.4512,0.415,0.3324,0.323,0.323,0.323,0.3332,0.3433,0.3433,0.3534,0.3536,0.3636,0.383,0.3929,0.3636,0.4446,0.4649,0.4446,0.5927,0.6512,0.6307,0.6211,0.5634,3.5123,0.0,3.7868,3.7812,3.7373,3.6908,0.0,3.6196,3.5537,3.4752,3.4561,3.4745,3.5424,3.5776,3.6632,3.8757,3.9859,4.0954,4.2483,4.2783,4.319,4.4108,4.3113,4.2557,4.3171,4.2846,4.2684,4.3009,4.3734,4.4343,4.4814,4.4682,4.4215,4.3453,4.3031,4.1949,4.0062,4.0336,3.9881,3.8566,3.7432,3.6481,3.5648,3.4611,3.3421,3.2333,3.2333,3.1833,3.1006,2.9684,2.869,2.7768,2.6142,2.5324,2.5108,2.4658,2.4892,2.5247,2.5278,2.5322,2.5304,2.4339,2.2199,2.0026,2.0413,1.9808,1.8879,1.88,1.8735,1.8719,1.854,1.7201,1.5691,1.4918,1.3312,1.1716,1.1184,1.0301,0.9749,0.9749,0.9079,0.858,0.8351,0.7735,0.7034,0.6142,0.5382,0.4598,0.3698,0.3507,0.3414,0.3229,0.323,0.323,0.323,0.323,0.323,0.323,0.3331,0.3433,0.3636,0.3836,0.4039,0.4244,0.4632,0.4722,0.4722,0.5105,0.5196,0.5196,0.4325,0.3838,3.4872,3.5958,3.6914,3.6813,3.652,3.6306,3.6342,3.5719,3.5064,3.4743,3.4647,3.4797,3.5292,3.5926,3.7024,3.9058,4.0051,4.1232,4.3008,4.4081,4.4597,4.4418,4.3717,4.3174,4.2992,4.2784,4.2603,4.2492,4.3374,4.3948,4.4067,4.4439,4.4384,4.3961,4.3328,4.2178,4.0398,4.0294,3.9649,3.845,3.7177,3.6084,3.5186,3.3957,3.2946,3.2124,3.2124,3.1557,3.0596,2.926,2.8112,2.6943,2.5262,2.4694,2.4755,2.4659,2.4845,2.5212,2.5595,2.5535,2.5131,2.3957,2.2191,2.0446,2.0386,1.969,1.8846,1.8772,1.8827,1.8827,1.8827,1.7311,1.5697,1.5406,1.3596,1.1883,1.1585,1.0943,1.0341,1.0341,0.9911,0.919,0.7982,0.7409,0.647,0.4865,0.4237,0.3788,0.3226,0.343,0.3531,0.3531,0.3531,0.3328,0.2923,0.3027,0.323,0.323,0.323,0.3328,0.3723,0.3934,0.4144,0.4353,0.4135,0.423,0.4636,0.4628,0.4422,0.4019,0.3432,0.2933,3.5789,3.6656,3.7115,3.6503,3.6348,3.6307,3.6174,3.5323,3.4649,3.487,3.4888,3.4943,3.5283,3.6368,3.775,3.9336,4.0209,4.136,4.3287,4.4875,4.5503,4.451,4.4272,4.3737,4.2633,4.2792,4.2607,4.1839,4.2929,4.3454,4.2997,4.3765,4.4176,4.4176,4.3155,4.1888,4.0382,3.9957,3.9188,3.8146,3.7112,3.5904,3.4441,3.3663,3.2835,3.1999,3.2082,0.0,3.0283,2.9333,2.7759,2.5829,2.4519,2.4003,2.4029,2.4456,2.4642,2.49,2.5661,2.5384,2.4596,2.3295,2.2159,2.1039,2.0318,1.9505,1.894,1.8996,1.892,1.8735,1.8635,1.7217,1.5798,1.5609,1.3794,1.2078,1.2078,1.1505,1.0967,1.0777,1.0618,0.9686,0.735,0.681,0.5984,0.3806,0.3325,0.323,0.323,0.3632,0.4033,0.4033,0.4033,0.3729,0.2819,0.2723,0.2927,0.3332,0.3232,0.3426,0.3914,0.3932,0.4046,0.4356,0.3543,0.3441,0.4152,0.4051,0.3644,0.2933,0.2933,0.2427,3.7375,3.8331,3.8349,3.6254,3.6147,3.6358,3.5614,3.5181,3.4963,3.5053,3.5053,3.5628,3.7448,3.8265,3.9565,4.2271,4.3163,4.3448,4.3266,4.3342,4.367,4.4309,4.3631,4.3356,4.4014,4.3195,4.2554,4.2294,4.2323,4.2278,4.2114,4.2265,4.2316,4.2316,4.1355,4.058,4.015,3.9428,3.8558,3.752,3.5928,3.4652,3.3774,3.3424,3.2555,3.1386,3.2038,3.1469,2.9923,2.8235,2.6872,2.5691,2.4276,2.3733,2.3842,2.4738,2.5146,2.5223,2.571,2.5852,2.563,2.5432,2.3829,2.1997,2.2164,2.0829,1.9346,1.9662,1.9288,1.8635,1.777,1.664,1.5609,1.4765,1.3624,1.2667,1.2667,1.2086,1.1347,1.0396,0.9768,0.8901,0.7621,0.6379,0.5479,0.5107,0.3992,0.323,0.323,0.3632,0.4033,0.4033,0.4135,0.4336,0.4431,0.2014,0.1513,0.3947,0.3537,0.3433,0.3841,0.3844,0.3947,0.4051,0.3237,0.2933,0.3035,0.2326,0.1921,0.1819,0.1819,0.1718,3.6578,3.7372,3.7803,3.7128,3.8031,3.9013,3.872,3.8099,3.7659,3.7885,3.7831,3.8023,3.8937,3.9838,4.0998,4.2817,4.4102,4.4624,4.3961,4.4381,4.469,4.4418,4.4071,4.3798,4.3706,4.3079,4.2481,4.2,4.2044,4.1898,4.1466,4.1707,4.1925,4.1925,4.0912,4.0365,4.0293,3.8873,3.7904,3.7367,3.5712,3.4593,3.3908,3.3374,3.2715,3.2005,0.0,3.1708,3.0227,2.8492,2.7086,2.5825,2.4332,2.3897,2.4224,2.4923,2.5338,2.56,2.5819,2.5895,2.5728,2.4765,2.3745,2.2755,2.1985,2.1042,2.015,2.0413,1.9777,1.8763,1.7902,1.66,1.5317,1.4543,1.3534,1.2764,1.2764,1.2083,1.1322,1.0743,0.9996,0.8979,0.753,0.6801,0.6051,0.5165,0.421,0.3732,0.4033,0.4033,0.4234,0.4834,0.4537,0.4234,0.3924,0.2621,0.202,0.2832,0.2522,0.2421,0.2629,0.3483,0.3794,0.3543,0.2663,0.2151,0.2123,0.1819,0.1617,0.1617,0.1617,0.1617,3.6103,3.667,3.7398,3.842,3.9572,4.0577,4.1112,4.0403,3.9768,4.0176,4.0139,4.0115,4.0336,4.1655,4.2809,4.322,4.4532,4.5182,4.4307,4.498,4.5231,4.4273,4.42,4.3944,4.3196,4.2975,4.2559,4.1835,4.189,4.1598,4.0899,4.1141,4.1297,4.1297,4.0562,4.0117,4.0062,3.8415,3.7443,3.7184,3.5815,3.4777,3.3965,3.3417,3.3001,3.2698,3.2676,3.193,3.0681,2.8933,2.752,2.6224,2.4635,2.4281,2.4694,2.5043,2.548,2.5895,2.5895,2.5812,2.5464,2.3973,2.3367,2.3018,2.1695,2.1087,2.0925,2.1006,2.0099,1.8816,1.8049,1.6829,1.5511,1.4339,1.3534,1.2958,1.2861,1.1965,1.117,1.0877,0.9998,0.8715,0.7223,0.6924,0.6429,0.5135,0.4533,0.4334,0.4636,0.4435,0.4535,0.5035,0.4843,0.4338,0.3323,0.3636,0.3135,0.1314,0.121,0.121,0.1212,0.2365,0.2883,0.263,0.1956,0.1647,0.1617,0.1617,0.1617,0.1617,0.1617,0.1617,3.7576,3.7977,3.8325,3.9912,3.9258,3.8627,4.0145,3.9787,3.935,4.006,4.0195,4.0597,4.1873,4.4155,4.5556,4.4546,4.503,4.5054,4.3747,4.3324,4.3214,4.3359,4.3269,4.3196,4.3178,4.3305,4.3032,4.2306,4.1725,4.1139,4.0417,3.9813,3.9475,3.9475,3.9441,3.9284,3.9106,3.7985,3.7131,3.6631,3.5767,3.4625,3.3278,3.3811,3.355,3.2713,3.2513,3.1935,3.102,2.9086,2.7651,2.6625,2.5481,2.5092,2.512,2.5164,2.548,2.5895,2.5895,2.5464,2.4946,2.4775,2.3714,2.2482,2.2306,2.1891,2.1392,2.1392,2.0188,1.871,1.7672,1.7274,1.6518,1.41,1.3539,1.3346,1.2861,1.1965,1.0877,0.9899,0.8814,0.7723,0.6634,0.6034,0.5634,0.5534,0.5135,0.4636,0.4336,0.4941,0.4841,0.3533,0.5058,0.5471,0.3337,0.5063,0.4452,0.0404,0.0101,0.0101,0.0101,0.0202,0.0506,0.101,0.1417,0.162,0.1617,0.1617,0.1617,0.1617,0.1617,0.1617,3.6189,3.6851,3.7603,3.9326,4.0023,4.0556,4.1533,4.1913,4.2277,4.3177,4.3369,4.3502,4.3888,4.4554,4.4881,4.4455,4.4458,4.4351,4.3809,4.3373,4.3196,4.3442,4.3304,4.3251,4.3426,4.3463,4.3232,4.2732,4.2062,4.134,4.0573,3.9919,3.9468,3.9325,3.9272,3.9077,3.859,3.8141,3.737,3.615,3.54,3.4655,3.3917,3.4163,3.3794,3.2891,3.2664,3.182,3.0332,2.89,2.7948,2.7427,2.6702,2.6253,2.6013,2.6341,2.6218,2.5895,2.6218,2.5527,2.4594,2.3973,2.3183,2.2306,2.1695,2.1544,2.1472,2.0916,2.0253,1.952,1.808,1.6865,1.5671,1.4351,1.3727,1.3443,1.3249,1.1668,1.0096,0.9706,0.8219,0.6833,0.6437,0.6237,0.6139,0.605,0.5543,0.5244,0.5557,0.4135,0.3124,0.3226,0.5159,0.4962,0.1515,0.4354,0.4558,0.0303,-0.0,-0.0,-0.0,-0.0,0.0102,0.0303,0.0511,0.0818,0.1111,0.1111,0.1111,0.1111,0.1111,0.1313,3.6169,3.6853,3.7824,3.9227,4.0438,4.1526,4.2404,4.3281,4.4166,4.5006,4.5241,4.5263,4.5144,4.4909,4.47,4.46,4.4363,4.4186,4.4076,4.3707,4.3511,4.3697,4.3461,4.3375,4.3649,4.3548,4.3375,4.3105,4.2364,4.1603,4.0932,4.0186,3.9661,3.9325,3.9272,3.8969,3.8294,3.8197,3.7429,3.6024,3.535,3.4854,3.4414,3.4414,3.3908,3.2988,3.2618,3.1489,2.9884,2.8882,2.8216,2.7881,2.736,2.7021,2.6764,2.7092,2.6775,2.6302,2.6279,2.5589,2.4413,2.3454,2.2765,2.2148,2.1445,2.1463,2.1454,2.0529,2.0068,1.9513,1.8118,1.6857,1.5665,1.4734,1.4304,1.3829,1.3141,1.137,0.9698,0.9209,0.7627,0.6437,0.6437,0.6442,0.6448,0.6361,0.5448,0.5146,0.6276,0.4446,0.2927,0.2218,0.3534,0.3234,0.0202,0.2731,0.3136,0.0202,-0.1117,-0.1219,-0.0,-0.0,-0.0,-0.0,-0.0,0.0205,0.0505,-0.0609,-0.1117,-0.1111,-0.0606,-0.0101,3.8097,3.8535,3.9369,4.002,4.0323,4.0839,4.2269,4.3445,4.4327,4.4801,4.5113,4.5322,4.54,4.5568,4.5586,4.5243,4.5017,4.4792,4.4465,4.4125,4.3931,4.3986,4.3716,4.3566,4.3771,4.36,4.3497,4.3497,4.2639,4.1902,4.1455,4.0525,3.9782,3.9325,3.9272,3.8969,3.8294,3.8042,3.7385,3.6384,3.5706,3.5023,3.4414,3.4414,3.3908,3.2988,3.216,3.1119,2.9909,2.9094,2.8419,2.7881,2.736,2.7185,2.7185,2.7185,2.7185,2.7103,2.6185,2.5432,2.4573,2.3474,2.2618,2.2008,2.1741,2.1741,2.1463,2.0529,1.9521,1.8511,1.7505,1.7232,1.6857,1.5458,1.5083,1.4496,1.2441,1.1161,0.9878,0.8315,0.7129,0.6437,0.6437,0.635,0.6364,0.6364,0.4537,0.3935,0.608,0.639,0.4756,0.0404,-0.0,-0.0,-0.0101,-0.0,-0.0,-0.0,-0.3394,-0.3814,-0.0202,-0.0,-0.0,-0.0,-0.0,-0.0,-0.0,-0.3604,-0.5366,-0.5379,-0.3546,-0.2733,3.6219,3.7543,3.9047,3.9294,4.159,4.3751,4.3613,4.3885,4.4365,4.5149,4.5419,4.5513,4.555,4.5586,4.5586,4.5495,4.5283,4.5077,4.4966,4.4409,4.4136,4.4458,4.3923,4.3634,4.3929,4.3682,4.3497,4.3497,4.2976,4.2284,4.1455,4.0792,4.0136,3.9325,3.9272,3.8969,3.8294,3.8042,3.7385,3.6384,3.5991,3.5444,3.4735,3.4481,3.3687,3.2376,3.1942,3.097,2.9561,2.9028,2.8578,2.8283,2.8179,2.7938,2.7626,2.7348,2.6928,2.6434,2.5779,2.4925,2.4059,2.3714,2.295,2.2097,2.2008,2.1365,2.0529,1.9521,1.8519,1.7505,1.648,1.5724,1.5057,1.4682,1.4292,1.3613,1.2247,1.0583,0.9114,0.8623,0.7431,0.6437,0.6437,0.635,0.5854,0.4334,0.4849,0.4551,0.2222,0.1919,0.1414,0.0101,-0.202,-0.3454,-0.381,-0.2676,-0.1862,-0.1884,-0.2949,-0.3565,-0.3816,-0.2603,-0.1886,-0.1886,-0.1886,-0.1886,-0.1886,-0.2983,-0.4123,-0.5365,-0.4845,-0.4571,3.7808,3.9013,4.0139,4.1131,4.3059,4.4685,4.4593,4.4574,4.4767,4.5399,4.555,4.5568,4.5605,4.5622,4.564,4.5603,4.5457,4.5322,4.5222,4.4669,4.4346,4.4549,4.3936,4.3615,4.3897,4.3667,4.3497,4.3497,4.3196,4.2637,4.1715,4.1161,4.0463,3.9592,3.9415,3.8969,3.8294,3.8042,3.7445,3.6569,3.6196,3.5782,3.5314,3.452,3.3381,3.2074,3.1193,3.0317,2.9419,2.9028,2.8882,2.8895,2.8895,2.8657,2.8351,2.8155,2.7499,2.6599,2.6102,2.5253,2.4327,2.381,2.3222,2.2627,2.2539,2.1891,2.0889,1.9513,1.8511,1.7598,1.6204,1.5064,1.4298,1.4298,1.3709,1.2829,1.1658,1.019,0.8913,0.8326,0.7232,0.6439,0.6445,0.6358,0.5962,0.4645,0.4144,0.293,0.0303,-0.1111,-0.1919,-0.1919,-0.3152,-0.4415,-0.5507,-0.4706,-0.4108,-0.4148,-0.4176,-0.4712,-0.5629,-0.4466,-0.3726,-0.3726,-0.3726,-0.3825,-0.3808,-0.3765,-0.4377,-0.5446,-0.5379,-0.5382,4.1111,4.1711,4.2023,4.4239,4.4443,4.4343,4.5208,4.5361,4.536,4.5568,4.5568,4.5513,4.5586,4.564,4.5657,4.5622,4.5586,4.5513,4.5263,4.4839,4.4523,4.4438,4.3918,4.3634,4.3771,4.36,4.3497,4.3497,4.3339,4.2884,4.2085,4.1473,4.0763,3.9952,3.9556,3.9023,3.8407,3.8157,3.7695,3.7011,3.6383,3.61,3.5973,3.4543,3.3213,3.2001,3.0241,2.9419,2.9419,2.9197,2.9275,2.9419,2.9419,2.9275,2.9209,2.9263,2.8621,2.751,2.6812,2.5997,2.5105,2.409,2.3667,2.3493,2.3232,2.2696,2.1793,2.0042,1.9047,1.8141,1.6292,1.4968,1.41,1.41,1.3318,1.2145,1.0685,0.9891,0.9004,0.7431,0.6736,0.6345,0.6258,0.6369,0.6279,0.5876,0.2121,-0.0505,-0.0404,-0.2828,-0.4651,-0.4754,-0.3692,-0.3832,-0.582,-0.6235,-0.63,-0.6303,-0.6511,-0.6463,-0.603,-0.5618,-0.5465,-0.5358,-0.5358,-0.5439,-0.5385,-0.5386,-0.5435,-0.5437,-0.5345,-0.5382,3.8628,4.0559,4.2482,4.3052,4.4107,4.509,4.5342,4.5438,4.5514,4.564,4.5622,4.5586,4.5586,4.5603,4.5622,4.5586,4.5586,4.5586,4.5513,4.5263,4.4966,4.4751,4.4318,4.3986,4.3837,4.36,4.3497,4.3497,4.3463,4.2885,4.1629,4.1411,4.0745,3.9504,3.9432,3.9379,3.9255,3.8936,3.8479,3.787,3.7342,3.6693,3.5973,3.5052,3.3713,3.2015,3.0432,2.9599,2.9419,2.9341,2.9341,2.9419,2.9419,2.9484,2.9471,2.8876,2.8573,2.8347,2.736,2.6472,2.583,2.5411,2.4584,2.3754,2.3667,2.2031,2.0042,1.9588,1.8033,1.6386,1.592,1.4472,1.3022,1.3022,1.2242,1.1175,1.0015,0.9023,0.8028,0.703,0.6645,0.6155,0.5249,0.5869,0.5264,0.1919,-0.2323,-0.4756,-0.3841,-0.3228,-0.3429,-0.4651,-0.5067,-0.5412,-0.6012,-0.643,-0.6635,-0.6506,-0.6618,-0.6458,-0.5904,-0.5775,-0.5654,-0.5437,-0.5435,-0.5431,-0.5418,-0.5443,-0.5429,-0.5383,-0.5347,-0.5382,3.8747,4.067,4.233,4.359,4.4626,4.5359,4.5381,4.5438,4.5531,4.564,4.5622,4.5586,4.5586,4.5586,4.5586,4.5586,4.5586,4.5568,4.5513,4.5222,4.4896,4.465,4.4231,4.3873,4.3686,4.3566,4.3497,4.3497,4.3497,4.2959,4.18,4.1542,4.0932,3.9885,3.9677,3.9642,3.9694,3.9276,3.8772,3.81,3.7637,3.6937,3.5973,3.5023,3.3547,3.1742,3.0895,3.0177,2.9599,2.9599,2.9677,2.9896,2.9896,2.996,3.0024,2.9614,2.89,2.8108,2.7614,2.6565,2.5505,2.5421,2.485,2.4013,2.356,2.2296,2.0666,1.9488,1.8033,1.6756,1.6015,1.428,1.2727,1.2727,1.1565,1.0207,0.9422,0.8535,0.7839,0.7244,0.6753,0.6263,0.5665,0.4347,0.1716,-0.313,-0.4855,-0.5569,-0.5258,-0.4539,-0.4437,-0.5253,-0.5945,-0.644,-0.6604,-0.6926,-0.7127,-0.708,-0.7239,-0.7048,-0.6608,-0.6574,-0.6391,-0.5833,-0.5833,-0.5833,-0.5833,-0.5495,-0.5382,-0.5382,-0.5382,-0.5721,3.8899,4.0677,4.2006,4.4541,4.5256,4.5379,4.54,4.5438,4.5513,4.5586,4.5586,4.5586,4.5586,4.5586,4.5586,4.5586,4.5586,4.5568,4.5438,4.5118,4.4776,4.4447,4.4053,4.3744,4.3479,4.3497,4.3497,4.3497,4.3497,4.3105,4.219,4.1715,4.1161,4.048,4.0054,3.9833,3.9952,3.9487,3.8865,3.8157,3.7519,3.6831,3.6037,3.5124,3.3642,3.192,3.1642,3.1031,3.0152,3.0011,3.0164,3.052,3.0444,3.0444,3.052,3.0685,2.9639,2.8108,2.8279,2.7058,2.5432,2.5432,2.5031,2.4444,2.3627,2.2833,2.1756,1.9662,1.8495,1.7498,1.5913,1.4088,1.263,1.2436,1.0984,0.9426,0.8924,0.8333,0.7842,0.7353,0.6353,0.5251,0.4345,0.111,-0.2726,-0.6684,-0.6173,-0.5358,-0.5758,-0.5954,-0.606,-0.6078,-0.6535,-0.7064,-0.7299,-0.7523,-0.7681,-0.7846,-0.7861,-0.7785,-0.7501,-0.7883,-0.7639,-0.6966,-0.6626,-0.64,-0.64,-0.6172,-0.6058,-0.6058,-0.6175,-0.6852,3.5684,3.8594,4.2003,4.4497,4.517,4.5275,4.5379,4.5419,4.5438,4.5568,4.5586,4.5586,4.5586,4.5586,4.5586,4.5586,4.5586,4.5586,4.5568,4.5419,4.5099,4.4471,4.4346,4.4084,4.3481,4.3481,4.3497,4.3497,4.3497,4.3178,4.2411,4.1985,4.1402,4.0685,4.0385,4.0255,4.0255,3.9679,3.9065,3.8407,3.7222,3.6554,3.6429,3.6289,3.5385,3.3808,3.2522,3.1815,3.1683,3.0885,3.0685,3.0911,3.0698,3.0761,3.0898,3.0911,3.0748,3.0508,3.0368,2.9147,2.7614,2.7464,2.6257,2.4861,2.468,2.2989,2.0935,2.0198,1.8488,1.648,1.4867,1.3607,1.2436,1.1658,1.0498,0.9426,0.8924,0.8333,0.764,0.6342,0.4033,0.0807,-0.384,-0.5974,-0.6377,-0.4736,-0.6044,-0.7059,-0.6862,-0.6753,-0.6687,-0.6586,-0.7041,-0.7462,-0.762,-0.8141,-0.8408,-0.8251,-0.8367,-0.8191,-0.7552,-0.9071,-0.9683,-0.9374,-0.7879,-0.7081,-0.7081,-0.7994,-0.8453,-0.8453,-0.9489,-0.9954,3.7053,3.9846,4.2468,4.4589,4.5148,4.5235,4.538,4.54,4.5438,4.5568,4.5586,4.5586,4.5586,4.5586,4.5586,4.5586,4.5586,4.5568,4.5495,4.54,4.5094,4.4363,4.428,4.4042,4.3446,4.3463,4.3497,4.3497,4.3497,4.3178,4.2451,4.2026,4.1534,4.092,4.058,4.0436,4.0502,4.0204,3.9489,3.839,3.7103,3.6492,3.6492,3.6492,3.5578,3.393,3.3213,3.2393,3.1381,3.0898,3.0849,3.0986,3.0773,3.0849,3.0986,3.0986,3.0672,3.019,2.9626,2.8414,2.7128,2.6494,2.56,2.4519,2.3454,2.2101,2.0576,1.9039,1.7584,1.6204,1.4675,1.3488,1.2399,1.1068,1.0126,0.9359,0.8247,0.764,0.6734,0.4531,0.2219,-0.0505,-0.4353,-0.6695,-0.7604,-0.6458,-0.6762,-0.7163,-0.7144,-0.7045,-0.7071,-0.7131,-0.7722,-0.812,-0.8206,-0.8508,-0.8904,-0.9534,-0.9633,-0.9788,-1.0172,-1.1029,-1.1427,-1.1293,-1.0177,-0.9554,-0.9665,-0.9783,-0.9831,-0.9817,-1.0381,-1.095,3.7597,3.9621,4.1022,4.3719,4.4456,4.4679,4.5226,4.5381,4.5438,4.5568,4.5586,4.5586,4.5586,4.5586,4.5586,4.5586,4.5586,4.5568,4.5457,4.5281,4.4934,4.428,4.4154,4.3873,4.3411,4.3428,4.3497,4.3497,4.3497,4.3267,4.2718,4.2306,4.1853,4.1393,4.099,4.0758,4.0745,4.0468,3.9542,3.8067,3.7163,3.6662,3.6492,3.6492,3.5642,3.4119,3.3901,3.3101,3.1823,3.1198,3.0999,3.1149,3.0836,3.0836,3.0986,3.0986,3.0583,2.9871,2.8978,2.7855,2.6719,2.5841,2.4935,2.3907,2.2394,2.1302,2.0124,1.8041,1.6842,1.5812,1.4286,1.2995,1.1808,1.0284,0.9644,0.8977,0.7459,0.6542,0.5329,0.2517,0.0504,-0.1716,-0.4446,-0.6581,-0.8002,-0.7882,-0.7572,-0.726,-0.7431,-0.7441,-0.7453,-0.7656,-0.8143,-0.8647,-0.9133,-0.9145,-0.9739,-1.0892,-1.0976,-1.1364,-1.2228,-1.2641,-1.2881,-1.2879,-1.2644,-1.2297,-1.1713,-1.1599,-1.1494,-1.1514,-1.1741,-1.2318,3.4767,3.5364,3.6043,4.118,4.253,4.3123,4.4894,4.5361,4.5438,4.5568,4.5586,4.5586,4.5586,4.5586,4.5586,4.5586,4.5586,4.5586,4.5586,4.5159,4.4682,4.4336,4.3955,4.3597,4.3232,4.3393,4.3497,4.3497,4.3497,4.3479,4.3444,4.3069,4.2634,4.2157,4.1692,4.1283,4.0871,4.017,3.9032,3.7476,3.7488,3.7147,3.6492,3.6492,3.6085,3.5255,3.4566,3.4245,3.3959,3.2286,3.1535,3.1535,3.1149,3.0986,3.0986,3.0986,3.0986,3.0748,2.9691,2.873,2.7844,2.6801,2.5041,2.3347,2.2785,2.1185,1.9306,1.828,1.6598,1.4727,1.3204,1.1653,1.019,0.9118,0.8748,0.8165,0.6345,0.5041,0.3328,0.0703,-0.1609,-0.3927,-0.6853,-0.7669,-0.7869,-0.765,-0.7846,-0.7942,-0.7939,-0.7942,-0.8041,-0.8247,-0.8364,-0.9035,-1.0343,-1.0536,-1.1121,-1.2174,-1.2328,-1.2375,-1.2375,-1.3448,-1.4152,-1.4136,-1.5091,-1.4624,-1.2331,-1.3362,-1.3923,-1.3907,-1.495,-1.5515,3.3189,3.4266,3.5509,3.8639,4.0384,4.1695,4.3054,4.4414,4.5572,4.6224,4.6395,4.6586,4.7105,4.6317,4.5586,4.5586,4.5586,4.5586,4.5586,4.5159,4.4682,4.4336,4.3924,4.3563,4.3232,4.3375,4.3497,4.3497,4.3497,4.3497,4.3497,4.3105,4.2806,4.2634,4.2198,4.1692,4.1157,4.0268,3.9473,3.8832,3.8541,3.7978,3.7207,3.7326,3.6906,3.607,3.5335,3.4447,3.3492,3.2431,3.1817,3.1609,3.1421,3.1198,3.0986,3.0986,3.0911,3.0596,2.9057,2.8176,2.7464,2.5997,2.4607,2.3411,2.1983,2.0578,1.9004,1.672,1.5311,1.4082,1.1848,1.0774,0.9998,0.8574,0.6456,0.4029,0.2015,0.2218,0.2016,-0.0503,-0.2718,-0.4636,-0.6034,-0.7253,-0.7965,-0.7846,-0.7942,-0.8038,-0.8038,-0.8038,-0.835,-0.9383,-0.99,-1.0741,-1.2215,-1.2346,-1.2817,-1.3975,-1.3746,-1.3907,-1.4601,-1.5068,-1.5299,-1.5299,-1.5654,-1.5423,-1.4601,-1.4955,-1.52,-1.5156,-1.5287,-1.5483,3.1474,3.2643,3.432,3.7007,3.8313,3.9583,4.2241,4.3615,4.4681,4.5893,4.6184,4.6416,4.7031,4.6187,4.5515,4.5953,4.5778,4.5586,4.5586,4.5033,4.4561,4.4336,4.3849,4.3444,4.3196,4.3358,4.3463,4.3497,4.3497,4.3497,4.3497,4.3268,4.3032,4.2882,4.2458,4.1931,4.1366,4.075,4.0218,3.9749,3.9439,3.8875,3.8044,3.7863,3.7488,3.6876,3.5849,3.4846,3.3837,3.2832,3.2228,3.195,3.1643,3.1272,3.0986,3.0986,3.0672,3.0037,2.8493,2.7602,2.6719,2.5094,2.3796,2.2515,2.0899,1.9505,1.8079,1.5906,1.437,1.3113,1.1356,1.0186,0.8817,0.6667,0.4243,0.1613,-0.1513,-0.0403,0.0504,-0.191,-0.3522,-0.5035,-0.6637,-0.7653,-0.8364,-0.8556,-0.8553,-0.8656,-0.8866,-0.9072,-0.9797,-1.126,-1.175,-1.262,-1.3964,-1.4152,-1.4629,-1.5767,-1.5535,-1.5654,-1.6474,-1.6248,-1.6123,-1.601,-1.5885,-1.5773,-1.5773,-1.5689,-1.5648,-1.5472,-1.5467,-1.5557,0.0,0.0,0.0,3.6232,3.6241,3.6689,4.2337,4.2854,4.2621,4.4397,4.4825,4.4976,4.5292,4.5125,4.5335,4.6628,4.6145,4.5586,4.5568,4.4839,4.4261,4.428,4.359,4.3141,4.3214,4.3305,4.3411,4.3479,4.3497,4.3497,4.3497,4.3497,4.3339,4.292,4.2458,4.199,4.1534,4.1666,4.1139,4.0053,4.0085,3.9733,3.897,3.8213,3.7806,3.769,3.6134,3.54,3.527,3.3616,3.2818,3.2632,3.1703,3.1198,3.0986,3.0986,3.033,2.9201,2.8152,2.7012,2.587,2.4327,2.2495,2.0731,1.9785,1.8118,1.6466,1.5825,1.3872,1.1925,1.1823,0.96,0.655,0.3226,0.232,0.1008,-0.3731,-0.2522,-0.1311,-0.3616,-0.4117,-0.5322,-0.8973,-0.9176,-0.9069,-0.9585,-0.9689,-0.99,-1.073,-1.1274,-1.2233,-1.3629,-1.3871,-1.449,-1.5634,-1.5842,-1.6415,-1.7529,-1.7549,-1.7543,-1.7543,-1.6951,-1.6574,-1.6305,-1.5761,-1.5547,-1.5779,-1.5554,-1.53,-1.5048,-1.5548,-1.6058,2.9272,0.0,0.0,0.0,0.0,0.0,3.6665,3.9055,4.1202,4.2977,4.4224,4.52,4.6017,4.5714,4.5421,4.5636,4.5347,4.5074,4.503,4.4344,4.385,4.3806,4.3389,4.3141,4.3214,4.3305,4.3411,4.3479,4.3497,4.3497,4.3497,4.3497,4.3444,4.3339,4.292,4.2458,4.199,4.1778,4.1418,4.0776,4.096,4.03,3.8929,3.8734,3.7987,3.6815,3.6399,3.6085,3.5688,3.4041,3.3101,3.2632,3.2023,3.1434,3.0986,3.0849,3.0126,2.9045,2.7997,2.6748,2.5416,2.4241,2.2582,2.0953,1.9838,1.8427,1.6497,1.3721,1.2431,1.1444,0.9312,0.6229,0.3528,0.2622,0.0908,-0.111,-0.3528,-0.3226,-0.3324,-0.6345,-0.6851,-0.7556,-0.9494,-0.99,-1.0108,-1.0423,-1.0839,-1.1128,-1.1358,-1.24,-1.3621,-1.4968,-1.5487,-1.6273,-1.7492,-1.7707,-1.7859,-1.8192,-1.737,-1.7003,-1.7003,-1.6422,-1.6093,-1.6052,-1.5891,-1.5677,-1.5552,-1.5638,-1.58,-1.6156,-1.7186,-1.7659,2.9562,3.0039,3.079,3.119,0.0,0.0,3.5711,3.7686,3.9619,4.2353,4.3661,4.4503,4.5164,4.4917,4.4569,4.4532,4.436,4.428,4.4406,4.4061,4.3698,4.3483,4.3267,4.3086,4.3087,4.3196,4.3269,4.3322,4.3322,4.3358,4.3375,4.3375,4.341,4.3497,4.3268,4.2864,4.2297,4.2092,4.1683,4.1093,4.1215,4.0611,3.9351,3.902,3.8213,3.6982,3.6243,3.5816,3.5479,3.3851,3.303,3.2832,3.179,3.0973,3.0343,3.0037,2.89,2.7498,2.6805,2.5445,2.3791,2.2882,2.1401,1.967,1.8073,1.675,1.5172,1.2323,1.0728,0.906,0.5819,0.3524,0.1816,0.0908,-0.1109,-0.3123,-0.4028,-0.502,-0.6213,-0.8028,-0.8333,-0.9042,-1.1396,-1.1377,-1.1373,-1.2246,-1.235,-1.2616,-1.3518,-1.4595,-1.5725,-1.701,-1.7479,-1.7956,-1.8672,-1.8547,-1.8428,-1.8428,-1.7596,-1.7058,-1.7082,-1.65,-1.6216,-1.6062,-1.644,-1.6869,-1.734,-1.6293,-1.6392,-1.7355,-1.8083,-1.8445,3.014,3.0655,3.1524,3.2106,3.1411,0.0,3.6666,3.7196,3.7624,4.1232,4.2249,4.2573,4.2772,4.2766,4.2789,4.2934,4.2968,4.3201,4.3732,4.3769,4.3638,4.3263,4.3124,4.3012,4.29,4.3012,4.3104,4.3104,4.3104,4.3123,4.3214,4.3214,4.3268,4.3479,4.3463,4.3087,4.2378,4.2338,4.1899,4.1093,4.1093,4.0662,3.9952,3.9069,3.8358,3.7632,3.5852,3.5044,3.4912,3.3227,3.2747,3.2861,3.1172,3.0024,2.9201,2.873,2.7082,2.5178,2.5125,2.3497,2.1435,2.0775,1.9301,1.7331,1.5376,1.4016,1.2824,1.109,0.8532,0.5596,0.241,0.141,0.0706,-0.1413,-0.3323,-0.4822,-0.5122,-0.7201,-0.9076,-0.9166,-0.9162,-1.028,-1.3693,-1.3094,-1.2764,-1.457,-1.4207,-1.4336,-1.6348,-1.7127,-1.7956,-1.9153,-1.9272,-1.9264,-1.9264,-1.8672,-1.8372,-1.837,-1.8004,-1.7701,-1.7728,-1.7348,-1.6918,-1.6693,-1.7304,-1.8434,-1.9925,-1.7612,-1.7298,-1.8905,-1.8935,-1.9031,3.0556,3.1115,3.1707,3.1009,3.1113,0.0,3.1462,3.2634,3.3916,3.4583,3.6291,3.7667,3.7791,3.8487,3.899,3.8938,4.0183,4.1631,4.3063,4.3142,4.2938,4.2768,4.2804,4.286,4.29,4.3012,4.3104,4.3104,4.2994,4.3013,4.3196,4.3214,4.3268,4.3479,4.3196,4.275,4.2239,4.1864,4.1418,4.0935,4.0935,4.05,3.9662,3.9016,3.8189,3.7175,3.574,3.4846,3.4298,3.2607,3.1901,3.1815,3.0177,2.9008,2.8183,2.7221,2.5521,2.3675,2.349,2.2016,1.9966,1.8354,1.6929,1.5484,1.3649,1.2416,1.1021,0.8368,0.5499,0.2918,0.1511,0.0101,-0.1513,-0.3623,-0.4121,-0.4716,-0.691,-0.7806,-0.889,-1.0858,-1.1444,-1.2252,-1.4219,-1.4005,-1.4064,-1.5505,-1.613,-1.6633,-1.7107,-1.8192,-1.9027,-1.9272,-1.9034,-1.8909,-1.8909,-1.8317,-1.8048,-1.7969,-1.8357,-1.8593,-1.8586,-1.9036,-1.9146,-1.8799,-1.8656,-1.8777,-1.9352,-1.9693,-2.0542,-2.1812,-2.1896,-2.1742,3.0921,3.1086,3.1257,3.0521,3.0514,0.0,0.0,3.186,3.2631,3.4094,3.4766,3.5171,3.5595,3.6078,3.6579,3.6985,3.8652,4.0098,4.0628,4.1933,4.2765,4.249,4.2667,4.2783,4.2747,4.286,4.2899,4.286,4.2688,4.2709,4.29,4.3013,4.316,4.3339,4.3268,4.2808,4.1997,4.1828,4.1338,4.0485,4.0583,4.0154,3.9401,3.869,3.7847,3.6874,3.4853,3.3794,3.331,3.1436,3.0227,2.9309,2.8558,2.7478,2.6251,2.5406,2.3745,2.1951,2.1673,1.9787,1.7172,1.6007,1.4546,1.2867,1.1239,0.9367,0.7319,0.5001,0.2911,0.121,0.0504,-0.1108,-0.2922,-0.4325,-0.542,-0.6512,-0.7611,-0.9095,-1.0672,-1.2328,-1.3019,-1.382,-1.5199,-1.5267,-1.5675,-1.7075,-1.7367,-1.7479,-1.7956,-1.8665,-1.9027,-1.879,-1.8665,-1.8533,-1.8585,-1.854,-1.8551,-1.8506,-1.9036,-1.9272,-1.909,-1.945,-1.9821,-2.0138,-1.9967,-2.0243,-2.1054,-2.1638,-2.1901,-2.2016,-2.2019,-2.1845,3.1304,3.1173,3.1183,3.0497,3.0253,3.0523,0.0,0.0,0.0,3.4007,3.3739,3.3276,3.3894,3.4014,3.4283,3.5065,3.6754,3.7761,3.7343,3.9661,4.1453,4.1474,4.2221,4.2595,4.2257,4.221,4.2325,4.2591,4.2083,4.2007,4.2591,4.2747,4.2938,4.3196,4.3124,4.2696,4.181,4.1682,4.1076,4.007,4.0138,3.9799,3.9082,3.8302,3.7408,3.6338,3.3873,3.2593,3.2092,3.0025,2.8251,2.6829,2.6862,2.5831,2.4211,2.3256,2.1752,1.994,1.9239,1.7103,1.438,1.3492,1.1716,0.9739,0.8268,0.5844,0.332,0.1908,0.0503,-0.0704,-0.1106,-0.2712,-0.432,-0.5024,-0.6918,-0.8411,-0.8308,-1.048,-1.2662,-1.3454,-1.4229,-1.5109,-1.6406,-1.6553,-1.7002,-1.8619,-1.8199,-1.8074,-1.8679,-1.8927,-1.8899,-1.8673,-1.8658,-1.8703,-1.8973,-1.9325,-1.9453,-1.9399,-1.9989,-2.0087,-1.9719,-1.985,-2.0351,-2.1194,-2.1069,-2.1624,-2.2669,-2.2659,-2.2281,-2.1493,-2.1458,-2.1312,3.1758,3.2126,3.2476,3.0872,3.1124,3.1157,2.8878,0.0,2.9274,2.8693,0.0,3.0629,3.0731,0.0,0.0,3.1198,3.24,3.3326,3.3561,3.5027,3.6701,3.8385,4.0922,4.206,4.0967,4.0334,4.0788,4.2462,4.0869,4.061,4.2498,4.2609,4.2786,4.3214,4.2244,4.1725,4.181,4.0689,4.0121,4.007,3.9884,3.9418,3.8745,3.7978,3.6628,3.4771,3.3309,3.2033,3.0869,2.8409,2.6771,2.5853,2.5886,2.4682,2.2669,2.0685,1.9133,1.7758,1.5585,1.4046,1.2608,1.0233,0.7949,0.5932,0.4626,0.2717,0.0806,0.0101,-0.2109,-0.4221,-0.432,-0.5216,-0.641,-0.7908,-0.8506,-0.9103,-1.0498,-1.1765,-1.2889,-1.3779,-1.5127,-1.637,-1.7455,-1.7378,-1.7557,-1.8615,-1.939,-1.9517,-1.8909,-1.9193,-1.9684,-2.0136,-1.9914,-2.0198,-2.1515,-2.1027,-2.0434,-2.0083,-2.0835,-2.1106,-2.0793,-2.1573,-2.2041,-2.211,-2.1759,-2.1642,-2.1857,-2.1642,-2.1841,-2.237,-2.217,-2.1953,3.1577,3.1835,3.2111,3.0891,3.0863,3.0747,2.9058,2.8359,2.8007,2.781,0.0,0.0,0.0,0.0,0.0,0.0,3.0526,3.1127,3.0959,3.2581,3.4599,3.6676,3.7865,3.8925,4.0033,4.031,4.0951,4.2098,4.0823,4.0515,4.1735,4.1881,4.2032,4.2221,4.181,4.134,4.0915,4.0414,3.9783,3.9065,3.8887,3.8525,3.793,3.6521,3.5347,3.4322,3.1942,3.0209,2.8999,2.7117,2.4934,2.2648,2.2708,2.1831,2.0451,1.883,1.705,1.5305,1.4117,1.2112,0.9461,0.6523,0.5031,0.392,0.1204,-0.0301,-0.1304,-0.3108,-0.4612,-0.5817,-0.6116,-0.6913,-0.7809,-0.881,-0.9989,-1.1063,-1.2042,-1.3413,-1.471,-1.5978,-1.6835,-1.7771,-1.8821,-1.8537,-1.8506,-1.9457,-1.9643,-1.9925,-2.0625,-2.0411,-2.0687,-2.1857,-2.1561,-2.1518,-2.1996,-2.2258,-2.2224,-2.1626,-2.2065,-2.2276,-2.2155,-2.2235,-2.2434,-2.256,-2.2434,-2.2218,-2.2091,-2.1983,-2.24,-2.3242,-2.2048,-2.1598,3.1723,3.1819,3.1932,3.0849,3.0441,3.0054,2.8938,2.8171,2.7657,2.7716,2.717,0.0,0.0,0.0,2.7257,2.8128,0.0,2.8931,2.8347,2.9699,3.1639,3.4092,3.4643,3.5814,3.8187,3.8787,3.9462,4.0613,3.9838,3.9756,4.0908,4.1076,4.1196,4.1251,4.1098,4.0758,4.0217,3.98,3.9126,3.8076,3.7799,3.7286,3.646,3.4857,3.3723,3.2863,3.0131,2.8309,2.714,2.5166,2.2843,2.0381,1.91,1.808,1.7311,1.6458,1.4899,1.304,1.2143,0.9591,0.6302,0.3513,0.2511,0.1705,-0.1304,-0.2503,-0.3399,-0.5708,-0.6711,-0.7205,-0.7707,-0.87,-0.96,-1.0092,-1.1551,-1.3119,-1.3665,-1.5086,-1.6621,-1.7867,-1.8469,-1.9169,-2.0459,-1.9779,-1.9428,-2.0467,-2.048,-2.0751,-2.1666,-2.1778,-2.2004,-2.2686,-2.279,-2.2811,-2.282,-2.3502,-2.3645,-2.2981,-2.2906,-2.2914,-2.2914,-2.2625,-2.253,-2.2665,-2.2967,-2.2907,-2.2672,-2.2888,-2.3347,-2.4018,-2.2396,-2.1913,3.2734,3.2677,3.2453,3.0803,3.0006,2.919,2.737,2.7913,2.8465,2.7524,2.8747,2.9778,2.9253,2.8521,2.7624,2.6628,2.6385,0.0,0.0,2.5505,2.6671,2.9626,3.1792,3.3479,3.4731,3.43,3.4988,3.7577,3.7103,3.7786,4.0197,4.0331,4.0443,4.0612,3.9985,3.9766,3.9884,3.8531,3.7774,3.7536,3.675,3.551,3.3879,3.3277,3.1672,2.9412,2.796,2.6792,2.5587,2.2098,2.0588,2.0052,1.5483,1.359,1.3244,1.325,1.2485,1.1208,0.8623,0.6011,0.3417,0.181,0.0201,-0.1299,-0.2401,-0.3899,-0.5395,-0.6804,-0.7905,-0.8806,-0.9406,-1.089,-1.2365,-1.2538,-1.3578,-1.4694,-1.5369,-1.6684,-1.8038,-1.8851,-1.9536,-2.0443,-2.2249,-2.1062,-2.0279,-2.1653,-2.224,-2.2312,-2.1502,-2.3065,-2.3664,-2.2153,-2.322,-2.4272,-2.4987,-2.4812,-2.442,-2.372,-2.3086,-2.2796,-2.2796,-2.2563,-2.238,-2.2389,-2.3347,-2.3642,-2.3505,-2.4005,-2.4476,-2.4733,-2.3535,-2.3477,3.2504,3.2455,3.2245,3.109,3.0295,2.9465,2.8068,2.7876,2.7764,2.7009,2.7768,2.8641,2.8579,2.7932,2.7399,2.706,2.5938,2.4989,0.0,2.4145,2.4072,2.4626,2.8591,3.1437,3.1762,3.3291,3.4901,3.6511,3.6694,3.7551,3.9475,3.9577,3.937,3.9007,3.8696,3.8237,3.7514,3.6961,3.6012,3.4727,3.4185,3.3154,3.1685,2.9997,2.8758,2.7885,2.5665,2.3762,2.2094,1.9808,1.7522,1.5363,1.2767,1.0697,0.9304,1.022,0.9834,0.8535,0.5515,0.2908,0.0602,-0.1303,-0.2602,-0.3698,-0.5899,-0.7,-0.7799,-0.9004,-0.9801,-1.0592,-1.1282,-1.2252,-1.3301,-1.3866,-1.5325,-1.684,-1.744,-1.8712,-1.9894,-2.0498,-2.1379,-2.2176,-2.2786,-2.2875,-2.307,-2.3782,-2.335,-2.3403,-2.4448,-2.4277,-2.4293,-2.5045,-2.5219,-2.5363,-2.5394,-2.4937,-2.4327,-2.3831,-2.3461,-2.3553,-2.4125,-2.3329,-2.3454,-2.4656,-2.4405,-2.4337,-2.4623,-2.4796,-2.5282,-2.5895,-2.5768,-2.5273,3.2586,3.2571,0.0,3.1186,3.06,2.9962,2.8651,2.8402,2.8197,2.7407,2.7769,2.8371,2.8601,2.7855,2.7073,2.6491,2.5117,2.3848,0.0,2.2642,2.2304,2.1848,2.5385,2.8104,2.8795,3.0166,3.2083,3.4611,3.4839,3.5765,3.7809,3.7987,3.7799,3.7377,3.7259,3.675,3.5715,3.522,3.4191,3.2555,3.1915,3.0808,2.9235,2.7519,2.6222,2.5258,2.2988,2.0887,1.892,1.6908,1.4595,1.2119,1.0206,0.8231,0.66,0.745,0.6842,0.5018,0.2122,-0.0,-0.1709,-0.3838,-0.5135,-0.6307,-0.8007,-0.9008,-0.9702,-1.031,-1.1096,-1.178,-1.236,-1.3403,-1.4536,-1.5285,-1.6862,-1.8479,-1.8989,-2.0268,-2.1518,-2.1796,-2.2826,-2.3627,-2.3756,-2.4365,-2.4953,-2.5071,-2.4469,-2.4421,-2.5482,-2.5178,-2.4984,-2.5491,-2.5704,-2.5637,-2.5263,-2.5028,-2.4657,-2.4084,-2.3968,-2.4227,-2.48,-2.3957,-2.4265,-2.5889,-2.5636,-2.5673,-2.6062,-2.6366,-2.6767,-2.7265,-2.7498,-2.7001]},{"header":{"parameterUnit":"m.s-1","parameterCategory":1,"la1":30.6,"la2":29.2853,"lo1":-89.7004,"lo2":-87.6739,"dy":0.0162,"dx":0.0183,"nx":112,"ny":82,"refTime":"2024-03-12T12:00:00:Z","depth":0,"parameterNumber":3,"parameterNumberName":"V-component_of_WINDS"},"data":[0.0,0.0,0.0,0.0,0.0,0.0,0.0,0.0,0.0,0.0,0.0,0.0,0.0,0.0,0.0,0.0,0.0,0.0,0.0,0.0,0.0,0.0,0.0,0.0,0.0,0.0,0.0,0.0,0.0,0.0,0.0,0.0,0.0,0.0,0.0,0.0,0.0,0.0,0.0,0.0,0.0,0.0,0.0,0.0,0.0,0.0,0.0,0.0,0.0,0.0,0.0,0.0,0.0,0.0,0.0,0.0,0.0,0.0,0.0,0.0,0.0,0.0,0.0,0.0,0.0,0.0,0.0,0.0,0.0,0.0,0.0,0.0,0.0,0.0,0.0,0.0,0.0,0.0,0.0,0.0,0.0,0.0,0.0,0.0,0.0,0.0,0.0,0.0,0.0,0.0,-2.0367,-2.2091,-2.2552,-2.2763,-2.2824,-2.286,-2.1965,-1.9648,0.0,0.0,0.0,0.0,0.0,0.0,0.0,0.0,0.0,0.0,0.0,0.0,0.0,0.0,0.0,0.0,0.0,0.0,0.0,0.0,0.0,0.0,0.0,0.0,0.0,0.0,0.0,0.0,0.0,0.0,0.0,0.0,0.0,0.0,0.0,0.0,0.0,0.0,0.0,0.0,0.0,0.0,0.0,0.0,0.0,0.0,0.0,0.0,0.0,0.0,0.0,0.0,0.0,0.0,0.0,0.0,0.0,0.0,0.0,0.0,0.0,0.0,0.0,0.0,0.0,0.0,0.0,0.0,0.0,0.0,0.0,0.0,0.0,0.0,0.0,0.0,0.0,0.0,0.0,0.0,0.0,0.0,0.0,0.0,0.0,0.0,0.0,0.0,0.0,0.0,0.0,0.0,0.0,0.0,0.0,0.0,0.0,0.0,0.0,0.0,0.0,0.0,0.0,0.0,-2.0898,-2.2324,-2.3405,-2.387,-2.3397,-2.3188,-2.2126,-1.9793,0.0,0.0,0.0,0.0,0.0,0.0,0.0,0.0,0.0,0.0,0.0,0.0,0.0,0.0,0.0,0.0,0.0,0.0,0.0,0.0,0.0,0.0,0.0,0.0,0.0,0.0,0.0,0.0,0.0,0.0,0.0,0.0,0.0,0.0,0.0,0.0,0.0,0.0,0.0,0.0,0.0,0.0,0.0,0.0,0.0,0.0,0.0,0.0,0.0,0.0,0.0,0.0,0.0,0.0,0.0,0.0,0.0,0.0,0.0,0.0,0.0,0.0,0.0,0.0,0.0,0.0,0.0,0.0,0.0,0.0,0.0,0.0,0.0,0.0,0.0,0.0,0.0,0.0,0.0,0.0,0.0,0.0,0.0,0.0,0.0,0.0,0.0,0.0,0.0,0.0,0.0,0.0,0.0,0.0,0.0,0.0,0.0,0.0,0.0,0.0,0.0,0.0,0.0,-2.0398,-2.1497,-2.3568,-2.3981,-2.408,-2.3878,-2.3501,-2.2362,-2.0065,-1.967,0.0,0.0,0.0,0.0,0.0,0.0,0.0,0.0,0.0,0.0,0.0,0.0,0.0,0.0,0.0,0.0,0.0,0.0,0.0,0.0,0.0,0.0,0.0,0.0,0.0,0.0,0.0,0.0,0.0,0.0,0.0,0.0,0.0,0.0,0.0,0.0,0.0,0.0,0.0,0.0,0.0,0.0,0.0,0.0,0.0,0.0,0.0,0.0,0.0,0.0,0.0,0.0,0.0,0.0,0.0,0.0,0.0,0.0,0.0,0.0,0.0,0.0,0.0,0.0,0.0,0.0,0.0,0.0,0.0,0.0,0.0,0.0,0.0,0.0,0.0,0.0,0.0,0.0,0.0,0.0,0.0,0.0,0.0,0.0,0.0,0.0,0.0,0.0,0.0,0.0,0.0,0.0,0.0,0.0,0.0,0.0,0.0,0.0,0.0,0.0,0.0,0.0,-2.1419,-2.2769,-2.5273,-2.5143,-2.4593,-2.4002,-2.3664,-2.2819,-2.1154,-1.9883,0.0,0.0,0.0,0.0,0.0,0.0,0.0,0.0,0.0,0.0,0.0,0.0,0.0,0.0,0.0,0.0,0.0,0.0,0.0,0.0,0.0,0.0,0.0,0.0,0.0,0.0,0.0,0.0,0.0,0.0,0.0,0.0,0.0,0.0,0.0,0.0,0.0,0.0,0.0,0.0,0.0,0.0,0.0,0.0,0.0,0.0,0.0,0.0,0.0,0.0,0.0,0.0,0.0,0.0,0.0,0.0,0.0,0.0,0.0,0.0,0.0,0.0,0.0,0.0,0.0,0.0,0.0,0.0,0.0,0.0,0.0,0.0,0.0,0.0,0.0,0.0,0.0,0.0,0.0,0.0,0.0,0.0,0.0,0.0,0.0,0.0,0.0,0.0,0.0,0.0,0.0,0.0,0.0,0.0,0.0,0.0,0.0,0.0,0.0,0.0,0.0,0.0,-2.1562,-2.5342,-2.721,-2.738,-2.6233,-2.3429,-2.3454,-2.3662,-2.3808,-2.1527,0.0,0.0,0.0,0.0,0.0,0.0,0.0,0.0,0.0,0.0,0.0,0.0,0.0,0.0,0.0,0.0,0.0,0.0,0.0,0.0,0.0,0.0,0.0,0.0,0.0,0.0,0.0,0.0,0.0,0.0,0.0,0.0,0.0,0.0,0.0,0.0,0.0,0.0,0.0,0.0,0.0,0.0,0.0,0.0,0.0,0.0,0.0,0.0,0.0,0.0,0.0,0.0,0.0,0.0,0.0,0.0,0.0,0.0,0.0,0.0,0.0,0.0,0.0,0.0,0.0,0.0,0.0,0.0,0.0,0.0,0.0,0.0,0.0,0.0,0.0,0.0,0.0,0.0,0.0,0.0,0.0,0.0,0.0,0.0,0.0,0.0,0.0,0.0,0.0,0.0,0.0,0.0,0.0,0.0,0.0,0.0,0.0,0.0,0.0,0.0,0.0,0.0,-2.2241,-2.4295,-2.7284,-2.7609,-2.7152,-2.6019,-2.602,-2.5508,-2.4167,0.0,0.0,0.0,0.0,0.0,0.0,0.0,0.0,0.0,0.0,0.0,0.0,0.0,0.0,0.0,0.0,0.0,0.0,0.0,0.0,0.0,0.0,0.0,0.0,0.0,0.0,0.0,0.0,0.0,0.0,0.0,0.0,0.0,0.0,0.0,0.0,0.0,0.0,0.0,0.0,0.0,0.0,0.0,0.0,0.0,0.0,0.0,0.0,0.0,0.0,0.0,0.0,0.0,0.0,0.0,0.0,0.0,0.0,0.0,0.0,0.0,0.0,0.0,0.0,0.0,0.0,0.0,0.0,0.0,0.0,0.0,0.0,0.0,0.0,0.0,0.0,0.0,0.0,0.0,0.0,0.0,0.0,0.0,0.0,0.0,0.0,0.0,0.0,0.0,0.0,0.0,0.0,0.0,0.0,0.0,0.0,0.0,0.0,0.0,0.0,0.0,0.0,-2.397,-2.4176,-2.4782,-2.7345,-2.7609,-2.7602,-2.761,-2.7618,-2.6938,-2.5332,0.0,0.0,0.0,0.0,0.0,0.0,0.0,0.0,0.0,0.0,0.0,0.0,0.0,0.0,0.0,0.0,0.0,0.0,0.0,0.0,0.0,0.0,0.0,0.0,0.0,0.0,0.0,0.0,0.0,0.0,0.0,0.0,0.0,0.0,0.0,0.0,0.0,0.0,0.0,0.0,0.0,0.0,0.0,0.0,0.0,0.0,0.0,0.0,0.0,0.0,0.0,0.0,0.0,0.0,0.0,0.0,0.0,0.0,0.0,0.0,0.0,0.0,0.0,0.0,0.0,0.0,0.0,0.0,0.0,0.0,0.0,0.0,0.0,0.0,0.0,0.0,0.0,0.0,0.0,0.0,0.0,0.0,0.0,0.0,0.0,0.0,0.0,0.0,0.0,0.0,0.0,0.0,0.0,0.0,0.0,0.0,0.0,0.0,0.0,0.0,0.0,0.0,-2.6725,-2.7593,-2.7625,-2.7625,-2.7625,-2.7625,-2.7625,-2.7617,-2.7585,0.0,0.0,0.0,0.0,0.0,0.0,0.0,0.0,0.0,0.0,0.0,0.0,0.0,0.0,0.0,0.0,0.0,0.0,0.0,0.0,0.0,0.0,0.0,0.0,0.0,0.0,0.0,0.0,0.0,0.0,0.0,0.0,0.0,0.0,0.0,0.0,0.0,0.0,0.0,0.0,0.0,0.0,0.0,0.0,0.0,0.0,0.0,0.0,0.0,0.0,0.0,0.0,0.0,0.0,0.0,0.0,0.0,0.0,0.0,0.0,0.0,0.0,0.0,0.0,0.0,0.0,0.0,0.0,0.0,0.0,0.0,0.0,0.0,0.0,0.0,0.0,0.0,0.0,0.0,0.0,0.0,0.0,0.0,0.0,0.0,0.0,0.0,0.0,0.0,0.0,0.0,0.0,0.0,0.0,0.0,0.0,0.0,0.0,0.0,0.0,0.0,0.0,0.0,-2.6725,-2.7593,-2.7625,-2.7625,-2.7625,-2.7625,-2.7625,-2.7614,-2.761,-2.7585,0.0,0.0,0.0,0.0,0.0,0.0,0.0,0.0,0.0,0.0,0.0,0.0,0.0,0.0,0.0,0.0,0.0,0.0,0.0,0.0,0.0,0.0,0.0,0.0,0.0,0.0,0.0,0.0,0.0,0.0,0.0,0.0,0.0,0.0,0.0,0.0,0.0,0.0,0.0,0.0,0.0,0.0,0.0,0.0,0.0,0.0,0.0,0.0,0.0,0.0,0.0,0.0,0.0,0.0,0.0,0.0,0.0,0.0,0.0,0.0,0.0,0.0,0.0,0.0,0.0,0.0,0.0,0.0,0.0,0.0,0.0,0.0,0.0,0.0,0.0,0.0,0.0,0.0,0.0,0.0,0.0,0.0,0.0,0.0,0.0,0.0,0.0,0.0,0.0,0.0,0.0,0.0,0.0,0.0,0.0,0.0,0.0,0.0,0.0,0.0,0.0,0.0,-2.3409,-2.617,-2.7625,-2.7625,-2.7625,-2.7625,-2.7625,-2.7625,-2.7595,-2.7604,0.0,0.0,0.0,0.0,0.0,0.0,0.0,0.0,0.0,0.0,0.0,0.0,0.0,0.0,0.0,0.0,0.0,0.0,0.0,0.0,0.0,0.0,0.0,0.0,0.0,0.0,0.0,0.0,0.0,0.0,0.0,0.0,0.0,0.0,0.0,0.0,0.0,0.0,0.0,0.0,0.0,0.0,0.0,0.0,0.0,0.0,0.0,0.0,0.0,0.0,0.0,0.0,0.0,0.0,0.0,0.0,0.0,0.0,0.0,0.0,0.0,0.0,0.0,0.0,0.0,0.0,0.0,0.0,0.0,0.0,0.0,0.0,0.0,0.0,0.0,0.0,0.0,0.0,0.0,0.0,0.0,0.0,0.0,0.0,0.0,0.0,0.0,0.0,0.0,0.0,0.0,0.0,0.0,0.0,0.0,0.0,0.0,0.0,0.0,0.0,0.0,0.0,-1.9131,-2.4366,-2.7625,-2.7625,-2.7625,-2.7625,-2.7625,-2.7625,-2.7599,-2.7596,0.0,0.0,0.0,0.0,0.0,0.0,0.0,0.0,0.0,0.0,0.0,0.0,0.0,0.0,0.0,0.0,0.0,0.0,0.0,0.0,0.0,0.0,0.0,0.0,0.0,0.0,0.0,0.0,0.0,0.0,0.0,0.0,0.0,0.0,0.0,0.0,0.0,0.0,0.0,0.0,0.0,0.0,0.0,0.0,0.0,0.0,0.0,0.0,0.0,0.0,0.0,0.0,0.0,0.0,0.0,0.0,0.0,0.0,0.0,0.0,-1.654,-1.4696,0.0,0.0,0.0,0.0,0.0,0.0,0.0,0.0,0.0,0.0,0.0,0.0,0.0,0.0,0.0,0.0,0.0,0.0,0.0,0.0,0.0,0.0,0.0,0.0,0.0,0.0,0.0,0.0,0.0,0.0,0.0,0.0,0.0,0.0,0.0,0.0,0.0,0.0,0.0,0.0,-2.4647,-2.684,-2.7625,-2.7625,-2.7625,-2.7625,-2.7625,-2.7625,-2.7618,-2.7581,-2.6638,0.0,0.0,0.0,0.0,0.0,0.0,0.0,0.0,0.0,0.0,0.0,0.0,0.0,0.0,0.0,0.0,0.0,0.0,0.0,0.0,0.0,0.0,0.0,0.0,0.0,0.0,0.0,0.0,0.0,0.0,0.0,0.0,0.0,0.0,0.0,0.0,0.0,0.0,0.0,0.0,0.0,0.0,0.0,0.0,0.0,0.0,0.0,0.0,0.0,0.0,0.0,0.0,0.0,0.0,0.0,0.0,0.0,0.0,0.0,-1.839,-1.7499,0.0,0.0,0.0,0.0,0.0,0.0,0.0,0.0,0.0,0.0,0.0,0.0,0.0,0.0,0.0,0.0,0.0,0.0,0.0,0.0,0.0,0.0,0.0,0.0,0.0,0.0,0.0,0.0,0.0,0.0,0.0,0.0,0.0,0.0,0.0,0.0,0.0,0.0,0.0,0.0,-2.6714,-2.759,-2.7625,-2.7625,-2.7585,-2.7605,-2.76,-2.7605,-2.7588,-2.759,-2.758,0.0,0.0,0.0,0.0,0.0,0.0,0.0,0.0,0.0,0.0,0.0,0.0,0.0,0.0,0.0,0.0,0.0,0.0,0.0,0.0,0.0,0.0,0.0,0.0,0.0,0.0,0.0,0.0,0.0,0.0,0.0,0.0,0.0,0.0,0.0,0.0,0.0,0.0,0.0,0.0,0.0,0.0,0.0,0.0,0.0,0.0,0.0,0.0,0.0,0.0,0.0,0.0,0.0,-1.5576,-1.6105,-1.6152,-1.7939,-1.8981,-1.9495,-2.0005,-2.0142,-1.9985,-1.8488,0.0,0.0,0.0,0.0,0.0,0.0,0.0,0.0,0.0,0.0,0.0,0.0,0.0,0.0,0.0,0.0,0.0,0.0,0.0,0.0,0.0,0.0,-2.1785,-2.2603,-2.3257,-2.3167,-2.1292,0.0,0.0,0.0,0.0,0.0,0.0,0.0,0.0,0.0,0.0,0.0,-2.7124,-2.7579,-2.761,-2.7615,-2.7595,-2.7993,-2.8916,-2.8919,-2.8529,-2.7652,-2.8404,-3.0701,0.0,0.0,0.0,0.0,0.0,0.0,0.0,0.0,0.0,0.0,0.0,0.0,0.0,0.0,0.0,0.0,0.0,0.0,0.0,0.0,0.0,0.0,0.0,0.0,0.0,0.0,0.0,0.0,0.0,0.0,0.0,0.0,-1.0335,-1.0363,0.0,0.0,0.0,0.0,0.0,0.0,0.0,0.0,0.0,0.0,0.0,0.0,0.0,-1.4403,-1.4489,-1.5609,-1.5926,-1.5562,-1.7995,-1.9414,-1.9935,-2.1441,-2.2687,-2.3598,-2.3716,0.0,-2.0304,-2.1215,0.0,0.0,0.0,0.0,0.0,0.0,0.0,0.0,0.0,0.0,0.0,0.0,0.0,0.0,0.0,0.0,0.0,0.0,0.0,0.0,0.0,0.0,-2.4749,-2.4845,-2.4953,-2.4927,-2.464,-2.2663,-2.0616,-1.9695,-1.7345,-1.549,0.0,0.0,0.0,0.0,0.0,0.0,-2.6967,-2.7614,-2.76,-2.7584,-2.7614,-2.9487,-3.417,-3.417,-3.2126,-2.7887,-3.1582,-3.422,-3.4884,-3.3727,0.0,0.0,0.0,0.0,0.0,0.0,0.0,0.0,0.0,0.0,0.0,0.0,0.0,0.0,0.0,0.0,0.0,0.0,0.0,0.0,0.0,0.0,0.0,0.0,0.0,0.0,0.0,0.0,0.0,-1.0497,-1.1459,-1.1986,-1.0528,-0.9575,0.0,0.0,0.0,0.0,0.0,0.0,0.0,0.0,0.0,-1.5354,-1.5675,-1.603,-1.6511,-1.7217,-1.7605,-1.7744,-1.9063,-1.993,-2.0605,-2.192,-2.2804,-2.3303,-2.4039,-2.3718,-2.2579,-2.2313,-2.1282,-1.9879,0.0,0.0,0.0,0.0,-1.8468,-1.8623,-2.0018,-2.05,-2.0532,-2.0116,0.0,0.0,0.0,0.0,0.0,0.0,0.0,-2.0792,-2.1136,-2.2546,-2.4208,-2.5073,-2.5284,-2.5286,-2.532,-2.4391,-2.3471,-2.3124,-2.1373,-2.0901,-2.4087,-2.1736,0.0,0.0,0.0,-2.6258,-2.7433,-2.7622,-2.7614,-2.761,-3.0288,-3.2935,-3.5051,-3.5035,-3.4005,-3.1855,-3.3689,-3.4918,-3.4901,-3.4898,-3.3609,0.0,0.0,0.0,0.0,0.0,0.0,0.0,0.0,0.0,0.0,0.0,0.0,0.0,0.0,0.0,0.0,0.0,0.0,0.0,0.0,0.0,0.0,0.0,0.0,0.0,0.0,0.0,0.0,-1.1621,-1.2446,-1.3105,-1.152,-1.0444,0.0,0.0,0.0,0.0,0.0,0.0,-1.4741,-1.5129,-1.5765,-1.6635,-1.6892,-1.7318,-1.7951,-1.8458,-1.8887,-1.9341,-1.9748,-2.0282,-2.0936,-2.1852,-2.2389,-2.2727,-2.3677,-2.4137,-2.4105,-2.309,-2.2527,-2.2118,-2.0909,-2.0275,-1.9985,-2.0432,-2.0654,-2.0964,-2.2548,-2.3236,-2.3201,-2.28,-2.2218,-2.1563,-2.0421,0.0,0.0,0.0,0.0,-2.1495,-2.2154,-2.2898,-2.389,-2.546,-2.5591,-2.5277,-2.5314,-2.5281,-2.5323,-2.5329,-2.5249,-2.6594,-3.0763,-2.6533,0.0,-2.4366,-2.7685,-2.9496,-2.8015,-2.8886,-2.9606,-2.9499,-3.3046,-3.5276,-3.4934,-3.4916,-3.4897,-3.4905,-3.4913,-3.5131,-3.571,-3.5749,-3.6466,-3.8026,0.0,0.0,0.0,0.0,0.0,0.0,0.0,0.0,0.0,0.0,0.0,0.0,0.0,0.0,0.0,0.0,0.0,0.0,0.0,0.0,0.0,0.0,0.0,0.0,0.0,0.0,0.0,0.0,0.0,-1.2762,-1.1852,0.0,0.0,0.0,0.0,-1.4535,-1.4456,-1.4793,-1.6068,-1.655,-1.715,-1.7891,-1.79,-1.7997,-1.804,-1.9055,-1.9552,-1.9279,-2.0329,-2.1282,-2.1985,-2.2105,-2.2606,-2.3553,-2.3638,-2.3649,-2.3664,-2.4073,-2.3567,-2.2489,-2.2424,-2.1557,-2.0533,-2.1811,-2.2077,-2.2157,-2.4837,-2.5585,-2.5427,-2.5392,-2.3906,-2.2184,-2.2445,-2.1259,0.0,0.0,-2.3551,-2.3385,-2.5823,-2.5865,-2.5581,-2.7043,-2.6319,-2.5306,-2.5327,-2.5275,-2.5321,-2.527,-2.8436,-3.1155,-3.145,0.0,-2.5216,-3.0266,-2.9582,-2.848,-2.8389,-3.2368,-3.5046,-3.4551,-3.475,-3.493,-3.4878,-3.4897,-3.4888,-3.4891,-3.4901,-3.5822,-3.7941,-3.8015,-3.7933,-3.7631,-3.708,0.0,0.0,0.0,0.0,0.0,0.0,0.0,0.0,0.0,0.0,0.0,0.0,0.0,0.0,0.0,0.0,0.0,0.0,0.0,0.0,0.0,0.0,0.0,0.0,0.0,0.0,0.0,0.0,-1.5606,-1.3911,0.0,-1.2527,-1.3453,-1.4345,-1.5034,-1.6052,-1.6893,-1.7304,-1.751,-1.7726,-1.7951,-1.804,-1.8574,-1.976,-1.9836,-2.0502,-2.1778,-2.2061,-2.2691,-2.3455,-2.329,-2.3434,-2.3824,-2.3677,-2.3593,-2.3626,-2.3835,-2.3694,-2.3446,-2.3519,-2.3268,-2.2913,-2.3417,-2.3512,-2.3621,-2.548,-2.6081,-2.6069,-2.6611,-2.6193,-2.5425,-2.556,-2.5037,-2.4576,-2.5633,-2.5917,-2.5838,-2.5861,-2.5548,-2.5432,-2.595,-2.5671,-2.6052,-2.8693,-2.9261,-2.9272,-2.9283,-3.0485,-3.1483,-3.1509,-2.9956,-2.9307,-3.1211,-2.9709,-2.9506,-3.2622,-3.4559,-3.5512,-3.5371,-3.5081,-3.4875,-3.4908,-3.4889,-3.4914,-3.4884,-3.626,-3.7365,-3.8167,-3.7969,-3.7738,-3.7612,-3.8437,-3.8876,0.0,0.0,0.0,0.0,0.0,0.0,0.0,0.0,0.0,0.0,0.0,0.0,0.0,0.0,0.0,0.0,0.0,0.0,0.0,0.0,0.0,0.0,0.0,0.0,0.0,-1.1831,-1.3586,-1.7309,-1.5952,-1.4671,-1.472,-1.5957,-1.6617,-1.6174,-1.7266,-1.804,-1.804,-1.804,-1.804,-1.804,-1.8035,-1.8825,-2.0453,-2.0692,-2.1575,-2.2974,-2.3232,-2.3627,-2.4147,-2.3903,-2.3824,-2.3824,-2.3677,-2.3593,-2.3604,-2.3666,-2.3751,-2.3897,-2.397,-2.4292,-2.4795,-2.4795,-2.5119,-2.5744,-2.6927,-2.7214,-2.7193,-2.788,-2.7712,-2.7178,-2.7258,-2.7155,-2.7052,-2.7249,-2.7736,-2.7973,-2.7026,-2.6021,-2.5536,-2.6504,-2.6749,-2.7602,-3.0816,-3.1483,-3.1528,-3.1499,-3.1495,-3.1509,-3.1518,-3.1485,-3.1511,-3.1503,-3.033,-3.0939,-3.5069,-3.5613,-3.5626,-3.5621,-3.5307,-3.5155,-3.5148,-3.4989,-3.5215,-3.5973,-3.7386,-3.8202,-3.8204,-3.7952,-3.7739,-3.7613,-3.8979,-3.8053,-3.4737,0.0,0.0,0.0,0.0,0.0,0.0,0.0,0.0,0.0,0.0,0.0,0.0,0.0,0.0,0.0,0.0,0.0,0.0,0.0,0.0,0.0,0.0,0.0,-1.6934,-1.6716,-1.6927,-1.7725,-1.758,-1.7028,-1.6078,-1.7183,-1.7971,-1.7985,-1.804,-1.804,-1.804,-1.804,-1.804,-1.7959,-1.7968,-1.8707,-2.0222,-2.1842,-2.272,-2.2819,-2.3613,-2.4017,-2.3995,-2.3743,-2.3593,-2.3593,-2.3593,-2.3593,-2.3604,-2.3824,-2.3897,-2.3897,-2.3677,-2.4538,-2.5924,-2.5924,-2.6907,-2.8337,-2.9227,-2.9262,-2.8986,-2.9161,-2.8332,-2.7311,-2.7537,-2.759,-2.7624,-2.8109,-2.8926,-2.96,-2.961,-2.752,-2.6125,-2.8944,-2.961,-2.9964,-3.1217,-3.15,-3.147,-3.1485,-3.1498,-3.1504,-3.1521,-3.153,-3.162,-3.1612,-3.146,0.0,-3.5241,-3.558,-3.5611,-3.5605,-3.5596,-3.5643,-3.5676,-3.5273,-3.5797,-3.7735,-3.8071,-3.8187,-3.8168,-3.8204,-3.7972,-3.7363,-3.9041,-3.5238,-2.5693,0.0,0.0,0.0,0.0,0.0,0.0,0.0,0.0,0.0,0.0,0.0,0.0,0.0,0.0,0.0,0.0,0.0,0.0,0.0,0.0,0.0,-1.5728,-1.7466,-1.8109,-1.7304,-1.694,-1.7677,-1.7957,-1.8017,-1.7677,-1.7842,-1.7954,-1.7985,-1.804,-1.804,-1.804,-1.804,-1.7985,-1.8036,-1.7994,-1.9594,-2.3075,-2.2576,-2.2961,-2.4214,-2.4134,-2.4186,-2.4175,-2.3892,-2.3824,-2.3824,-2.3677,-2.3593,-2.3666,-2.4227,-2.4504,-2.4443,-2.3959,-2.4769,-2.6081,-2.5924,-2.7257,-2.9118,-2.9101,-2.9416,-2.9838,-2.9917,-2.9504,-2.8931,-2.9008,-2.9002,-2.9073,-2.9205,-2.938,-2.9624,-2.96,-2.9004,-2.8629,-2.9383,-3.0294,-3.1083,-3.1423,-3.1131,-3.0866,-3.0842,-3.0866,-3.0994,-3.1425,-3.2889,-3.3958,-3.3942,-3.0958,-3.035,-3.5003,-3.5589,-3.5605,-3.5582,-3.5613,-3.6131,-3.7369,-3.7369,-3.5046,-2.9833,-3.4954,-3.8059,-3.7787,-3.8683,-3.6893,-3.1979,-3.7641,-3.9296,0.0,0.0,0.0,0.0,0.0,0.0,0.0,0.0,0.0,0.0,0.0,0.0,0.0,0.0,0.0,0.0,0.0,0.0,0.0,0.0,0.0,0.0,-1.6337,-1.6983,-1.7806,-1.7237,-1.6967,-1.7707,-1.7932,-1.8171,-1.8321,-1.8078,-1.7952,-1.7976,-1.804,-1.804,-1.804,-1.7963,-1.7997,-1.7989,-2.0184,-2.2273,-2.4208,-2.3372,-2.3512,-2.4522,-2.4434,-2.4345,-2.4345,-2.42,-2.4116,-2.4116,-2.397,-2.4032,-2.4383,-2.4802,-2.5146,-2.5346,0.0,0.0,0.0,0.0,-2.8599,-2.9686,-2.9403,-2.9608,-2.9945,-2.9945,-2.9771,-2.9602,-2.9602,-2.9602,-2.9602,-2.9602,-2.9574,-2.958,-2.9605,-3.0021,-3.0424,-3.0401,-3.0744,-3.1116,-3.1146,-3.088,-3.0597,-3.0629,-3.1566,0.0,-3.2879,-3.4021,-3.491,-3.4899,-3.2497,-3.1887,-3.515,-3.5609,-3.5596,-3.5615,-3.432,-3.387,-3.4909,-3.697,0.0,0.0,0.0,-3.8775,-3.8442,-3.9189,0.0,0.0,0.0,-4.2338,-4.0906,-4.0905,0.0,0.0,-3.903,-4.2457,0.0,0.0,0.0,0.0,0.0,0.0,0.0,0.0,0.0,0.0,0.0,0.0,0.0,0.0,0.0,0.0,-1.6312,-1.673,-1.6676,-1.6711,-1.6947,-1.7715,-1.7687,-1.7788,-1.839,-1.8137,-1.804,-1.804,-1.804,-1.804,-1.8112,-1.8205,0.0,0.0,0.0,-2.5344,-2.4227,-2.4237,-2.4273,-2.4296,-2.4429,-2.4502,-2.4502,-2.4502,-2.4502,-2.4502,-2.4345,-2.4611,-2.5312,-2.5382,-2.5931,-2.662,-2.6245,-2.688,-2.8209,-2.9793,-3.0227,-2.9997,-2.9979,0.0,0.0,-2.9602,-2.9602,-2.9602,-2.9602,-2.9588,-2.9574,-2.9574,-2.9628,-2.9605,-2.9695,-3.0557,-3.1392,-3.1382,-3.1013,-3.0617,-3.0589,-3.0874,-3.1056,-3.106,-3.3129,-3.4901,-3.4903,-3.4888,-3.4906,-3.4921,-3.4897,-3.5038,-3.5452,-3.5514,-3.5625,-3.5864,0.0,0.0,-3.1372,-3.5562,-3.8689,-3.9822,-3.9898,-3.9807,-3.962,-3.9605,-4.1455,-4.5339,-4.5427,-4.3934,-4.0907,-4.0886,-4.0876,-4.0789,-4.0791,-4.2771,0.0,0.0,0.0,0.0,0.0,0.0,0.0,0.0,0.0,0.0,0.0,0.0,0.0,0.0,0.0,-1.5649,-1.6354,-1.673,-1.6676,-1.6704,-1.6972,-1.7699,-1.7687,-1.7788,-1.839,-1.8137,-1.804,-1.804,-1.804,-1.8273,-1.8984,-1.9231,-1.9585,-2.0036,-2.3863,-2.5315,-2.4226,-2.4487,-2.4704,-2.4653,-2.4693,0.0,-2.4718,-2.4718,-2.4646,-2.449,-2.449,-2.4766,-2.5382,-2.5931,-2.696,-2.8158,-2.7926,-2.7623,-2.752,-2.9429,-3.0135,-3.0123,-2.9764,-2.9638,-2.9602,-2.9602,-2.9602,-2.9602,-2.9602,-2.958,0.0,-2.9591,-2.9586,-2.9743,-3.0288,-3.0617,-3.0743,-3.077,-3.0694,-3.0582,-3.0622,-3.2447,-3.4058,-3.4085,-3.45,-3.4901,-3.489,-3.4921,-3.4919,-3.4888,-3.4872,-3.4942,-3.5015,-3.5045,-3.57,-3.7488,-3.7129,-3.6717,-3.6692,-3.763,-3.8681,-3.9844,-3.9886,-3.9797,-3.9621,-3.9597,-4.0318,-4.1866,-4.1885,-4.1567,-4.0898,-4.0895,-4.0873,-4.0789,-4.0809,-4.2786,0.0,0.0,0.0,0.0,0.0,0.0,0.0,0.0,0.0,0.0,0.0,-1.2959,-1.3401,0.0,-1.5796,-1.5792,-1.6301,-1.673,-1.6676,-1.673,-1.6838,-1.7243,-1.7398,-1.7631,-1.8151,-1.7953,-1.787,-1.7951,-1.8434,-1.8825,-1.9301,-1.9847,-2.0187,-2.0508,-2.3069,-2.4521,-2.4732,-2.4169,-2.4296,-2.5083,-2.4942,-2.492,-2.4921,-2.4861,-2.4729,-2.4646,-2.4838,-2.5241,-2.5931,-2.7027,-2.7908,-2.8627,-2.8584,-2.8266,-2.8014,-2.9149,-2.9592,-2.9622,-2.9485,-2.954,-2.9602,-2.9602,-2.9572,-2.9618,-2.9622,-2.9633,-2.9609,-2.961,-3.0031,-3.0639,-3.0974,-3.0844,-3.093,-3.2437,-3.2742,-3.2739,-3.2762,-3.3878,-3.4907,-3.4906,-3.4906,-3.4808,-3.4559,-3.4482,-3.4575,-3.4853,-3.4668,-3.4857,-3.5844,-3.6301,-3.697,-3.8097,-3.8204,-3.8189,-3.8181,-3.8729,-3.9301,-3.9848,-3.9886,-4.0769,-4.2718,-4.2799,-4.2207,-4.0916,-4.0909,-4.0888,-4.084,-4.0884,-4.181,-4.3549,-4.3559,-4.4547,0.0,0.0,0.0,0.0,0.0,0.0,0.0,-0.7482,-0.9226,-1.3704,-1.5227,-1.5827,-1.5777,-1.5791,-1.5798,-1.5828,-1.63,-1.673,-1.6676,-1.673,-1.6743,-1.6729,-1.7054,-1.7384,-1.782,-1.7903,-1.81,-1.8273,-1.9127,-1.9692,-1.9844,-2.0438,-2.0831,-2.0946,-2.2274,-2.3594,-2.4839,-2.3613,-2.3599,-2.483,-2.4989,-2.5039,-2.4981,-2.4921,-2.4826,-2.4791,-2.5298,-2.5832,-2.6531,-2.8012,-2.8678,-2.8835,-2.8949,-2.8958,-2.8917,-2.9176,-2.9261,-2.9226,-2.9345,-2.9512,-2.9651,-2.9628,-2.9576,-2.9577,-2.958,-2.9576,-2.9744,-3.0418,-3.1365,-3.2145,-3.216,-3.1782,-3.2042,-3.4351,-3.4867,-3.4917,-3.487,-3.4889,-3.489,-3.4916,-3.4913,-3.4767,-3.4322,-3.4263,-3.4415,-3.4814,-3.4516,-3.4976,-3.6973,-3.7803,-3.8204,-3.8192,-3.8387,-3.8519,-3.8525,-3.9371,-3.9894,-3.991,-4.0654,-4.2564,-4.5861,-4.6013,-4.4395,-4.0982,-4.0889,-4.0858,-4.08,-4.0873,-4.2762,-4.6294,-4.6309,-4.6303,-0.4973,-0.6496,-0.7969,-0.7753,-0.7322,-0.7359,0.0,-0.859,-0.9437,-1.4615,-1.569,-1.5765,-1.5833,-1.5846,-1.5837,-1.5796,-1.63,-1.673,-1.6676,-1.673,-1.6664,-1.6696,-1.6722,-1.699,-1.7552,-1.8537,-1.9092,-1.9134,-2.0155,-2.0997,-2.1776,-2.1735,-2.1973,-2.2703,-2.2881,-2.3073,-2.3282,-2.311,-2.3094,-2.325,-2.4644,-2.5051,-2.4562,-2.4909,-2.4921,-2.4707,-2.5809,-2.6311,-2.6537,-2.7984,-2.8926,-2.9497,-2.9317,-2.9554,-2.995,-2.9854,-2.9783,-2.9732,-2.9747,-2.9747,-2.9752,-2.9671,-2.9621,-2.9595,-2.9574,-2.9584,-3.0241,-3.3442,-3.4431,-3.4489,-3.4532,-3.4491,-3.4473,-3.4799,-3.4873,-3.4903,-3.4913,-3.4897,-3.4911,-3.4918,-3.4878,-3.4891,-3.4835,-3.4829,-3.4835,-3.4891,-3.4864,-3.5619,-3.7792,-3.8132,-3.8204,-3.8217,-3.9095,-3.9695,-3.9696,-3.9825,-3.9897,-3.991,-4.3308,-4.5517,-4.5984,-4.6002,-4.4397,-4.0963,-4.0834,-4.0807,-4.0787,-4.0865,-4.276,-4.6299,-4.6307,-4.6301,-0.5778,-0.6471,-0.719,-0.7485,-0.7834,-0.8155,-0.8236,-0.9117,-1.0524,-1.3047,-1.4743,-1.5757,-1.5832,-1.5832,-1.5772,-1.5777,-1.6,-1.6255,-1.6646,-1.6721,-1.6727,-1.668,-1.6714,-1.7171,-1.8296,-1.8775,-1.946,-2.0324,-2.1134,-2.1722,-2.2069,-2.2371,-2.2692,-2.3001,-2.3021,-2.3021,-2.3001,-2.2977,-2.2985,-2.3036,-2.3654,-2.4276,-2.4811,-2.5372,-2.5775,-2.6058,-2.6585,-2.7157,-2.7709,-2.8325,-2.8912,-2.9456,-2.9617,-2.9749,-2.9941,-2.9984,-3.015,-3.0301,-3.0594,-3.0392,-2.9997,-3.0352,-3.0063,-2.9595,-2.9606,-3.1037,-3.2971,-3.4493,-3.4905,-3.4906,-3.4889,-3.4923,-3.4873,-3.4905,-3.4901,-3.4894,-3.4888,-3.5115,-3.5321,-3.5296,-3.5313,-3.5205,-3.4925,-3.5976,-3.6823,-3.6823,-3.6837,-3.7161,-3.8097,-3.8201,-3.8444,-3.911,-3.9633,-3.9905,-3.9886,-3.9902,-3.9905,-3.9904,-4.3742,-4.5966,-4.588,-4.5883,-4.4319,-4.0982,-4.082,-4.0804,-4.0804,-4.082,-4.2733,-4.6305,-4.6306,-4.6295,-0.623,-0.643,-0.6587,-0.7129,-0.8044,-0.8761,-0.8109,-0.9543,-1.1114,-1.2032,-1.3998,-1.5662,-1.5648,-1.5743,-1.5826,-1.5787,-1.581,-1.5965,-1.6402,-1.6591,-1.6638,-1.6696,-1.673,-1.7392,-1.9265,-1.9362,-1.9981,-2.1451,-2.2242,-2.2571,-2.2531,-2.2916,-2.3075,-2.3001,-2.3001,-2.3001,-2.3001,-2.3154,-2.3165,-2.3034,-2.3356,-2.3981,-2.4911,-2.6057,-2.6829,-2.7314,-2.7455,-2.7921,-2.8619,-2.8576,-2.8858,-2.9267,-2.9645,-2.984,-2.9931,-3.0133,-3.0372,-3.0565,-3.097,-3.0954,-3.073,-3.0704,-3.0174,-2.9779,-3.0791,-3.2885,-3.4901,-3.4883,-3.4913,-3.4913,-3.4899,-3.4883,-3.4897,-3.4925,-3.5005,-3.5068,-3.5078,-3.5354,-3.5588,-3.5581,-3.6011,-3.6199,-3.5866,-3.7132,-3.8202,-3.8205,-3.8223,-3.8204,-3.8189,-3.8475,-3.9008,-3.9801,-3.9894,-3.9889,-3.9889,-3.9889,-3.9907,-3.9909,-4.3739,-4.5928,-4.5813,-4.5794,-4.4245,-4.0933,-4.0815,-4.08,-4.08,-4.1826,-4.3685,-4.6305,-4.6303,-4.6295,-0.5872,-0.6256,-0.6591,-0.7137,-0.7707,-0.8315,-0.9288,-0.9832,-1.0687,-1.2614,-1.4196,-1.5185,-1.5293,-1.5573,-1.5758,-1.5828,-1.5831,-1.5854,-1.5806,-1.6189,-1.6446,-1.6696,-1.673,-1.773,-2.0282,-2.0513,-2.1081,-2.2292,-2.3419,-2.3928,-2.3575,-2.3372,-2.3224,-2.3001,-2.3001,-2.3001,-2.3001,-2.3547,-2.3513,-2.2977,-2.4235,-2.4779,-2.4746,-2.6884,-2.7838,-2.7873,-2.8376,-2.8571,-2.8612,-2.8619,-2.8789,-2.9164,-2.9457,-2.9907,-3.0283,-3.0514,-3.0485,-3.0324,-3.0324,-3.121,-3.2048,-3.0221,-2.9629,-3.0264,-3.3665,-3.4783,-3.4908,-3.4908,-3.4908,-3.4878,-3.4913,-3.488,-3.4908,-3.4908,-3.5232,-3.5568,-3.5576,-3.5605,-3.5622,-3.56,-3.6972,-3.8122,-3.811,-3.8167,-3.8223,-3.8197,-3.821,-3.8201,-3.8199,-3.9156,-3.9863,-3.9905,-3.9889,-3.9889,-3.9889,-3.9889,-3.9907,-3.9909,-4.3744,-4.5935,-4.5808,-4.5808,-4.4228,-4.0874,-4.0803,-4.0808,-4.0822,-4.4381,-4.6196,-4.63,-4.6307,-4.6295,-0.6153,-0.6709,-0.721,-0.7787,-0.8014,-0.838,-0.9437,-0.9979,-1.066,-1.2169,-1.3578,-1.4567,-1.4657,-1.5038,-1.5399,-1.5402,-1.5665,-1.5797,-1.5819,-1.6147,-1.6357,-1.6523,-1.6625,-1.773,-2.0383,-2.0531,-2.1442,-2.3562,-2.3921,-2.3908,-2.3655,-2.34,-2.3378,-2.3471,-2.333,-2.3296,-2.33,-2.3524,-2.3763,-2.3996,-2.4414,-2.4975,-2.5542,-2.7066,-2.7961,-2.8331,-2.8512,-2.8585,-2.8628,-2.8569,-2.8665,-2.8811,-2.9361,-2.982,-3.0225,-3.0485,-3.0554,-3.0612,-3.1448,-3.1474,-3.1358,-3.2269,-3.2848,-3.3354,-3.4543,-3.5127,-3.5371,-3.5371,-3.5127,-3.4897,-3.4883,-3.488,-3.4988,-3.5295,-3.5501,-3.5616,-3.5589,-3.6509,-3.6997,-3.5832,-3.7002,-3.8196,-3.8203,-3.8184,-3.82,-3.821,-3.8204,-3.8453,-3.9219,-3.967,-3.9891,-3.9908,-3.9889,-3.9889,-3.9889,-3.9906,-3.989,-3.9898,-4.375,-4.5935,-4.5809,-4.5809,-4.4221,-4.0874,-4.081,-4.0803,-4.079,-4.206,-4.3919,-4.63,-4.6305,-4.6306,-0.6591,-0.7076,-0.7452,-0.7945,-0.8094,-0.8481,-0.9921,-1.0482,-1.1072,-1.2662,-1.3515,-1.404,-1.4123,-1.4508,-1.4804,-1.4905,-1.5373,-1.5779,-1.591,-1.5972,-1.608,-1.6199,-1.6415,-1.76,-2.0159,-2.0412,-2.1559,-2.4198,-2.4266,-2.4092,-2.384,-2.3766,-2.3744,-2.3829,-2.384,-2.3791,-2.37,-2.3833,-2.4341,-2.5315,-2.5349,-2.6252,-2.7705,-2.8075,-2.8677,-2.9451,-2.945,-2.9455,-2.9429,-2.9435,-2.9808,-3.0234,-2.9762,-2.9708,-2.9961,-3.0411,-3.1136,-3.1852,-3.1787,-3.181,-3.212,-3.3599,-3.4448,-3.4889,-3.4899,-3.5094,-3.5355,-3.5355,-3.511,-3.4913,-3.5027,-3.4975,-3.5128,-3.5972,-3.6433,-3.6585,-3.6167,-3.7184,-3.7853,-3.6751,-3.7452,-3.8187,-3.821,-3.8186,-3.8201,-3.8201,-3.8203,-3.8617,-3.9751,-3.99,-3.9873,-3.9802,-3.9859,-3.9935,-4.0011,-3.9948,-4.0532,-4.1997,-4.4504,-4.5882,-4.5796,-4.5796,-4.4227,-4.0874,-4.0797,-4.0808,-4.0807,-4.2128,-4.3977,-4.6303,-4.63,-4.63,-0.7069,-0.7318,-0.7397,-0.7868,-0.8038,-0.8528,-1.0681,-1.1272,-1.1853,-1.389,-1.3886,-1.3619,-1.3794,-1.4086,-1.4291,-1.4291,-1.498,-1.5631,-1.5991,-1.5875,-1.5798,-1.589,-1.6159,-1.7303,-1.9773,-2.0187,-2.1541,-2.4199,-2.4437,-2.4328,-2.4153,-2.435,-2.435,-2.4212,-2.4393,-2.4393,-2.4132,-2.442,-2.5233,-2.6651,-2.711,-2.8626,-3.1022,-2.9946,-3.0012,-3.1035,-3.1037,-3.101,-3.1042,-3.1031,-3.1943,-3.3075,-3.0699,-2.9764,-2.9846,-3.0535,-3.2245,-3.3868,-3.1554,-3.225,-3.4104,-3.4121,-3.448,-3.4903,-3.4927,-3.4908,-3.4908,-3.4908,-3.4908,-3.4958,-3.5298,-3.5211,-3.5357,-3.6861,-3.7934,-3.8357,-3.721,-3.763,-3.8211,-3.8186,-3.8223,-3.8205,-3.8223,-3.8227,-3.8237,-3.8237,-3.8257,-3.867,-3.9757,-3.992,-3.9865,-3.9658,-3.9811,-4.002,-4.0288,-4.006,-4.1594,-4.5494,-4.5776,-4.5808,-4.5796,-4.5796,-4.4227,-4.0874,-4.0797,-4.0796,-4.0816,-4.4495,-4.63,-4.6292,-4.6306,-4.63,-0.7269,-0.7561,-0.7845,-0.8021,-0.8038,-0.8528,-1.0681,-1.1585,-1.2334,-1.3767,-1.3661,-1.3368,-1.3371,-1.3871,-1.4291,-1.4291,-1.5074,-1.5778,-1.5819,-1.5941,-1.5952,-1.5739,-1.5792,-1.7024,-1.9747,-2.0032,-2.1287,-2.4217,-2.4451,-2.4439,-2.4598,-2.4695,-2.4826,-2.5171,-2.5099,-2.5016,-2.4933,-2.464,-2.4809,-2.5441,-2.8829,-3.0767,-3.1434,-3.1143,-3.1185,-3.1447,-3.1415,-3.1623,-3.1856,-3.1833,-3.2387,-3.3265,-3.2588,-3.2055,-3.1824,-3.2849,-3.4263,-3.5519,-3.3825,-3.3609,-3.4151,-3.4578,-3.4792,-3.4905,-3.4916,-3.4913,-3.4913,-3.4913,-3.4913,-3.5121,-3.6146,-3.6532,-3.6681,-3.6923,-3.7734,-3.8398,-3.8055,-3.8112,-3.8204,-3.8184,-3.8303,-3.8407,-3.8543,-3.8569,-3.8561,-3.8561,-3.8961,-3.9383,-3.9832,-4.0068,-4.0174,-4.0138,-4.0175,-4.0231,-4.0288,-4.0238,-4.0815,-4.2264,-4.4511,-4.5801,-4.5796,-4.5796,-4.4214,-4.0874,-4.0804,-4.0796,-4.0809,-4.4504,-4.6297,-4.6303,-4.6309,-4.63,-0.7561,-0.7811,-0.8038,-0.8038,-0.8038,-0.8495,-1.0276,-1.1087,-1.1723,-1.303,-1.3012,-1.2796,-1.2791,-1.3579,-1.4153,-1.3944,-1.5006,-1.5785,-1.5752,-1.5792,-1.5739,-1.5436,-1.5539,-1.6645,-1.917,-1.9668,-2.1056,-2.3953,-2.4563,-2.4817,-2.5003,-2.5209,-2.5455,-2.568,-2.568,-2.5498,-2.52,-2.4861,-2.502,-2.5722,-2.8638,-3.0385,-3.0906,-3.1431,-3.1723,-3.1723,-3.1776,-3.2051,-3.2399,-3.2568,-3.2858,-3.3283,-3.3291,-3.3173,-3.3066,-3.3796,-3.4699,-3.5364,-3.4424,-3.4201,-3.4333,-3.4644,-3.4791,-3.4888,-3.4885,-3.4899,-3.4899,-3.4899,-3.5155,-3.5626,-3.6293,-3.7136,-3.7761,-3.7385,-3.7877,-3.8419,-3.8348,-3.831,-3.8236,-3.8244,-3.8274,-3.8376,-3.8583,-3.8878,-3.9098,-3.9091,-3.9369,-3.9698,-4.0079,-4.0281,-4.0368,-4.0311,-4.0291,-4.0291,-4.0291,-4.0315,-4.0524,-4.1081,-4.275,-4.4358,-4.5732,-4.5802,-4.491,-4.304,-4.1538,-4.0804,-4.0813,-4.4493,-4.6301,-4.63,-4.63,-4.63,-0.7967,-0.8038,-0.8038,-0.8038,-0.8038,-0.8448,-0.9818,-1.0233,-1.0743,-1.2037,-1.2152,-1.2088,-1.2147,-1.3083,-1.3792,-1.3535,-1.4694,-1.5691,-1.567,-1.5577,-1.5418,-1.5276,-1.55,-1.6433,-1.8448,-1.9332,-2.0938,-2.3627,-2.4666,-2.5228,-2.5316,-2.5909,-2.6209,-2.6019,-2.6119,-2.5851,-2.5285,-2.5031,-2.5348,-2.6318,-2.7522,-2.8718,-2.9897,-3.1237,-3.1837,-3.1837,-3.2092,-3.2394,-3.2727,-3.309,-3.3251,-3.3282,-3.3279,-3.3448,-3.3713,-3.3974,-3.432,-3.4594,-3.4266,-3.4365,-3.4628,-3.453,-3.4659,-3.4916,-3.4899,-3.4899,-3.4899,-3.4994,-3.5564,-3.6117,-3.6182,-3.737,-3.8419,-3.8007,-3.82,-3.8432,-3.8328,-3.8307,-3.8274,-3.8274,-3.8285,-3.8346,-3.8523,-3.9116,-3.9583,-3.9589,-3.9566,-3.9735,-4.0231,-4.0406,-4.0462,-4.0307,-4.0291,-4.031,-4.031,-4.0303,-4.0532,-4.1081,-4.1492,-4.2942,-4.5686,-4.5802,-4.5789,-4.5789,-4.295,-4.1249,-4.0818,-4.4007,-4.5829,-4.6309,-4.6306,-4.6306,-0.8319,-0.8333,-0.8233,-0.8038,-0.8137,-0.8645,-0.9818,-1.0222,-1.0711,-1.1612,-1.192,-1.192,-1.1583,-1.2354,-1.3069,-1.3201,-1.4197,-1.5058,-1.5725,-1.5609,-1.5491,-1.5294,-1.6228,-1.7303,-1.8448,-1.9869,-2.1584,-2.3627,-2.4664,-2.54,-2.5771,-2.6287,-2.6603,-2.6686,-2.6203,-2.5765,-2.5454,-2.5115,-2.5105,-2.5443,-2.7325,-2.8591,-2.9241,-3.1233,-3.2123,-3.2123,-3.215,-3.2368,-3.2715,-3.2786,-3.3,-3.3283,-3.3325,-3.3485,-3.3728,-3.3847,-3.4478,-3.5181,-3.4611,-3.4939,-3.5449,-3.4742,-3.4692,-3.4903,-3.4916,-3.4899,-3.4977,-3.5362,-3.5577,-3.5932,-3.6981,-3.7482,-3.7828,-3.8252,-3.8387,-3.8409,-3.8307,-3.8241,-3.8225,-3.8225,-3.8478,-3.87,-3.873,-3.9129,-3.9451,-3.9508,-3.9641,-3.9764,-3.9825,-4.0215,-4.046,-4.0307,-4.0291,-4.031,-4.031,-4.0303,-4.0526,-4.1074,-4.3546,-4.523,-4.5784,-4.5805,-4.5796,-4.5808,-4.5234,-4.3574,-4.0805,-4.1432,-4.3324,-4.6308,-4.6308,-4.6303,-0.8432,-0.8528,-0.8528,-0.8233,-0.8333,-0.8619,-0.9688,-0.9848,-1.0098,-1.1117,-1.1288,-1.1213,-1.1107,-1.1917,-1.2667,-1.2874,-1.391,-1.4875,-1.5491,-1.5637,-1.5665,-1.5777,-1.6048,-1.6825,-1.8521,-1.9289,-2.0748,-2.326,-2.4566,-2.5432,-2.5875,-2.6401,-2.6728,-2.6726,-2.6333,-2.5851,-2.5369,-2.5115,-2.5348,-2.6091,-2.7556,-2.8827,-2.9884,-3.1468,-3.2182,-3.2182,-3.2182,-3.2372,-3.2704,-3.2704,-3.2931,-3.3326,-3.3326,-3.3425,-3.3623,-3.3683,-3.4185,-3.4772,-3.4529,-3.4824,-3.5266,-3.4855,-3.4772,-3.4901,-3.4916,-3.4899,-3.4977,-3.5453,-3.5766,-3.6224,-3.7228,-3.765,-3.7948,-3.8396,-3.8446,-3.8368,-3.8274,-3.8336,-3.8478,-3.8478,-3.87,-3.8943,-3.9045,-3.9313,-3.9537,-3.9647,-3.9876,-3.9983,-3.9946,-4.0215,-4.0366,-4.0307,-4.0291,-4.031,-4.031,-4.0303,-4.0533,-4.1067,-4.2516,-4.4113,-4.5832,-4.5902,-4.5886,-4.5898,-4.5898,-4.4222,-4.0791,-4.0788,-4.2629,-4.6141,-4.6249,-4.6307,-0.8421,-0.8528,-0.8627,-0.8432,-0.8432,-0.8694,-0.947,-0.949,-0.9602,-1.054,-1.0706,-1.0633,-1.0653,-1.1572,-1.2277,-1.2583,-1.3496,-1.4389,-1.5101,-1.5356,-1.5712,-1.607,-1.6049,-1.6713,-1.8588,-1.8954,-2.021,-2.2902,-2.4496,-2.5534,-2.6165,-2.6516,-2.6718,-2.6536,-2.6235,-2.5765,-2.5115,-2.5369,-2.5852,-2.6659,-2.79,-2.9164,-3.0532,-3.1542,-3.2096,-3.2182,-3.2182,-3.2372,-3.2704,-3.2704,-3.2931,-3.3312,-3.3437,-3.3492,-3.3517,-3.3683,-3.3998,-3.43,-3.4349,-3.4594,-3.4899,-3.4899,-3.4899,-3.4899,-3.5024,-3.4977,-3.5024,-3.5688,-3.6097,-3.6492,-3.7395,-3.7879,-3.8168,-3.8415,-3.8415,-3.8368,-3.8289,-3.8491,-3.87,-3.8741,-3.8971,-3.9163,-3.935,-3.9543,-3.9747,-3.9848,-4.0039,-4.0158,-4.0215,-4.0272,-4.0291,-4.0308,-4.0291,-4.031,-4.031,-4.0288,-4.0539,-4.107,-4.1106,-4.2578,-4.585,-4.5991,-4.6007,-4.6007,-4.5987,-4.4657,-4.1916,-4.1908,-4.3318,-4.6006,-4.6215,-4.6306,-0.8294,-0.8432,-0.8432,-0.8432,-0.8627,-0.8886,-0.9561,-0.9478,-0.9524,-1.0179,-1.0423,-1.0483,-1.0338,-1.0967,-1.1569,-1.2063,-1.2423,-1.3066,-1.4223,-1.459,-1.5038,-1.578,-1.7162,-1.8399,-1.8993,-2.0145,-2.1444,-2.296,-2.4596,-2.6003,-2.7086,-2.6568,-2.6249,-2.6246,-2.5774,-2.5322,-2.4946,-2.5863,-2.6362,-2.6268,-2.8119,-2.9381,-3.0063,-3.1158,-3.1863,-3.2182,-3.2182,-3.2372,-3.2704,-3.2704,-3.2931,-3.3382,-3.4002,-3.3921,-3.3577,-3.4321,-3.4492,-3.43,-3.4448,-3.4643,-3.4899,-3.4899,-3.4899,-3.4977,-3.5407,-3.5241,-3.5148,-3.644,-3.6557,-3.6557,-3.7721,-3.8068,-3.8135,-3.835,-3.8336,-3.8354,-3.8541,-3.8585,-3.8688,-3.8943,-3.9287,-3.9551,-3.9575,-3.9804,-3.9996,-4.0057,-4.0038,-4.0058,-4.0177,-4.0272,-4.0311,-4.031,-4.031,-4.031,-4.031,-4.0296,-4.0532,-4.1073,-4.1098,-4.2578,-4.5862,-4.5988,-4.5997,-4.5997,-4.5994,-4.5847,-4.5517,-4.5528,-4.5687,-4.6001,-4.6212,-4.6307,-0.7991,-0.8035,-0.8134,-0.7932,-0.8062,-0.8404,-0.9402,-0.9279,-0.9306,-1.0493,-1.0418,-1.0177,-1.0448,-1.0666,-1.1094,-1.1685,-1.1989,-1.2414,-1.3285,-1.3686,-1.4384,-1.5483,-1.6026,-1.6948,-1.8573,-1.8888,-2.0198,-2.3104,-2.4647,-2.5936,-2.6955,-2.6525,-2.6156,-2.6156,-2.5774,-2.5409,-2.5306,-2.5622,-2.6019,-2.6577,-2.7683,-2.8942,-3.0203,-3.1158,-3.179,-3.2182,-3.2182,-3.2372,-3.2704,-3.2704,-3.3185,-3.3905,-3.3787,-3.3839,-3.3937,-3.3906,-3.3997,-3.4201,-3.425,-3.4546,-3.4899,-3.4899,-3.4899,-3.4947,-3.5102,-3.5241,-3.5481,-3.6274,-3.658,-3.6838,-3.7632,-3.7966,-3.8135,-3.8303,-3.8496,-3.8652,-3.8634,-3.8923,-3.9208,-3.9287,-3.9556,-3.9781,-3.9781,-3.9867,-3.9954,-3.9994,-3.9975,-4.0017,-4.0077,-4.0156,-4.0196,-4.0288,-4.0309,-4.0291,-4.0311,-4.03,-4.1376,-4.3882,-4.4051,-4.4637,-4.5949,-4.5998,-4.5997,-4.5997,-4.5997,-4.6005,-4.6005,-4.6005,-4.6008,-4.5994,-4.608,-4.604,-0.7521,-0.7601,-0.7736,-0.763,-0.772,-0.8044,-0.9039,-0.9054,-0.9131,-1.0262,-1.0202,-1.0068,-1.0473,-1.0578,-1.0839,-1.1492,-1.1673,-1.197,-1.256,-1.3055,-1.3737,-1.474,-1.4946,-1.5944,-1.828,-1.9018,-2.0486,-2.3401,-2.4711,-2.5635,-2.6476,-2.6158,-2.5982,-2.5986,-2.5394,-2.51,-2.5391,-2.5359,-2.5768,-2.6659,-2.7267,-2.8445,-3.0114,-3.0758,-3.1468,-3.2182,-3.2182,-3.2372,-3.2632,-3.2632,-3.3129,-3.3978,-3.3675,-3.3796,-3.4014,-3.3738,-3.3792,-3.4,-3.405,-3.4448,-3.4851,-3.4947,-3.4994,-3.4994,-3.4994,-3.5484,-3.61,-3.6619,-3.7311,-3.7922,-3.8133,-3.8326,-3.8583,-3.8812,-3.9044,-3.9327,-3.9618,-3.9829,-4.0005,-4.0047,-4.0015,-3.9954,-3.9933,-3.9933,-3.9933,-3.9933,-3.9975,-4.0114,-4.0462,-4.054,-4.0652,-4.0803,-4.0562,-4.036,-4.0325,-4.0222,-4.1416,-4.4324,-4.5431,-4.5988,-4.6008,-4.5998,-4.6007,-4.5988,-4.6007,-4.6007,-4.5998,-4.6005,-4.5998,-4.6005,-4.5998,-4.5939,-0.6966,-0.7134,-0.7235,-0.7531,-0.772,-0.7921,-0.8341,-0.8615,-0.8923,-0.9329,-0.9848,-1.022,-1.0301,-1.0466,-1.0789,-1.1521,-1.1294,-1.1325,-1.2279,-1.2614,-1.2953,-1.3476,-1.437,-1.5954,-1.8425,-2.1554,-2.3582,-2.4025,-2.473,-2.5254,-2.5674,-2.5589,-2.5538,-2.5553,-2.4402,-2.4186,-2.4861,-2.5505,-2.5913,-2.6185,-2.6835,-2.8004,-2.9731,-2.9731,-3.0594,-3.2182,-3.2182,-3.23,-3.2417,-3.2417,-3.2723,-3.3289,-3.3987,-3.4001,-3.3609,-3.425,-3.416,-3.3745,-3.4,-3.4349,-3.4756,-3.4994,-3.5198,-3.5308,-3.5308,-3.6021,-3.7028,-3.7877,-3.91,-4.0039,-3.9426,-3.9402,-3.9604,-4.0067,-4.0137,-4.0476,-4.1858,-4.1491,-4.0995,-4.1311,-4.0687,-4.0077,-3.9996,-3.9996,-3.9996,-3.9996,-3.9996,-4.0404,-4.1541,-4.1671,-4.179,-4.2054,-4.1203,-4.0526,-4.0318,-4.0062,-4.0192,-4.092,-4.4122,-4.5998,-4.5998,-4.5998,-4.5998,-4.5998,-4.5998,-4.5998,-4.5998,-4.5991,-4.6014,-4.6002,-4.6003,-4.6109,-0.5943,-0.589,-0.5884,-0.617,-0.6904,-0.7764,-0.819,-0.893,-0.9663,-1.0105,-1.0242,-1.0296,-1.0473,-1.044,-1.0543,-1.1281,-1.1048,-1.0968,-1.178,-1.2434,-1.3174,-1.419,-1.6227,-1.794,-1.8672,-2.1102,-2.2777,-2.3271,-2.4326,-2.5179,-2.5684,-2.5398,-2.5248,-2.527,-2.4605,-2.4579,-2.5115,-2.4946,-2.5115,-2.5527,-2.6577,-2.7683,-2.8827,-2.9986,-3.1185,-3.2182,-3.23,-3.2359,-3.239,-3.2275,-3.2579,-3.3122,-3.3134,-3.3256,-3.3475,-3.3713,-3.4154,-3.4587,-3.4691,-3.5256,-3.5956,-3.5761,-3.5758,-3.5754,-3.5684,-3.6454,-3.7663,-3.8952,-3.9601,-3.9917,-3.9856,-4.0005,-4.0286,-4.0662,-4.1089,-4.1544,-4.2084,-4.1707,-4.1271,-4.1373,-4.0706,-4.0077,-4.0077,-4.0057,-4.0289,-4.0997,-4.1092,-4.147,-4.253,-4.2661,-4.2869,-4.3419,-4.3179,-4.2376,-4.0841,-4.0633,-4.171,-4.4358,-4.5541,-4.6104,-4.5998,-4.5988,-4.5988,-4.5998,-4.6085,-4.6095,-4.6005,-4.5991,-4.5899,-4.5733,-4.5723,-4.577,-0.5362,-0.5359,-0.5567,-0.6108,-0.6894,-0.7631,-0.8162,-0.9096,-0.9782,-0.9958,-0.9948,-1.0116,-1.0505,-1.0171,-1.0199,-1.1133,-1.0858,-1.0888,-1.1935,-1.2531,-1.3252,-1.4671,-1.6793,-1.8495,-1.9055,-2.0942,-2.2546,-2.328,-2.4352,-2.5128,-2.5518,-2.5363,-2.5212,-2.5142,-2.4705,-2.472,-2.5211,-2.4792,-2.5123,-2.6125,-2.6858,-2.7952,-2.9423,-3.0509,-3.1519,-3.23,-3.2345,-3.2294,0.0,-3.2069,-3.2525,-3.3294,-3.2796,-3.3165,-3.3952,-3.4043,-3.4382,-3.4904,-3.532,-3.5902,-3.6476,-3.6158,-3.6267,-3.6692,-3.7482,-3.7939,-3.8618,-4.0384,-4.0824,-4.0713,-4.0623,-4.0799,-4.1138,-4.1535,-4.2099,-4.2662,-4.3175,-4.2563,-4.193,-4.193,-4.0977,-4.0291,-4.0635,-4.0692,-4.1034,-4.2027,-4.2175,-4.2545,-4.3583,-4.3692,-4.4013,-4.4812,-4.49,-4.4345,-4.3012,-4.2898,-4.3841,-4.6056,-4.6201,-4.6169,-4.6084,-4.6035,-4.6016,-4.6065,-4.6153,-4.6163,-4.6083,-4.5917,-4.575,-4.5592,-4.5607,-4.5695,0.0,-0.551,-0.5869,-0.691,-0.7235,-0.7597,-0.8176,-0.8974,0.0,-0.9118,-0.9387,-0.9852,-1.0391,-0.989,-0.9731,-1.0961,-1.0714,-1.093,-1.2587,-1.2979,-1.3632,-1.5007,-1.6445,-1.7925,-1.9247,-2.1112,-2.2604,-2.3839,-2.4516,-2.5011,-2.5235,-2.5538,-2.5527,-2.5088,-2.4678,-2.4766,-2.5179,-2.5016,-2.5913,-2.7679,-2.7561,-2.8739,-3.106,-3.11,-3.1566,-3.2349,-3.2349,-3.2105,-3.1709,-3.1723,-3.2485,-3.3562,-3.3001,-3.3603,-3.4766,-3.4973,-3.4931,-3.4899,-3.59,-3.6409,-3.6502,-3.629,-3.6772,-3.7888,-4.0046,-4.0129,-3.9841,-4.1895,-4.2405,-4.2149,-4.1615,-4.1741,-4.2114,-4.2637,-4.3137,-4.3793,-4.4867,-4.3876,-4.2774,-4.2774,-4.1457,-4.0577,-4.1445,-4.1651,-4.2021,-4.2974,-4.3156,-4.3589,-4.4666,-4.4812,-4.5161,-4.6091,-4.6196,-4.6196,-4.6196,-4.6208,-4.6201,-4.6201,-4.6193,-4.6212,-4.6205,-4.6091,-4.6063,-4.6205,-4.6173,-4.6173,-4.6173,-4.579,-4.5612,-4.5601,-4.5634,-4.5886,-0.4936,0.0,-0.4901,-0.5314,-0.659,-0.7761,0.0,-0.9109,-1.0274,-0.9965,-0.9992,-1.0127,-1.0241,-1.0006,-0.9987,-1.0657,-1.0773,-1.1358,-1.2887,-1.4627,-1.5934,-1.6491,-1.7638,-1.8504,-1.8659,-2.0551,-2.2101,-2.2868,-2.3869,-2.4707,-2.5226,-2.5538,-2.5527,-2.5088,-2.5347,-2.533,-2.5155,-2.607,-2.69,-2.7763,-2.9114,-3.0206,-3.1125,-3.1438,-3.1715,-3.1774,-3.1774,-3.1557,-3.1142,-3.1417,-3.1724,-3.2226,-3.331,-3.3912,-3.4242,-3.538,-3.605,-3.6564,-3.678,-3.7365,-3.7871,-3.7478,-3.7314,-3.7663,-3.9423,-4.0166,-4.0719,-4.1979,-4.2328,-4.2292,-4.2136,-4.2574,-4.3112,-4.3324,-4.3885,-4.4499,-4.4857,-4.3745,-4.265,-4.265,-4.1379,-4.0368,-4.0595,-4.1234,-4.2033,-4.3021,-4.3831,-4.4686,-4.571,-4.5842,-4.5947,-4.6176,-4.6196,-4.6196,-4.6196,-4.6196,-4.6196,-4.6196,-4.6189,-4.6201,-4.6205,-4.6169,-4.6171,-4.6192,-4.5998,-4.589,-4.589,-4.5692,-4.5603,-4.5603,-4.5969,-4.6188,-0.4901,-0.4894,-0.5106,-0.5666,-0.7016,-0.8049,-0.7974,-0.9238,-1.022,-0.9635,-0.969,-0.9732,-0.9704,-1.0048,-1.0181,-0.9738,-1.1107,-1.2704,-1.4078,-1.5178,-1.6122,-1.694,-1.7552,-1.8104,-1.8582,-1.9951,-2.1357,-2.2593,-2.3673,-2.4612,-2.5314,-2.5528,-2.5625,-2.5381,-2.565,-2.5594,-2.5244,-2.667,-2.7892,-2.8843,-3.0375,-3.1368,-3.1821,-3.1944,-3.1816,-3.1568,-3.1568,-3.142,-3.1135,-3.1653,-3.2056,-3.2539,-3.3372,-3.3988,-3.4546,-3.5712,-3.6319,-3.6683,-3.7415,-3.7857,-3.815,-3.8714,-3.8631,-3.8656,-4.0227,-4.1049,-4.1594,-4.2162,-4.2287,-4.2287,-4.2287,-4.2846,-4.3422,-4.3505,-4.4125,-4.4738,-4.4796,-4.3891,-4.3073,-4.3073,-4.2091,-4.1454,-4.2042,-4.2563,-4.3289,-4.4422,-4.5035,-4.5585,-4.6137,-4.6162,-4.6154,-4.6154,-4.6154,-4.615,-4.6138,-4.619,-4.6196,-4.6196,-4.6196,-4.615,-4.6021,-4.6122,-4.6201,-4.626,-4.6104,-4.6036,-4.6037,-4.5959,-4.592,-4.5938,-4.6181,-4.6294,-0.511,-0.5396,-0.5878,-0.6683,-0.7478,-0.8132,-0.8102,-0.9053,-0.9609,-0.8775,-0.8861,-0.9118,-0.9207,-0.9915,-1.0115,-0.9081,-1.1625,-1.4141,-1.5435,-1.5452,-1.5668,-1.6863,-1.6994,-1.7449,-1.8427,-1.9276,-2.0551,-2.2364,-2.343,-2.4336,-2.5327,-2.5523,-2.5633,-2.5633,-2.5674,-2.5544,-2.5233,-2.7206,-2.8866,-3.0072,-3.1279,-3.2045,-3.2541,-3.2226,-3.1847,-3.1445,-3.1527,0.0,-3.1222,-3.2011,-3.2645,-3.3208,-3.3439,-3.4122,-3.5126,-3.6088,-3.6362,-3.64,-3.7866,-3.817,-3.8056,-3.9547,-3.9771,-3.9779,-4.12,-4.1828,-4.2044,-4.2169,-4.2246,-4.2328,-4.2351,-4.2884,-4.3406,-4.3474,-4.4084,-4.4685,-4.4685,-4.409,-4.3583,-4.363,-4.2985,-4.2804,-4.392,-4.4245,-4.4699,-4.5799,-4.6111,-4.6196,-4.6196,-4.6146,-4.6093,-4.6093,-4.6093,-4.6099,-4.6086,-4.617,-4.6196,-4.6208,-4.6215,-4.6103,-4.5888,-4.6102,-4.6249,-4.6299,-4.631,-4.6298,-4.6298,-4.6307,-4.6302,-4.6294,-4.6294,-4.6304,-0.5336,-0.6071,-0.6676,-0.5823,-0.6455,-0.7232,-0.7165,-0.7799,-0.8313,-0.8012,-0.8012,-0.8471,-1.0034,-0.9364,-0.9134,-1.0736,-1.2377,-1.4117,-1.6177,-1.6746,-1.6982,-1.7008,-1.7187,-1.7297,-1.7227,-1.8003,-1.9281,-2.1318,-2.2032,-2.3195,-2.5055,-2.5145,-2.5175,-2.5175,-2.5218,-2.5357,-2.5455,-2.7865,-2.9188,-2.9446,-3.1369,-3.2173,-3.1911,-3.2136,-3.1714,-3.0843,-3.121,-3.0925,-3.0318,-3.1635,-3.2167,-3.2298,-3.4192,-3.502,-3.5347,-3.6675,-3.7106,-3.7219,-3.8116,-3.8327,-3.8358,-3.8606,-3.8885,-3.9279,-4.0192,-4.0659,-4.1018,-4.169,-4.2079,-4.2351,-4.2637,-4.3069,-4.3474,-4.3809,-4.4218,-4.4542,-4.4542,-4.3954,-4.3485,-4.3722,-4.3166,-4.2795,-4.322,-4.3993,-4.4626,-4.4827,-4.5626,-4.6196,-4.6196,-4.6146,-4.6093,-4.6093,-4.6104,-4.6085,-4.6018,-4.6128,-4.6225,-4.6277,-4.6232,-4.6201,-4.6227,-4.6266,-4.6277,-4.6307,-4.6293,-4.6294,-4.6307,-4.6309,-4.6308,-4.6292,-4.6292,-4.6296,-0.5385,-0.5752,-0.6157,-0.5798,-0.7221,-0.8471,-0.7966,-0.8708,-0.9128,-0.8139,-0.83,-0.8953,-0.9979,-1.0396,-1.1563,-1.4222,-1.38,-1.3963,-1.6436,-1.6373,-1.6266,-1.694,-1.6917,-1.6922,-1.6996,-1.7515,-1.8582,-2.0371,-2.1423,-2.2749,-2.4425,-2.4937,-2.5067,-2.5067,-2.5194,-2.5223,-2.53,-2.7093,-2.8433,-2.9325,-3.1319,-3.1978,-3.1482,-3.1395,-3.1182,-3.0907,0.0,-3.1295,-3.1575,-3.2346,-3.3004,-3.3655,-3.475,-3.5428,-3.5914,-3.695,-3.7566,-3.7954,-3.8278,-3.8391,-3.8504,-3.9061,-3.9324,-3.9613,-4.0491,-4.0856,-4.1086,-4.1393,-4.1462,-4.1652,-4.2433,-4.2687,-4.2956,-4.3781,-4.4266,-4.4515,-4.4515,-4.432,-4.4178,-4.4322,-4.4176,-4.4135,-4.4405,-4.4839,-4.5202,-4.5332,-4.5822,-4.6138,-4.6093,-4.6093,-4.6075,-4.5997,-4.6066,-4.6075,-4.6005,-4.6156,-4.6264,-4.63,-4.6201,-4.6187,-4.6293,-4.6863,-4.6897,-4.631,-4.6897,-4.6923,-4.6299,-4.6292,-4.63,-4.63,-4.63,-4.63,-0.5396,-0.5562,-0.584,-0.6257,-0.7692,-0.8996,-0.8551,-0.9235,-0.9548,-0.8448,-0.8715,-0.9354,-0.9777,-1.1162,-1.3088,-1.5624,-1.4255,-1.3813,-1.6346,-1.6039,-1.5795,-1.6663,-1.6746,-1.6759,-1.6907,-1.7145,-1.7956,-1.9397,-2.0772,-2.2235,-2.3613,-2.4476,-2.4937,-2.4937,-2.4979,-2.5068,-2.5155,-2.6278,-2.758,-2.9051,-3.0724,-3.1313,-3.0987,-3.0891,-3.0908,-3.103,-3.128,-3.193,-3.2758,-3.3284,-3.3985,-3.48,-3.5182,-3.5829,-3.661,-3.7128,-3.7776,-3.8391,-3.8391,-3.8448,-3.8655,-3.9506,-3.9868,-4.007,-4.0802,-4.1163,-4.129,-4.1226,-4.0981,-4.1049,-4.2264,-4.245,-4.2616,-4.3806,-4.4266,-4.4458,-4.4487,-4.4655,-4.48,-4.4872,-4.5096,-4.5362,-4.5603,-4.565,-4.5742,-4.5964,-4.6027,-4.6066,-4.6037,-4.6056,-4.6047,-4.5975,-4.6074,-4.6105,-4.6072,-4.6205,-4.6281,-4.6309,-4.6195,-4.6195,-4.6293,-4.7089,-4.7138,-4.6312,-4.7166,-4.7159,-4.63,-4.63,-4.63,-4.63,-4.63,-4.63,-0.5448,-0.593,-0.6585,-0.7037,-0.6922,-0.6898,-0.7712,-0.7914,-0.8006,-0.8333,-0.8452,-0.8814,-1.015,-1.0601,-1.1042,-1.2145,-1.2594,-1.356,-1.5599,-1.663,-1.6914,-1.6319,-1.6718,-1.6907,-1.6683,-1.6407,-1.6951,-1.8395,-1.9679,-2.0962,-2.2403,-2.3804,-2.4547,-2.4547,-2.4526,-2.4667,-2.4913,-2.6351,-2.7476,-2.8235,-2.9353,-3.0099,-3.0494,-3.0982,-3.115,-3.1043,-3.2231,-3.264,-3.2546,-3.4055,-3.4607,-3.4543,-3.5395,-3.6339,-3.7242,-3.7307,-3.7776,-3.8391,-3.8391,-3.8655,-3.8969,-3.9077,-3.9662,-4.0351,-4.0449,-4.0741,-4.1093,-4.1093,-4.0937,-4.1055,-4.2402,-4.2755,-4.3032,-4.4048,-4.4285,-4.4344,-4.4487,-4.4655,-4.4872,-4.5118,-4.5343,-4.5541,-4.5752,-4.5835,-4.5886,-4.5898,-4.5964,-4.6037,-4.6085,-4.6044,-4.6055,-4.6174,-4.6189,-4.622,-4.6266,-4.6227,-4.6231,-4.6307,-4.6289,-4.6289,-4.6308,-4.6367,-4.6384,-4.6297,-4.6384,-4.6378,-4.63,-4.63,-4.63,-4.63,-4.63,-4.63,-0.5732,-0.6167,-0.663,-0.6757,-0.6967,-0.7425,-0.8923,-0.9196,-0.9179,-0.8981,-0.8922,-0.9147,-1.0031,-1.1109,-1.2026,-1.2328,-1.3169,-1.3984,-1.4765,-1.6001,-1.6581,-1.5812,-1.6298,-1.6494,-1.5913,-1.5927,-1.6487,-1.7591,-1.8948,-2.0387,-2.1915,-2.328,-2.4186,-2.4454,-2.454,-2.4775,-2.5421,-2.6091,-2.7151,-2.8755,-2.9704,-3.0392,-3.0808,-3.1031,-3.1375,-3.1901,-3.2522,-3.324,-3.4134,-3.4595,-3.5294,-3.6069,-3.6585,-3.7148,-3.7673,-3.7444,-3.7792,-3.8391,-3.8148,-3.8567,-3.9169,-3.9506,-3.9952,-4.0449,-4.0802,-4.0948,-4.1029,-4.1272,-4.1297,-4.1389,-4.2336,-4.2541,-4.2766,-4.3844,-4.4207,-4.4314,-4.4373,-4.4714,-4.5074,-4.518,-4.5454,-4.5723,-4.58,-4.5827,-4.586,-4.5951,-4.5976,-4.603,-4.6092,-4.6104,-4.6125,-4.6137,-4.6177,-4.6238,-4.6284,-4.628,-4.628,-4.6307,-4.6308,-4.6308,-4.6308,-4.6816,-4.6855,-4.6307,-4.6833,-4.6848,-4.6295,-4.6295,-4.6295,-4.6295,-4.6295,-4.629,-0.6215,-0.6498,-0.684,-0.7093,-0.7312,-0.7978,-0.9595,-0.9793,-0.9589,-0.9772,-0.9513,-0.9312,-0.9596,-1.0471,-1.1249,-1.1638,-1.2512,-1.3193,-1.3686,-1.4943,-1.5622,-1.5153,-1.5818,-1.6109,-1.535,-1.5635,-1.6109,-1.6763,-1.8311,-1.9844,-2.1194,-2.2736,-2.3831,-2.4454,-2.454,-2.4946,-2.583,-2.6008,-2.7069,-2.8912,-2.9793,-3.0432,-3.0986,-3.0986,-3.1482,-3.2417,-3.2761,-3.3768,-3.5145,-3.5193,-3.5953,-3.6999,-3.7314,-3.7535,-3.7695,-3.746,-3.7711,-3.8091,-3.8059,-3.8479,-3.9259,-3.9817,-4.0237,-4.058,-4.0977,-4.1012,-4.0995,-4.1401,-4.1604,-4.1846,-4.2426,-4.2523,-4.2748,-4.3717,-4.4023,-4.4195,-4.4364,-4.477,-4.5142,-4.5264,-4.5577,-4.58,-4.58,-4.5838,-4.5877,-4.5988,-4.6026,-4.6061,-4.6118,-4.6173,-4.6196,-4.6177,-4.6193,-4.6254,-4.6308,-4.6306,-4.63,-4.6308,-4.6529,-4.6566,-4.6308,-4.6875,-4.6914,-4.6308,-4.6894,-4.6894,-4.6306,-4.6558,-4.6549,-4.6295,-4.6305,-4.6308,-0.6975,-0.6968,-0.7297,-0.8142,-0.8021,-0.8031,-0.9662,-0.9037,-0.8817,-1.0756,-1.0105,-0.9118,-0.8825,-0.8137,-0.8038,-0.941,-1.0083,-1.096,-1.2436,-1.3596,-1.4274,-1.4292,-1.5159,-1.5642,-1.5178,-1.5547,-1.5832,-1.5832,-1.7662,-1.9206,-2.0107,-2.2003,-2.3551,-2.4454,-2.454,-2.4946,-2.583,-2.6268,-2.7162,-2.8426,-2.9303,-3.0177,-3.0986,-3.0986,-3.1482,-3.2417,-3.3157,-3.4109,-3.5175,-3.5928,-3.6538,-3.6999,-3.7314,-3.7417,-3.7417,-3.7417,-3.7417,-3.7476,-3.81,-3.8606,-3.9135,-3.985,-4.0387,-4.0745,-4.0888,-4.0888,-4.1012,-4.1401,-4.1864,-4.232,-4.2788,-4.292,-4.3069,-4.3652,-4.3804,-4.3961,-4.4484,-4.4762,-4.5023,-4.5417,-4.5658,-4.58,-4.58,-4.591,-4.6007,-4.6007,-4.6066,-4.6141,-4.6183,-4.6201,-4.6221,-4.6287,-4.6308,-4.6308,-4.6308,-4.6308,-4.6308,-4.6328,-4.7065,-4.7151,-4.6347,-4.6328,-4.6328,-4.6328,-4.6328,-4.6328,-4.6328,-4.7108,-4.7098,-4.631,-4.6349,-4.6345,-0.6713,-0.7383,-0.8122,-0.8084,-0.8556,-0.91,-0.9469,-0.9128,-0.8825,-0.9186,-0.8726,-0.8333,-0.8237,-0.8038,-0.8038,-0.8432,-0.9213,-0.9993,-1.0485,-1.242,-1.3494,-1.2748,-1.4484,-1.5452,-1.4592,-1.5255,-1.5832,-1.5832,-1.7037,-1.8495,-2.0107,-2.1462,-2.2824,-2.4454,-2.454,-2.4946,-2.583,-2.6268,-2.7162,-2.8426,-2.9015,-2.9741,-3.0596,-3.0911,-3.169,-3.2946,-3.3367,-3.4245,-3.5544,-3.6006,-3.6414,-3.6693,-3.6723,-3.6907,-3.7165,-3.7298,-3.7578,-3.7927,-3.8399,-3.8936,-3.9454,-3.9662,-4.0154,-4.0697,-4.0745,-4.1041,-4.1401,-4.1864,-4.2338,-4.2788,-4.3214,-4.3495,-4.373,-4.3878,-4.3986,-4.4181,-4.4538,-4.4943,-4.5303,-4.5419,-4.5629,-4.58,-4.58,-4.591,-4.6016,-4.6066,-4.6133,-4.6202,-4.6255,-4.6269,-4.6287,-4.6308,-4.6264,-4.6473,-4.7092,-4.7131,-4.7385,-4.7951,-4.8211,-4.7973,-4.717,-4.7683,-4.799,-4.799,-4.799,-4.799,-4.799,-4.7093,-4.7125,-4.8021,-4.9195,-4.9751,-0.8036,-0.8471,-0.8807,-0.9024,-0.9349,-0.9498,-0.9174,-0.917,-0.9006,-0.8414,-0.8237,-0.8137,-0.8041,-0.7942,-0.7842,-0.7939,-0.8528,-0.9118,-0.9509,-1.1448,-1.2716,-1.2355,-1.4382,-1.5445,-1.4688,-1.5356,-1.5832,-1.5832,-1.6581,-1.777,-1.9563,-2.0747,-2.2199,-2.3907,-2.4272,-2.4946,-2.583,-2.6268,-2.708,-2.8187,-2.8791,-2.9365,-2.9896,-3.081,-3.1955,-3.3213,-3.4041,-3.4876,-3.5688,-3.6006,-3.6148,-3.6163,-3.6163,-3.6352,-3.6616,-3.6693,-3.7163,-3.7812,-3.8157,-3.8701,-3.9312,-3.9627,-4.002,-4.0404,-4.0453,-4.0741,-4.122,-4.1846,-4.232,-4.275,-4.3339,-4.3749,-4.4005,-4.4005,-4.4151,-4.4374,-4.4676,-4.5033,-4.5323,-4.5475,-4.5661,-4.5819,-4.5858,-4.5969,-4.6061,-4.6134,-4.6201,-4.6255,-4.6288,-4.6276,-4.6269,-4.6269,-4.6534,-4.6922,-4.7416,-4.7777,-4.8165,-4.8632,-4.8963,-4.8934,-4.8463,-4.8604,-4.8705,-4.8705,-4.8705,-4.86,-4.8385,-4.784,-4.7631,-4.7796,-5.0122,-5.1202,-1.006,-0.9822,-0.9509,-1.0417,-1.0056,-0.9324,-0.889,-0.9126,-0.9229,-0.8137,-0.8137,-0.8333,-0.8038,-0.7842,-0.7743,-0.7942,-0.8038,-0.8333,-0.9312,-1.0765,-1.193,-1.2533,-1.4376,-1.5452,-1.5178,-1.5547,-1.5832,-1.5832,-1.6204,-1.7217,-1.8848,-2.0116,-2.156,-2.3183,-2.4003,-2.4861,-2.5663,-2.6102,-2.6764,-2.7637,-2.8554,-2.8973,-2.9131,-3.0696,-3.2074,-3.3283,-3.4942,-3.5688,-3.5688,-3.5894,-3.5831,-3.5688,-3.5688,-3.5831,-3.591,-3.5816,-3.6305,-3.7178,-3.7589,-3.8181,-3.8843,-3.9504,-3.9781,-3.9884,-4.0037,-4.032,-4.0772,-4.1552,-4.2038,-4.248,-4.3286,-4.3781,-4.4048,-4.4048,-4.425,-4.4546,-4.4938,-4.508,-4.5265,-4.5629,-4.5757,-4.5872,-4.5982,-4.6046,-4.6137,-4.619,-4.626,-4.6286,-4.6287,-4.6242,-4.6192,-4.6201,-4.6906,-4.7365,-4.7398,-4.8172,-4.8676,-4.8695,-4.9456,-4.9935,-5.0009,-4.931,-4.8914,-4.8926,-4.8926,-4.8681,-4.8196,-4.9178,-4.8643,-4.6814,-4.9812,-5.1202,-0.8123,-0.8806,-0.9515,-0.9742,-0.9677,-0.9379,-0.8916,-0.873,-0.8435,-0.7842,-0.7942,-0.8038,-0.8038,-0.7939,-0.7942,-0.8038,-0.8038,-0.8038,-0.8333,-0.9312,-1.0485,-1.1365,-1.3022,-1.4292,-1.4987,-1.5547,-1.5832,-1.5832,-1.5927,-1.7109,-1.9745,-2.0198,-2.1551,-2.409,-2.4282,-2.4368,-2.4529,-2.4925,-2.5589,-2.6517,-2.7255,-2.8155,-2.9131,-3.0203,-3.1576,-3.3297,-3.4854,-3.5589,-3.5688,-3.5752,-3.5752,-3.5688,-3.5688,-3.5608,-3.5593,-3.5978,-3.6244,-3.6446,-3.7144,-3.7806,-3.8294,-3.8574,-3.9152,-3.9729,-3.9781,-4.0577,-4.1552,-4.1768,-4.2483,-4.325,-4.3444,-4.3886,-4.4318,-4.4318,-4.4519,-4.4819,-4.5173,-4.5361,-4.5528,-4.5673,-4.5829,-4.5976,-4.6069,-4.6132,-4.6205,-4.6269,-4.625,-4.6221,-4.6227,-4.6157,-4.6142,-4.6192,-4.6266,-4.6601,-4.7256,-4.8028,-4.875,-4.9417,-5.0269,-5.0763,-5.083,-5.0688,-5.0603,-5.0666,-5.0647,-5.0608,-5.0491,-5.0724,-5.0588,-5.0161,-5.0872,-5.1202,-0.8856,-0.9296,-0.9481,-0.9664,-0.9587,-0.9331,-0.8924,-0.8627,-0.8233,-0.7842,-0.7942,-0.8038,-0.8038,-0.8038,-0.8038,-0.8038,-0.8038,-0.8137,-0.8333,-0.9509,-1.0779,-1.1755,-1.3312,-1.4573,-1.5363,-1.5642,-1.5832,-1.5832,-1.5832,-1.6922,-1.9381,-1.9926,-2.1194,-2.3377,-2.3841,-2.3937,-2.3851,-2.4423,-2.5179,-2.6185,-2.6846,-2.7834,-2.9131,-3.0177,-3.1696,-3.3449,-3.4312,-3.5023,-3.5589,-3.5589,-3.5524,-3.5314,-3.5314,-3.5234,-3.5154,-3.5449,-3.6009,-3.6631,-3.698,-3.7764,-3.8535,-3.859,-3.9007,-3.9573,-3.9799,-4.0431,-4.1223,-4.1793,-4.2483,-4.3087,-4.341,-4.3949,-4.4383,-4.4383,-4.472,-4.5109,-4.53,-4.5495,-4.562,-4.5738,-4.5873,-4.6021,-4.6138,-4.6202,-4.6238,-4.6203,-4.6191,-4.6189,-4.6147,-4.6085,-4.6076,-4.6108,-4.6733,-4.7318,-4.7748,-4.8512,-4.9154,-4.9595,-4.9927,-5.0152,-5.0192,-5.0787,-5.1125,-5.1192,-5.1192,-5.1192,-5.1192,-5.121,-5.1202,-5.1202,-5.1202,-5.1205,-0.9969,-0.986,-0.9409,-0.9976,-0.9723,-0.9232,-0.8928,-0.8627,-0.8333,-0.8038,-0.8038,-0.8038,-0.8038,-0.8038,-0.8038,-0.8038,-0.8038,-0.8137,-0.8627,-0.9899,-1.1268,-1.2431,-1.389,-1.4956,-1.5825,-1.5832,-1.5832,-1.5832,-1.5832,-1.6655,-1.8564,-1.9563,-2.0747,-2.2208,-2.3125,-2.358,-2.3416,-2.4079,-2.4999,-2.6102,-2.701,-2.8007,-2.9052,-2.9999,-3.1509,-3.3199,-3.349,-3.4163,-3.5148,-3.5294,-3.5162,-3.4802,-3.4868,-3.4868,-3.4802,-3.4683,-3.5479,-3.6631,-3.6523,-3.7413,-3.8606,-3.8606,-3.8914,-3.9309,-3.9714,-4.0153,-4.0703,-4.169,-4.2284,-4.277,-4.3426,-4.4011,-4.4411,-4.4465,-4.4887,-4.5319,-4.5381,-4.5513,-4.564,-4.578,-4.593,-4.6088,-4.6183,-4.6237,-4.6228,-4.61,-4.6112,-4.6135,-4.6067,-4.6003,-4.6028,-4.6164,-4.7245,-4.7979,-4.8121,-4.8877,-4.9189,-4.8846,-4.8943,-4.9153,-4.9454,-5.0482,-5.1112,-5.1188,-5.1194,-5.1203,-5.1203,-5.1192,-5.1186,-5.1186,-5.1211,-5.1184,-0.8403,-0.891,-0.9601,-1.0171,-1.0117,-0.9727,-0.9232,-0.8931,-0.8627,-0.8137,-0.8038,-0.8038,-0.8038,-0.8038,-0.8038,-0.8038,-0.8038,-0.8038,-0.8137,-0.8726,-0.9895,-1.2124,-1.2716,-1.3794,-1.5933,-1.5933,-1.5832,-1.5832,-1.5832,-1.6466,-1.8003,-1.9023,-2.0305,-2.1747,-2.2501,-2.2891,-2.2891,-2.3724,-2.4648,-2.5663,-2.7418,-2.8431,-2.859,-2.8736,-2.9691,-3.1389,-3.2664,-3.338,-3.3533,-3.4452,-3.4683,-3.4481,-3.4698,-3.4616,-3.4467,-3.4481,-3.4601,-3.4787,-3.4935,-3.5834,-3.698,-3.7115,-3.8026,-3.9023,-3.9115,-4.0019,-4.1087,-4.1411,-4.2266,-4.3214,-4.3795,-4.4162,-4.4465,-4.4676,-4.5023,-4.5319,-4.5381,-4.5513,-4.5654,-4.5852,-4.6093,-4.6243,-4.6208,-4.6158,-4.6104,-4.6026,-4.5912,-4.5866,-4.5916,-4.5873,-4.6119,-4.6864,-4.6422,-4.6455,-4.7439,-4.8006,-4.7682,-4.6203,-4.7451,-4.8948,-5.0532,-5.0798,-5.1003,-5.12,-5.1194,-5.1192,-5.1192,-5.1196,-5.1201,-5.1201,-5.1198,-5.1209,-0.8725,-0.9474,-1.0098,-1.0294,-1.0216,-0.9821,-0.913,-0.8928,-0.8627,-0.8137,-0.8038,-0.8038,-0.8038,-0.8038,-0.8038,-0.8038,-0.8038,-0.8137,-0.8432,-0.8928,-1.01,-1.2512,-1.3011,-1.3992,-1.6028,-1.5927,-1.5832,-1.5832,-1.5832,-1.6466,-1.791,-1.8932,-2.0034,-2.1302,-2.2148,-2.253,-2.2451,-2.2862,-2.3963,-2.5652,-2.758,-2.851,-2.851,-2.851,-2.9459,-3.1228,-3.1933,-3.282,-3.3948,-3.4467,-3.4563,-3.4414,-3.4631,-3.4563,-3.4414,-3.4414,-3.4668,-3.5037,-3.5464,-3.6368,-3.7338,-3.7838,-3.8495,-3.9239,-3.9817,-4.0494,-4.1268,-4.2021,-4.2714,-4.3339,-4.386,-4.4117,-4.4334,-4.4806,-4.5208,-4.5492,-4.5608,-4.5654,-4.5737,-4.6008,-4.6197,-4.6286,-4.626,-4.6177,-4.6056,-4.5955,-4.5931,-4.587,-4.5754,-4.577,-4.5943,-4.6329,-4.6769,-4.7257,-4.7757,-4.8874,-4.924,-4.8485,-4.735,-4.7059,-4.7857,-4.9749,-5.0501,-4.991,-5.0588,-5.0928,-5.0907,-5.0924,-5.0577,-4.9923,-4.9908,-4.9907,-0.9461,-1.0062,-1.0418,-1.0496,-1.0263,-0.9803,-0.9201,-0.8924,-0.8627,-0.8137,-0.8038,-0.8038,-0.8038,-0.8038,-0.8038,-0.8038,-0.8038,-0.8137,-0.8528,-0.9418,-1.0788,-1.2802,-1.3499,-1.4573,-1.6123,-1.6021,-1.5832,-1.5832,-1.5832,-1.6285,-1.7368,-1.8395,-1.9405,-2.0413,-2.1338,-2.19,-2.2008,-2.2432,-2.3877,-2.6163,-2.7499,-2.8259,-2.851,-2.851,-2.9381,-3.0992,-3.1201,-3.2105,-3.3534,-3.4196,-3.4428,-3.4293,-3.4549,-3.4549,-3.4414,-3.4414,-3.4721,-3.5285,-3.5946,-3.6798,-3.7632,-3.8311,-3.8952,-3.9592,-4.04,-4.092,-4.149,-4.2501,-4.3032,-4.3442,-4.3968,-4.4224,-4.4455,-4.4992,-4.5373,-4.5649,-4.5803,-4.5824,-4.5883,-4.6103,-4.6208,-4.6238,-4.6173,-4.6095,-4.5969,-4.5871,-4.5863,-4.5835,-4.5629,-4.5687,-4.5764,-4.575,-4.6777,-4.7818,-4.8682,-4.9951,-5.0694,-5.0699,-4.8019,-4.6442,-4.6445,-4.888,-4.9807,-4.8919,-4.9787,-5.0255,-5.0234,-5.0241,-4.9784,-4.8897,-4.8903,-4.9405,-1.0052,-1.0308,-1.042,-1.0746,-1.0505,-0.9956,-0.9645,-0.9126,-0.8627,-0.8137,-0.8038,-0.8038,-0.8038,-0.8038,-0.8038,-0.8038,-0.8038,-0.8038,-0.8038,-0.9805,-1.1556,-1.2608,-1.407,-1.5439,-1.6487,-1.6116,-1.5832,-1.5832,-1.5832,-1.5825,-1.592,-1.6857,-1.7878,-1.888,-1.9886,-2.0808,-2.1731,-2.2843,-2.4628,-2.7103,-2.6987,-2.7487,-2.851,-2.851,-2.8961,-2.9845,-3.0581,-3.097,-3.1254,-3.3143,-3.3965,-3.3965,-3.4293,-3.4414,-3.4414,-3.4414,-3.4414,-3.4601,-3.5385,-3.6119,-3.6783,-3.7573,-3.8745,-3.9834,-4.0068,-4.0915,-4.1877,-4.2293,-4.296,-4.3698,-4.4223,-4.4657,-4.5033,-4.5322,-4.5534,-4.5722,-4.5872,-4.6033,-4.615,-4.603,-4.6066,-4.6044,-4.5858,-4.5828,-4.5794,-4.5712,-4.5659,-4.5622,-4.5603,-4.5622,-4.5605,-4.5608,-4.5686,-4.703,-5.0275,-5.0654,-5.0689,-5.0707,-4.9443,-4.8726,-4.8726,-4.8907,-4.8952,-4.8896,-4.8978,-4.8977,-4.9,-4.9012,-4.8957,-4.8901,-4.8898,-5.0748,-1.0864,-1.1216,-1.1623,-1.1629,-1.1294,-1.0783,-1.0336,-0.9643,-0.8962,-0.8567,-0.8285,-0.8214,-0.8306,-0.8167,-0.8038,-0.8038,-0.8038,-0.8038,-0.8038,-0.9805,-1.1556,-1.2608,-1.4166,-1.5534,-1.6487,-1.6109,-1.5832,-1.5832,-1.5832,-1.5832,-1.5832,-1.6763,-1.7512,-1.7878,-1.8788,-1.9886,-2.097,-2.2551,-2.3953,-2.4978,-2.5389,-2.6224,-2.7406,-2.7244,-2.781,-2.8949,-2.9781,-3.0745,-3.1783,-3.3002,-3.3675,-3.3896,-3.3991,-3.4196,-3.4414,-3.4414,-3.4481,-3.4735,-3.5882,-3.6554,-3.7115,-3.8181,-3.8999,-3.9547,-4.0069,-4.1049,-4.2187,-4.2996,-4.3539,-4.3992,-4.4606,-4.4877,-4.5096,-4.5706,-4.5935,-4.6054,-4.6147,-4.6177,-4.6167,-4.6071,-4.6092,-4.6037,-4.5835,-4.5796,-4.5757,-4.5659,-4.5622,-4.5586,-4.5586,-4.5586,-4.5609,-4.5607,-4.5598,-4.6991,-5.0396,-4.9982,-4.9561,-4.9551,-4.9149,-4.8901,-4.8902,-4.8903,-4.8893,-4.8893,-4.8903,-4.8915,-4.8902,-4.8917,-5.0108,-5.2423,-5.2446,-5.3121,-1.1689,-1.1962,-1.2322,-1.2382,-1.1896,-1.1537,-1.1615,-1.0673,-0.9701,-0.9546,-0.9291,-0.9127,-0.8929,-0.8873,-0.8744,-0.8206,-0.8072,-0.8038,-0.8038,-1.019,-1.194,-1.2608,-1.4459,-1.592,-1.6581,-1.6211,-1.5927,-1.5832,-1.5832,-1.5832,-1.5832,-1.6393,-1.6951,-1.7326,-1.8241,-1.933,-2.0512,-2.1667,-2.2639,-2.3531,-2.3932,-2.4766,-2.6025,-2.6389,-2.6987,-2.7914,-2.916,-3.0291,-3.1415,-3.2547,-3.3227,-3.3521,-3.3785,-3.4128,-3.4414,-3.4414,-3.4668,-3.5169,-3.6306,-3.6964,-3.7632,-3.8827,-3.9408,-3.9795,-4.0579,-4.1591,-4.2591,-4.3408,-4.3899,-4.427,-4.4713,-4.5014,-4.5362,-4.5984,-4.6173,-4.6202,-4.6225,-4.6229,-4.6189,-4.6054,-4.6037,-4.5975,-4.5771,-4.5731,-4.5686,-4.5611,-4.5591,-4.5592,-4.5611,-4.561,-4.56,-4.5583,-4.6266,-4.7513,-4.9514,-4.8952,-4.8608,-4.8887,-4.89,-4.8903,-4.8881,-4.8915,-4.8895,-4.8911,-4.889,-4.8906,-4.8906,-5.0142,-5.1993,-5.4405,-5.4386,-5.3812,0.0,0.0,0.0,-1.3008,-1.239,-1.2098,-1.3552,-1.239,-1.1023,-1.1172,-1.1072,-1.0694,-0.9834,-1.0314,-1.0362,-0.8747,-0.824,-0.8038,-0.8137,-1.0765,-1.2796,-1.2802,-1.5222,-1.6885,-1.6588,-1.6407,-1.6123,-1.5825,-1.5832,-1.5832,-1.5832,-1.5832,-1.6204,-1.7232,-1.8241,-1.9247,-2.0257,-1.9985,-2.0962,-2.3008,-2.2795,-2.3288,-2.447,-2.5775,-2.6472,-2.6637,-2.8743,-2.9704,-2.9858,-3.1623,-3.2533,-3.2775,-3.3701,-3.4196,-3.4414,-3.4414,-3.489,-3.574,-3.6523,-3.735,-3.8173,-3.9312,-3.9963,-4.0468,-4.148,-4.2426,-4.3178,-4.3479,-4.3998,-4.4504,-4.4511,-4.5163,-4.5882,-4.6137,-4.6192,-4.618,-4.6119,-4.6201,-4.6212,-4.5952,-4.5909,-4.5825,-4.563,-4.5609,-4.5591,-4.5585,-4.5583,-4.5598,-4.557,-4.564,-4.5655,-4.5645,-4.759,-4.8527,-4.776,-4.7692,-4.8013,-4.8823,-4.8879,-4.886,-4.886,-4.8883,-4.8826,-4.8731,-4.8869,-4.8937,-4.8925,-5.251,-5.4251,-5.4261,-5.4221,-5.2522,-1.3572,0.0,0.0,0.0,0.0,0.0,-1.3074,-1.2784,-1.24,-1.2527,-1.2785,-1.3068,-1.2762,-1.2463,-1.2277,-1.2228,-1.0992,-1.0096,-1.0293,-1.2506,-1.4142,-1.4339,-1.59,-1.6885,-1.6588,-1.6407,-1.6123,-1.5825,-1.5832,-1.5832,-1.5832,-1.5832,-1.592,-1.6204,-1.7232,-1.8241,-1.9247,-1.9704,-2.0538,-2.1909,-2.1436,-2.2454,-2.4681,-2.4914,-2.6108,-2.7995,-2.8566,-2.8961,-2.9419,-3.1193,-3.2245,-3.2775,-3.3452,-3.4005,-3.4414,-3.4563,-3.5118,-3.5867,-3.6322,-3.7155,-3.8219,-3.9365,-3.9712,-3.9824,-4.1129,-4.2378,-4.3542,-4.4188,-4.4447,-4.4651,-4.5263,-4.5769,-4.6115,-4.6176,-4.6241,-4.6237,-4.6115,-4.6137,-4.6091,-4.5872,-4.5838,-4.5767,-4.5644,-4.5598,-4.5592,-4.5601,-4.5584,-4.5475,-4.5136,-4.6278,-4.7113,-4.7113,-4.7664,-4.7938,-4.7736,-4.7677,-4.7767,-4.8017,-4.805,-4.8016,-4.8016,-4.8032,-4.7071,-4.5017,-4.784,-4.9347,-4.9325,-5.0362,-5.0885,-5.0854,-5.0268,-4.9524,-1.4418,-1.4328,-1.4522,-1.4544,0.0,0.0,-1.4428,-1.409,-1.3739,-1.4377,-1.4715,-1.4783,-1.4457,-1.427,-1.4267,-1.4255,-1.3562,-1.2802,-1.2211,-1.3471,-1.4727,-1.5292,-1.6285,-1.6972,-1.6864,-1.669,-1.6501,-1.6305,-1.6305,-1.6211,-1.6109,-1.6109,-1.6015,-1.5832,-1.6393,-1.7318,-1.8611,-1.9072,-1.9994,-2.1392,-2.1114,-2.205,-2.4114,-2.4501,-2.5775,-2.7742,-2.87,-2.9263,-2.9639,-3.1429,-3.2318,-3.2547,-3.3646,-3.4399,-3.4905,-3.5169,-3.6009,-3.6993,-3.7234,-3.8082,-3.9206,-3.9833,-3.9829,-3.9886,-4.1318,-4.2796,-4.4063,-4.4436,-4.4687,-4.5035,-4.5744,-4.6057,-4.6214,-4.6241,-4.6198,-4.6105,-4.6035,-4.5839,-4.5653,-4.5528,-4.5513,-4.5457,-4.5287,-4.5211,-4.5192,-4.5308,-4.53,-4.549,-4.6004,-4.7005,-4.7689,-4.7703,-4.7699,-4.7709,-4.7706,-4.7692,-4.7696,-4.7696,-4.7697,-4.7187,-4.5993,-4.5956,-4.5165,-4.3538,-4.579,-4.6985,-4.7001,-4.8344,-4.899,-4.901,-4.9017,-4.9007,-1.5274,-1.5117,-1.5206,-1.5573,-1.4898,0.0,-1.6517,-1.5693,-1.501,-1.6138,-1.6324,-1.6023,-1.5252,-1.5671,-1.5892,-1.5204,-1.5745,-1.5617,-1.3999,-1.4327,-1.5026,-1.5961,-1.6662,-1.716,-1.7333,-1.716,-1.6979,-1.6979,-1.6979,-1.6878,-1.6588,-1.6588,-1.6393,-1.5825,-1.5927,-1.6756,-1.8427,-1.8519,-1.9538,-2.1392,-2.1392,-2.2078,-2.3183,-2.4532,-2.563,-2.6719,-2.9032,-3.0063,-3.0215,-3.2087,-3.2605,-3.2434,-3.4167,-3.5154,-3.574,-3.6119,-3.7275,-3.8586,-3.8504,-3.9496,-4.074,-4.0774,-4.0694,-4.0829,-4.1959,-4.346,-4.4721,-4.4478,-4.4939,-4.5576,-4.5991,-4.615,-4.6225,-4.6248,-4.6072,-4.588,-4.5847,-4.5468,-4.5112,-4.5053,-4.5034,-4.4973,-4.4789,-4.4561,-4.4515,-4.4841,-4.5059,-4.5817,-4.7479,-4.7702,-4.7709,-4.7705,-4.7699,-4.7681,-4.7681,-4.7706,-4.7551,-4.7237,-4.7211,-4.6114,-4.3604,-4.3483,-4.3506,-4.3488,-4.3648,-4.3692,-4.3721,-4.6795,-4.818,-4.7993,-4.9008,-4.9578,-1.6418,-1.6197,-1.6156,-1.6315,-1.6369,0.0,-1.5687,-1.6182,-1.6451,-1.5578,-1.5968,-1.6378,-1.6041,-1.5844,-1.5852,-1.593,-1.6133,-1.6189,-1.5994,-1.656,-1.7239,-1.7606,-1.7621,-1.7535,-1.7333,-1.716,-1.6979,-1.6979,-1.7153,-1.7052,-1.6581,-1.6588,-1.6393,-1.5825,-1.6581,-1.7598,-1.8696,-1.9521,-2.0538,-2.1651,-2.1651,-2.2334,-2.3714,-2.4617,-2.588,-2.7383,-2.9201,-3.0291,-3.0882,-3.2607,-3.3325,-3.338,-3.4868,-3.5821,-3.6399,-3.7125,-3.8196,-3.9207,-3.852,-3.9515,-4.1393,-4.3238,-4.3816,-4.3726,-4.329,-4.4025,-4.5038,-4.5149,-4.5607,-4.606,-4.6167,-4.623,-4.6225,-4.6029,-4.5948,-4.5832,-4.5553,-4.5428,-4.5208,-4.4796,-4.4651,-4.4557,-4.442,-4.3751,-4.3608,-4.4712,-4.619,-4.7297,-4.7647,-4.7703,-4.7692,-4.7699,-4.771,-4.7697,-4.7697,-4.7718,-4.6713,-4.4476,-4.4317,-4.407,-4.3522,-4.3519,-4.3513,-4.3494,-4.4489,-4.5052,-4.5042,-4.7252,-4.7528,-4.5988,-4.6164,-4.7163,-1.7494,-1.732,-1.7415,-1.7799,-1.7617,0.0,0.0,-1.7209,-1.7259,-1.7278,-1.7334,-1.744,-1.7553,-1.7499,-1.7447,-1.7641,-1.7717,-1.7644,-1.7455,-1.7477,-1.7714,-1.8365,-1.8001,-1.7721,-1.7707,-1.7535,-1.7441,-1.7535,-1.79,-1.78,-1.7333,-1.7052,-1.6676,-1.6204,-1.6393,-1.7404,-1.9139,-1.9505,-2.061,-2.2441,-2.2264,-2.295,-2.4145,-2.5126,-2.6378,-2.7787,-3.0164,-3.1375,-3.1888,-3.3711,-3.4773,-3.5398,-3.5582,-3.63,-3.7317,-3.8202,-3.9324,-4.022,-3.9504,-4.0569,-4.2502,-4.3683,-4.4438,-4.4871,-4.4662,-4.5032,-4.5568,-4.5664,-4.5943,-4.6195,-4.6169,-4.6158,-4.6118,-4.5969,-4.5794,-4.5612,-4.5481,-4.5207,-4.4881,-4.4455,-4.4665,-4.4853,-4.4776,-4.3719,-4.3658,-4.5974,-4.7074,-4.7699,-4.7709,-4.7688,-4.7692,-4.7702,-4.7688,-4.7048,-4.5427,-4.5319,-4.4786,-4.3598,-4.3519,-4.3799,-4.4432,-4.4467,-4.3746,-4.222,-4.2819,-4.3165,-4.3167,-4.412,-4.4904,-4.5391,-4.5651,-4.6318,-1.8624,-1.873,-1.9015,-1.9523,-1.8996,-1.8522,0.0,0.0,0.0,-1.8657,-1.8414,-1.8162,-1.8499,-1.8564,-1.8518,-1.8546,-1.8727,-1.8724,-1.8113,-1.7762,-1.781,-1.8683,-1.8249,-1.7971,-1.8264,-1.8026,-1.7857,-1.8079,-1.8517,-1.8593,-1.8079,-1.7707,-1.7239,-1.6581,-1.6662,-1.7576,-1.9497,-1.977,-2.1042,-2.3135,-2.3057,-2.356,-2.4659,-2.5714,-2.693,-2.839,-3.1175,-3.2593,-3.3087,-3.4999,-3.6322,-3.7096,-3.6468,-3.7062,-3.8372,-3.948,-4.0483,-4.1341,-4.1025,-4.2066,-4.3608,-4.3789,-4.4499,-4.5333,-4.5723,-4.5938,-4.6033,-4.6015,-4.6071,-4.6127,-4.608,-4.5994,-4.591,-4.5878,-4.5611,-4.5379,-4.5378,-4.4947,-4.4524,-4.4352,-4.4786,-4.5156,-4.5076,-4.4272,-4.4583,-4.7266,-4.7722,-4.7706,-4.7725,-4.7143,-4.6776,-4.6803,-4.6767,-4.5717,-4.312,-4.2899,-4.3184,-4.3828,-4.3863,-4.4333,-4.5351,-4.4846,-4.3395,-4.0932,-4.0909,-4.0884,-4.0895,-4.0878,-4.2127,-4.456,-4.4988,-4.5187,-1.9941,-2.0565,-2.1495,-2.1218,-2.1092,-2.0622,-1.8933,0.0,-1.8204,-1.6901,0.0,-1.6978,-1.7035,0.0,0.0,-1.6501,-1.7318,-1.7907,-1.7378,-1.7943,-1.8399,-1.8515,-1.8434,-1.8617,-1.8994,-1.8594,-1.816,-1.8133,-1.841,-1.8507,-1.8149,-1.8087,-1.7613,-1.6588,-1.8588,-1.9679,-1.9497,-2.1863,-2.3047,-2.3135,-2.3493,-2.4155,-2.5041,-2.6224,-2.7853,-2.9961,-3.1748,-3.3171,-3.4283,-3.6199,-3.7017,-3.7094,-3.7665,-3.8558,-3.9662,-4.1039,-4.1742,-4.2091,-4.2818,-4.3553,-4.4336,-4.5224,-4.5661,-4.5829,-4.5939,-4.6072,-4.6165,-4.6113,-4.6006,-4.5939,-4.591,-4.5778,-4.5606,-4.543,-4.5342,-4.5246,-4.5023,-4.4688,-4.458,-4.5069,-4.4883,-4.4673,-4.4596,-4.5568,-4.6649,-4.7561,-4.7693,-4.7705,-4.7697,-4.5216,-4.3444,-4.343,-4.3446,-4.3315,-4.2917,-4.2875,-4.3571,-4.5106,-4.5194,-4.5262,-4.5364,-4.28,-4.1237,-4.0934,-4.0922,-4.0918,-4.0892,-4.0918,-4.1078,-4.1415,-4.1478,-4.1505,-2.1399,-2.1574,-2.1864,-2.2444,-2.2014,-2.133,-2.1112,-2.0042,-1.9249,-1.9837,0.0,0.0,0.0,0.0,0.0,0.0,-1.8251,-1.8427,-1.7784,-1.8527,-1.908,-1.9092,-1.8468,-1.8151,-1.8455,-1.9335,-1.9533,-1.8964,-2.0021,-2.0421,-1.9795,-1.953,-1.9155,-1.8688,-1.9497,-2.0387,-2.1185,-2.2287,-2.3434,-2.4648,-2.4893,-2.5378,-2.6191,-2.7897,-2.8879,-2.9314,-3.2222,-3.4296,-3.5652,-3.7152,-3.8395,-3.9427,-3.973,-4.0418,-4.1243,-4.1558,-4.2467,-4.352,-4.3448,-4.4049,-4.4993,-4.5689,-4.5936,-4.5966,-4.598,-4.5975,-4.5958,-4.5891,-4.5803,-4.5725,-4.5686,-4.5572,-4.5447,-4.5323,-4.5058,-4.4787,-4.4553,-4.4568,-4.461,-4.4504,-4.473,-4.4828,-4.461,-4.5594,-4.668,-4.756,-4.7716,-4.7515,-4.6874,-4.4529,-4.2889,-4.2897,-4.3483,-4.3875,-4.3877,-4.392,-4.4331,-4.5341,-4.3777,-4.2791,-4.2788,-4.1598,-4.0891,-4.091,-4.0891,-4.092,-4.0899,-4.0913,-4.1043,-4.1291,-4.1034,-4.1052,-2.2524,-2.2592,-2.2567,-2.3352,-2.2628,-2.1835,-2.2507,-2.1519,-2.0936,-2.2444,-2.2002,0.0,0.0,0.0,-2.1009,-2.0064,0.0,-1.9698,-1.8674,-1.9103,-1.9579,-1.9584,-1.9203,-1.8843,-1.8832,-2.0407,-2.1093,-2.0138,-2.1631,-2.2265,-2.1409,-2.1042,-2.0764,-2.0567,-2.0828,-2.1444,-2.2522,-2.3211,-2.433,-2.6047,-2.6345,-2.6966,-2.7977,-2.9771,-3.0498,-3.0512,-3.3318,-3.5431,-3.7014,-3.8384,-3.9765,-4.1103,-4.1671,-4.2336,-4.2846,-4.2323,-4.3268,-4.474,-4.4162,-4.4645,-4.5562,-4.592,-4.5986,-4.5945,-4.5958,-4.585,-4.5733,-4.566,-4.5583,-4.5488,-4.5445,-4.5285,-4.5163,-4.5055,-4.4663,-4.4289,-4.4349,-4.4443,-4.4455,-4.4222,-4.4588,-4.4887,-4.4636,-4.5219,-4.605,-4.7071,-4.7384,-4.6882,-4.517,-4.368,-4.2954,-4.3348,-4.3779,-4.4054,-4.4071,-4.3512,-4.3323,-4.3679,-4.1968,-4.0915,-4.0915,-4.0607,-4.0436,-4.0472,-4.0594,-4.0695,-4.0692,-4.0661,-4.0849,-4.1184,-4.0822,-4.0995,-2.2921,-2.3741,-2.4567,-2.3958,-2.3233,-2.25,-2.2065,-2.2604,-2.3257,-2.3198,-2.4444,-2.5432,-2.4874,-2.4467,-2.3803,-2.2443,-2.2337,0.0,0.0,-1.9571,-1.9645,-1.9889,-2.1043,-2.1638,-2.1075,-2.2168,-2.2505,-2.1477,-2.2625,-2.3042,-2.2397,-2.2356,-2.2073,-2.1594,-2.2969,-2.3424,-2.3027,-2.5262,-2.6449,-2.6651,-2.7693,-2.9142,-3.0908,-3.1441,-3.3085,-3.5364,-3.5309,-3.6373,-3.8293,-4.0072,-4.0847,-4.1113,-4.3125,-4.4106,-4.4354,-4.3679,-4.4269,-4.5374,-4.5419,-4.5661,-4.5986,-4.6078,-4.5976,-4.5802,-4.5816,-4.5713,-4.558,-4.5529,-4.5411,-4.5304,-4.5223,-4.4929,-4.4587,-4.4457,-4.4069,-4.3915,-4.4635,-4.4327,-4.409,-4.4682,-4.4664,-4.46,-4.4624,-4.4657,-4.5018,-4.5912,-4.6628,-4.5747,-4.2201,-4.226,-4.3134,-4.4432,-4.3441,-4.2683,-4.2631,-4.0688,-3.9462,-3.9476,-4.0391,-4.0914,-4.0914,-3.988,-3.9355,-3.9372,-3.9834,-4.0136,-4.0104,-4.0148,-4.0137,-4.0163,-4.0154,-4.0663,-2.4272,-2.4791,-2.4967,-2.473,-2.4098,-2.3542,-2.3552,-2.4019,-2.4563,-2.5076,-2.5781,-2.613,-2.5733,-2.5371,-2.4562,-2.3111,-2.2647,-2.2011,0.0,-2.0989,-2.1485,-2.1979,-2.1643,-2.0906,-1.9751,-2.2139,-2.321,-2.183,-2.3716,-2.462,-2.3836,-2.378,-2.4008,-2.4374,-2.5009,-2.567,-2.6513,-2.7475,-2.8645,-2.9922,-3.0511,-3.16,-3.3099,-3.4507,-3.5672,-3.6506,-3.6654,-3.8399,-4.112,-4.1296,-4.2042,-4.3085,-4.3802,-4.4554,-4.5225,-4.5167,-4.5292,-4.5495,-4.5743,-4.5904,-4.5992,-4.5919,-4.5825,-4.571,-4.5577,-4.548,-4.5389,-4.5265,-4.514,-4.4981,-4.4833,-4.4557,-4.4194,-4.3979,-4.3885,-4.3871,-4.3993,-4.4083,-4.4163,-4.421,-4.3834,-4.3523,-4.3539,-4.3249,-4.3388,-4.4492,-4.5336,-4.4957,-4.256,-4.2049,-4.2289,-4.3162,-4.156,-4.0393,-4.0442,-3.9714,-3.9312,-3.9272,-3.9631,-3.9985,-4.035,-4.0003,-3.9817,-3.9844,-4.0021,-3.9329,-3.7736,-3.8182,-3.8378,-3.8391,-3.8383,-3.8547,-2.4779,-2.4992,0.0,-2.5142,-2.4779,-2.448,-2.4796,-2.5462,-2.6179,-2.6699,-2.7528,-2.8002,-2.774,-2.7135,-2.6258,-2.503,-2.415,-2.313,0.0,-2.1961,-2.2304,-2.2724,-2.236,-2.1957,-2.16,-2.3568,-2.473,-2.4461,-2.5779,-2.6465,-2.6229,-2.6108,-2.6345,-2.6907,-2.707,-2.7693,-2.8922,-2.9553,-3.0651,-3.2272,-3.2905,-3.3917,-3.5307,-3.6685,-3.7623,-3.816,-3.864,-4.0123,-4.2246,-4.265,-4.3619,-4.4836,-4.4649,-4.4956,-4.552,-4.5745,-4.5781,-4.582,-4.6279,-4.6269,-4.6062,-4.6188,-4.5964,-4.5601,-4.5413,-4.5285,-4.5161,-4.5106,-4.4919,-4.4745,-4.4568,-4.4184,-4.3762,-4.3465,-4.336,-4.327,-4.3411,-4.3713,-4.3875,-4.3715,-4.3385,-4.3066,-4.2637,-4.2202,-4.2152,-4.2989,-4.3693,-4.3608,-4.22,-4.1288,-4.0971,-4.1394,-4.0153,-3.929,-3.9276,-3.9287,-3.9268,-3.9301,-3.9304,-3.9534,-4.0076,-3.9287,-3.9212,-4.0057,-3.9476,-3.8423,-3.6876,-3.7307,-3.7526,-3.7528,-3.7503,-3.803]}]]